[[{"header":{"parameterUnit":"m.s-1","parameterCategory":1,"la1":30.6,"la2":28.766,"lo1":-90.7593,"lo2":-88.6598,"dy":0.0162,"dx":0.0183,"nx":116,"ny":114,"refTime":"2023-04-04T06:00:00:Z","depth":0,"parameterNumber":2,"parameterNumberName":"U-component_of_WINDS"},"data":[0.0,0.0,0.0,0.0,0.0,0.0,0.0,0.0,0.0,0.0,0.0,0.0,0.0,0.0,0.0,0.0,0.0,0.0,0.0,0.0,0.0,0.0,0.0,0.0,0.0,0.0,0.0,0.0,0.0,0.0,0.0,0.0,0.0,0.0,0.0,0.0,0.0,0.0,0.0,0.0,0.0,0.0,0.0,0.0,0.0,0.0,0.0,0.0,0.0,0.0,0.0,0.0,0.0,0.0,0.0,0.0,0.0,0.0,0.0,0.0,0.0,0.0,0.0,0.0,0.0,0.0,0.0,0.0,0.0,0.0,0.0,0.0,0.0,0.0,0.0,0.0,0.0,0.0,0.0,0.0,0.0,0.0,0.0,0.0,0.0,0.0,0.0,0.0,0.0,0.0,0.0,0.0,0.0,0.0,0.0,0.0,0.0,0.0,0.0,0.0,0.0,0.0,0.0,0.0,0.0,0.0,0.0,0.0,0.0,0.0,0.0,0.0,0.0,0.0,0.0,0.0,0.0,0.0,0.0,0.0,0.0,0.0,0.0,0.0,0.0,0.0,0.0,0.0,0.0,0.0,0.0,0.0,0.0,0.0,0.0,0.0,0.0,0.0,0.0,0.0,0.0,0.0,0.0,0.0,0.0,0.0,0.0,0.0,0.0,0.0,0.0,0.0,0.0,0.0,0.0,0.0,0.0,0.0,0.0,0.0,0.0,0.0,0.0,0.0,0.0,0.0,0.0,0.0,0.0,0.0,0.0,0.0,0.0,0.0,0.0,0.0,0.0,0.0,0.0,0.0,0.0,0.0,0.0,0.0,0.0,0.0,0.0,0.0,0.0,0.0,0.0,0.0,0.0,0.0,0.0,0.0,0.0,0.0,0.0,0.0,0.0,0.0,0.0,0.0,0.0,0.0,0.0,0.0,0.0,0.0,0.0,0.0,0.0,0.0,0.0,0.0,0.0,0.0,0.0,0.0,0.0,0.0,0.0,0.0,0.0,0.0,0.0,0.0,0.0,0.0,0.0,0.0,0.0,0.0,0.0,0.0,0.0,0.0,0.0,0.0,0.0,0.0,0.0,0.0,0.0,0.0,0.0,0.0,0.0,0.0,0.0,0.0,0.0,0.0,0.0,0.0,0.0,0.0,0.0,0.0,0.0,0.0,0.0,0.0,0.0,0.0,0.0,0.0,0.0,0.0,0.0,0.0,0.0,0.0,0.0,0.0,0.0,0.0,0.0,0.0,0.0,0.0,0.0,0.0,0.0,0.0,0.0,0.0,0.0,0.0,0.0,0.0,0.0,0.0,0.0,0.0,0.0,0.0,0.0,0.0,0.0,0.0,0.0,0.0,0.0,0.0,0.0,0.0,0.0,0.0,0.0,0.0,0.0,0.0,0.0,0.0,0.0,0.0,0.0,0.0,0.0,0.0,0.0,0.0,0.0,0.0,0.0,0.0,0.0,0.0,0.0,0.0,0.0,0.0,0.0,0.0,0.0,0.0,0.0,0.0,0.0,0.0,0.0,0.0,0.0,0.0,0.0,0.0,0.0,0.0,0.0,0.0,0.0,0.0,0.0,0.0,0.0,0.0,0.0,0.0,0.0,0.0,0.0,0.0,0.0,0.0,0.0,0.0,0.0,0.0,0.0,0.0,0.0,0.0,0.0,0.0,0.0,0.0,0.0,0.0,0.0,0.0,0.0,0.0,0.0,0.0,0.0,0.0,0.0,0.0,0.0,0.0,0.0,0.0,0.0,0.0,0.0,0.0,0.0,0.0,0.0,0.0,0.0,0.0,0.0,0.0,0.0,0.0,0.0,0.0,0.0,0.0,0.0,0.0,0.0,0.0,0.0,0.0,0.0,0.0,0.0,0.0,0.0,0.0,0.0,0.0,0.0,0.0,0.0,0.0,0.0,0.0,0.0,0.0,0.0,0.0,0.0,0.0,0.0,0.0,0.0,0.0,0.0,0.0,0.0,0.0,0.0,0.0,0.0,0.0,0.0,0.0,0.0,0.0,0.0,0.0,0.0,0.0,0.0,0.0,0.0,0.0,0.0,0.0,0.0,0.0,0.0,0.0,0.0,0.0,0.0,0.0,0.0,0.0,0.0,0.0,0.0,0.0,0.0,0.0,0.0,0.0,0.0,0.0,0.0,0.0,0.0,0.0,0.0,0.0,0.0,0.0,0.0,0.0,0.0,0.0,0.0,0.0,0.0,0.0,0.0,0.0,0.0,0.0,0.0,0.0,0.0,0.0,0.0,0.0,0.0,0.0,0.0,0.0,0.0,0.0,0.0,0.0,0.0,0.0,0.0,0.0,0.0,0.0,0.0,0.0,0.0,0.0,0.0,0.0,0.0,0.0,0.0,0.0,0.0,0.0,0.0,0.0,0.0,0.0,0.0,0.0,0.0,0.0,0.0,0.0,0.0,0.0,0.0,0.0,0.0,0.0,0.0,0.0,0.0,0.0,0.0,0.0,0.0,0.0,0.0,0.0,0.0,0.0,0.0,0.0,0.0,0.0,0.0,0.0,0.0,0.0,0.0,0.0,0.0,0.0,0.0,0.0,0.0,0.0,0.0,0.0,0.0,0.0,0.0,0.0,0.0,0.0,0.0,0.0,0.0,0.0,0.0,0.0,0.0,0.0,0.0,0.0,0.0,0.0,0.0,0.0,0.0,0.0,0.0,0.0,0.0,0.0,0.0,0.0,0.0,0.0,0.0,0.0,0.0,0.0,0.0,0.0,0.0,0.0,0.0,0.0,0.0,0.0,0.0,0.0,0.0,0.0,0.0,0.0,0.0,0.0,0.0,0.0,0.0,0.0,0.0,0.0,0.0,0.0,0.0,0.0,0.0,0.0,0.0,0.0,0.0,0.0,0.0,0.0,0.0,0.0,0.0,0.0,0.0,0.0,0.0,0.0,0.0,0.0,0.0,0.0,0.0,0.0,0.0,0.0,0.0,0.0,0.0,0.0,0.0,0.0,0.0,0.0,0.0,0.0,0.0,0.0,0.0,0.0,0.0,0.0,0.0,0.0,0.0,0.0,0.0,0.0,0.0,0.0,0.0,0.0,0.0,0.0,0.0,0.0,0.0,0.0,0.0,0.0,0.0,0.0,0.0,0.0,0.0,0.0,0.0,0.0,0.0,0.0,0.0,0.0,0.0,0.0,0.0,0.0,0.0,0.0,0.0,0.0,0.0,0.0,0.0,0.0,0.0,0.0,0.0,0.0,0.0,0.0,0.0,0.0,0.0,0.0,0.0,0.0,0.0,0.0,0.0,0.0,0.0,0.0,0.0,0.0,0.0,0.0,0.0,0.0,0.0,0.0,0.0,0.0,0.0,0.0,0.0,0.0,0.0,0.0,0.0,0.0,0.0,0.0,0.0,0.0,0.0,0.0,0.0,0.0,0.0,0.0,0.0,0.0,0.0,0.0,0.0,0.0,0.0,0.0,0.0,0.0,0.0,0.0,0.0,0.0,0.0,0.0,0.0,0.0,0.0,0.0,0.0,0.0,0.0,0.0,0.0,0.0,0.0,0.0,0.0,0.0,0.0,0.0,0.0,0.0,0.0,0.0,0.0,0.0,0.0,0.0,0.0,0.0,0.0,0.0,0.0,0.0,0.0,0.0,0.0,0.0,0.0,0.0,0.0,0.0,0.0,0.0,0.0,0.0,0.0,0.0,0.0,0.0,0.0,0.0,0.0,0.0,0.0,0.0,0.0,0.0,0.0,0.0,0.0,0.0,0.0,0.0,0.0,0.0,0.0,0.0,0.0,0.0,0.0,0.0,0.0,0.0,0.0,0.0,0.0,0.0,0.0,0.0,0.0,0.0,0.0,0.0,0.0,0.0,0.0,0.0,0.0,0.0,0.0,0.0,0.0,0.0,0.0,0.0,0.0,0.0,0.0,0.0,0.0,0.0,0.0,0.0,0.0,0.0,0.0,0.0,0.0,0.0,0.0,0.0,0.0,0.0,0.0,0.0,0.0,0.0,0.0,0.0,0.0,0.0,0.0,0.0,0.0,0.0,0.0,0.0,0.0,0.0,0.0,0.0,0.0,0.0,0.0,0.0,0.0,0.0,0.0,0.0,0.0,0.0,0.0,0.0,0.0,0.0,0.0,0.0,0.0,0.0,0.0,0.0,0.0,0.0,0.0,0.0,0.0,0.0,0.0,0.0,0.0,0.0,0.0,0.0,0.0,0.0,0.0,0.0,0.0,0.0,0.0,0.0,0.0,0.0,0.0,0.0,0.0,0.0,0.0,0.0,0.0,0.0,0.0,0.0,0.0,0.0,0.0,0.0,0.0,0.0,0.0,0.0,0.0,0.0,0.0,0.0,0.0,0.0,0.0,0.0,0.0,0.0,0.0,0.0,0.0,0.0,0.0,0.0,0.0,0.0,0.0,0.0,0.0,0.0,0.0,0.0,0.0,0.0,0.0,0.0,0.0,0.0,0.0,0.0,0.0,0.0,0.0,0.0,0.0,0.0,0.0,0.0,0.0,0.0,0.0,0.0,0.0,0.0,0.0,0.0,0.0,0.0,0.0,0.0,0.0,0.0,0.0,0.0,0.0,0.0,0.0,0.0,0.0,0.0,0.0,0.0,0.0,0.0,0.0,0.0,0.0,0.0,0.0,0.0,0.0,0.0,0.0,0.0,0.0,0.0,0.0,0.0,0.0,0.0,0.0,0.0,0.0,0.0,0.0,0.0,0.0,0.0,0.0,0.0,0.0,0.0,0.0,0.0,0.0,0.0,0.0,0.0,0.0,0.0,0.0,0.0,0.0,0.0,0.0,0.0,0.0,0.0,0.0,0.0,0.0,0.0,0.0,0.0,0.0,0.0,0.0,0.0,0.0,0.0,0.0,0.0,0.0,0.0,0.0,0.0,0.0,0.0,0.0,0.0,0.0,0.0,0.0,0.0,0.0,0.0,0.0,0.0,0.0,0.0,0.0,0.0,0.0,0.0,0.0,0.0,0.0,0.0,0.0,0.0,0.0,0.0,0.0,0.0,0.0,0.0,0.0,0.0,0.0,0.0,0.0,0.0,0.0,0.0,0.0,0.0,0.0,0.0,0.0,0.0,0.0,0.0,0.0,0.0,0.0,0.0,0.0,0.0,0.0,0.0,0.0,0.0,0.0,0.0,0.0,0.0,0.0,0.0,0.0,0.0,0.0,0.0,0.0,0.0,0.0,0.0,0.0,0.0,0.0,0.0,0.0,0.0,0.0,0.0,0.0,0.0,0.0,0.0,0.0,0.0,0.0,0.0,0.0,0.0,0.0,0.0,0.0,0.0,0.0,0.0,0.0,0.0,0.0,0.0,0.0,0.0,0.0,0.0,0.0,0.0,0.0,0.0,0.0,0.0,0.0,0.0,0.0,0.0,0.0,0.0,0.0,0.0,0.0,0.0,0.0,0.0,0.0,0.0,0.0,0.0,0.0,0.0,0.0,0.0,0.0,0.0,0.0,0.0,0.0,0.0,0.0,0.0,0.0,0.0,0.0,0.0,0.0,0.0,0.0,0.0,0.0,0.0,0.0,0.0,0.0,0.0,0.0,0.0,0.0,0.0,0.0,0.0,0.0,0.0,0.0,0.0,0.0,0.0,0.0,0.0,0.0,0.0,0.0,0.0,0.0,0.0,0.0,0.0,0.0,0.0,0.0,0.0,0.0,0.0,0.0,0.0,0.0,0.0,0.0,0.0,0.0,0.0,0.0,0.0,0.0,0.0,0.0,0.0,0.0,0.0,0.0,0.0,0.0,0.0,0.0,0.0,0.0,0.0,0.0,0.0,0.0,0.0,0.0,0.0,0.0,0.0,0.0,0.0,0.0,0.0,0.0,0.0,0.0,0.0,0.0,0.0,0.0,0.0,0.0,0.0,0.0,0.0,0.0,0.0,0.0,0.0,0.0,0.0,0.0,0.0,0.0,0.0,0.0,0.0,0.0,0.0,0.0,0.0,0.0,0.0,0.0,0.0,0.0,0.0,0.0,0.0,0.0,0.0,0.0,0.0,0.0,0.0,0.0,0.0,0.0,0.0,0.0,0.0,0.0,0.0,0.0,0.0,0.0,0.0,0.0,0.0,0.0,0.0,0.0,0.0,0.0,0.0,0.0,0.0,-2.7665,-2.7299,0.0,0.0,0.0,0.0,0.0,0.0,0.0,0.0,0.0,0.0,0.0,0.0,0.0,0.0,0.0,0.0,0.0,0.0,0.0,0.0,0.0,0.0,0.0,0.0,0.0,0.0,0.0,0.0,0.0,0.0,0.0,0.0,0.0,0.0,0.0,0.0,0.0,0.0,-2.1446,-2.2572,-2.5179,-2.6279,-2.6716,-2.657,0.0,0.0,0.0,0.0,0.0,0.0,0.0,0.0,0.0,0.0,0.0,0.0,0.0,0.0,0.0,0.0,0.0,0.0,0.0,0.0,0.0,0.0,0.0,0.0,0.0,0.0,0.0,0.0,0.0,0.0,0.0,0.0,0.0,0.0,0.0,0.0,0.0,0.0,0.0,0.0,0.0,0.0,0.0,0.0,0.0,0.0,0.0,0.0,0.0,0.0,0.0,0.0,0.0,0.0,0.0,0.0,0.0,0.0,0.0,0.0,0.0,0.0,0.0,0.0,0.0,0.0,0.0,0.0,0.0,0.0,-2.9881,-2.8905,0.0,0.0,0.0,0.0,0.0,0.0,0.0,0.0,0.0,0.0,0.0,0.0,0.0,0.0,0.0,0.0,0.0,0.0,0.0,0.0,0.0,0.0,0.0,-2.2846,-2.2363,-2.231,-2.2118,-2.1969,0.0,0.0,0.0,0.0,0.0,0.0,0.0,-2.147,-2.1553,-2.1083,-2.221,-2.4215,-2.706,-2.8424,-2.8231,-2.6753,-2.7494,0.0,0.0,0.0,0.0,0.0,0.0,0.0,0.0,0.0,0.0,0.0,0.0,0.0,0.0,0.0,0.0,0.0,0.0,0.0,0.0,0.0,0.0,0.0,0.0,0.0,0.0,0.0,0.0,0.0,0.0,0.0,0.0,0.0,0.0,0.0,0.0,0.0,0.0,0.0,0.0,0.0,0.0,0.0,0.0,0.0,0.0,0.0,0.0,0.0,0.0,0.0,0.0,0.0,0.0,0.0,0.0,0.0,0.0,0.0,0.0,0.0,0.0,0.0,-3.3707,-3.386,-3.4457,-3.4691,-3.4827,-3.4742,-3.3465,-3.1788,-2.995,-2.9831,0.0,0.0,0.0,0.0,0.0,0.0,0.0,0.0,0.0,0.0,0.0,0.0,0.0,0.0,0.0,0.0,0.0,0.0,0.0,0.0,0.0,-2.2538,-2.2363,-2.231,-2.2118,-2.1969,-2.1897,0.0,0.0,0.0,0.0,0.0,-2.1663,-2.1147,-2.1446,-2.2609,-2.5276,-2.7729,-2.9963,-3.0912,-3.1558,-3.1791,-2.909,-2.8272,-2.8837,0.0,0.0,0.0,0.0,0.0,0.0,0.0,0.0,0.0,0.0,0.0,0.0,0.0,0.0,0.0,0.0,0.0,0.0,0.0,0.0,0.0,0.0,0.0,0.0,0.0,0.0,0.0,0.0,0.0,0.0,0.0,0.0,0.0,0.0,0.0,0.0,0.0,0.0,0.0,0.0,0.0,-3.3518,-3.1819,0.0,0.0,0.0,0.0,0.0,0.0,0.0,0.0,0.0,0.0,0.0,0.0,0.0,-3.4742,-3.5476,-3.5364,-3.5394,-3.5615,-3.6758,-3.7341,-3.7477,-3.8713,-3.9257,-3.924,-3.9037,0.0,-3.213,-3.154,0.0,0.0,0.0,0.0,0.0,0.0,0.0,0.0,0.0,0.0,0.0,0.0,0.0,0.0,0.0,0.0,0.0,0.0,0.0,0.0,0.0,-2.3333,-2.3622,-2.3951,-2.4595,-2.4447,-2.3231,-2.3468,0.0,0.0,0.0,-2.2073,-2.1199,-2.2107,-2.3518,-2.5376,-2.829,-3.041,-3.1752,-3.2973,-3.3709,-3.3958,-3.2485,-3.1374,-3.0497,-2.8992,0.0,0.0,0.0,0.0,0.0,0.0,0.0,0.0,0.0,0.0,0.0,0.0,0.0,0.0,0.0,0.0,0.0,0.0,0.0,0.0,0.0,0.0,0.0,0.0,0.0,0.0,0.0,0.0,0.0,0.0,0.0,0.0,0.0,0.0,0.0,0.0,0.0,0.0,0.0,-3.3121,-3.3271,-3.1328,-3.246,-3.2855,0.0,0.0,0.0,0.0,0.0,0.0,0.0,0.0,0.0,-3.5138,-3.611,-3.6945,-3.7699,-3.8472,-3.889,-3.889,-3.9909,-4.0417,-4.0451,-4.106,-4.1348,-4.1348,-4.1348,-3.985,-3.7244,-3.4908,-3.3287,-3.2239,0.0,0.0,0.0,0.0,-3.1492,-3.18,0.0,0.0,0.0,0.0,0.0,0.0,0.0,0.0,0.0,0.0,0.0,0.0,-2.3941,-2.4669,-2.5397,-2.6082,-2.671,-2.6291,-2.4513,-2.4481,-2.3834,-2.2249,-2.27,-2.2353,-2.1,-2.3202,-2.5693,-2.8409,-3.094,-3.2829,-3.4121,-3.523,-3.5843,-3.6009,-3.5827,-3.4512,-3.2338,-3.0667,-2.9778,-2.9424,0.0,0.0,0.0,0.0,0.0,0.0,0.0,0.0,0.0,0.0,0.0,0.0,0.0,0.0,0.0,0.0,0.0,0.0,0.0,0.0,0.0,0.0,0.0,0.0,0.0,0.0,0.0,0.0,0.0,0.0,0.0,0.0,0.0,0.0,0.0,0.0,0.0,-3.3091,-3.3574,-3.119,-3.2816,-3.3499,0.0,0.0,0.0,0.0,0.0,0.0,-3.4503,-3.5521,-3.6571,-3.7569,-3.8768,-3.9645,-4.0196,-4.1619,-4.2252,-4.2083,-4.2811,-4.3064,-4.2905,-4.2905,-4.2905,-4.2905,-4.2905,-4.2455,-4.1508,-3.8051,-3.5681,-3.415,-3.3236,-3.3103,-3.3359,-3.2812,-3.3066,-3.3608,0.0,0.0,0.0,0.0,0.0,0.0,0.0,0.0,0.0,0.0,0.0,-2.474,-2.5341,-2.6553,-2.7618,-2.8371,-2.7163,-2.6045,-2.5297,-2.3833,-2.2988,-2.2948,-2.2921,-2.2542,-2.1763,-2.3918,-2.7131,-3.1383,-3.2928,-3.5148,-3.7947,-3.8013,-3.8411,-3.905,-3.8344,-3.6489,-3.38,-3.2302,-3.1417,-3.0766,-2.8174,0.0,0.0,0.0,0.0,0.0,0.0,0.0,0.0,0.0,0.0,0.0,0.0,0.0,0.0,0.0,0.0,0.0,0.0,0.0,0.0,0.0,0.0,0.0,0.0,0.0,0.0,0.0,0.0,0.0,0.0,0.0,0.0,0.0,0.0,0.0,0.0,0.0,0.0,-3.1873,-3.341,0.0,0.0,0.0,0.0,-3.5544,-3.6163,-3.6559,-3.6808,-3.8623,-3.9446,-3.9008,-4.167,-4.3166,-4.3183,-4.4722,-4.5128,-4.4445,-4.5179,-4.5162,-4.4479,-4.4479,-4.4479,-4.4479,-4.4479,-4.4028,-4.3064,-4.0129,-3.7657,-3.5562,-3.4184,-3.3253,-3.2636,-3.2602,-3.3062,-3.3676,0.0,0.0,0.0,0.0,0.0,0.0,0.0,0.0,-2.246,-2.2528,-2.4075,-2.5611,-2.6724,-2.8473,-3.0042,-3.1262,-3.0344,-2.9028,-2.7463,-2.5892,-2.4232,-2.2427,-2.1805,-2.2245,-2.3884,-2.6518,-2.9566,-3.3027,-3.4982,-3.6704,-3.8202,-3.8676,-3.905,-3.9315,-3.9504,-3.8785,-3.7261,-3.4908,-3.3283,-3.2106,-3.0369,-2.9102,0.0,0.0,0.0,0.0,0.0,0.0,0.0,0.0,0.0,0.0,0.0,0.0,0.0,0.0,0.0,0.0,0.0,0.0,0.0,0.0,0.0,0.0,0.0,0.0,0.0,0.0,0.0,0.0,0.0,0.0,0.0,0.0,0.0,0.0,0.0,0.0,0.0,-3.5944,-3.8142,0.0,-3.6728,-3.6341,-3.6711,-3.7863,-3.8126,-3.8875,-4.0324,-4.1068,-4.2023,-4.3295,-4.3887,-4.4621,-4.5585,-4.6616,-4.6752,-4.6007,-4.6769,-4.6498,-4.5314,-4.5314,-4.5043,-4.4615,-4.4615,-4.4445,-4.4079,-4.3068,-4.1035,-3.8529,-3.8011,-3.7085,-3.6067,-3.6525,-3.6881,-3.7125,0.0,0.0,0.0,0.0,0.0,0.0,0.0,0.0,-2.292,-2.315,-2.5202,-2.7161,-2.8494,-3.0725,-3.2503,-3.3505,-3.2354,-3.0613,-2.8291,-2.624,-2.4066,-2.1709,-2.174,-2.3288,-2.6467,-2.89,-3.1603,-3.4535,-3.6506,-3.7847,-3.8593,-3.9348,-3.968,-3.9713,-4.0415,-4.0464,-3.9862,-3.7502,-3.5666,-3.4157,-3.2226,-3.0966,-3.0035,0.0,0.0,0.0,0.0,0.0,0.0,0.0,0.0,0.0,0.0,0.0,0.0,0.0,0.0,0.0,0.0,0.0,0.0,0.0,0.0,0.0,0.0,0.0,0.0,0.0,0.0,0.0,0.0,0.0,0.0,0.0,0.0,0.0,0.0,-3.7053,-3.8933,-3.8557,-4.1087,-4.2089,-4.0135,-3.9768,-3.9999,-4.0892,-4.1205,-4.2052,-4.3724,-4.4045,-4.4773,-4.6024,-4.6075,-4.643,-4.7158,-4.7919,-4.7919,-4.7175,-4.7682,-4.7276,-4.6058,-4.5821,-4.5432,-4.4942,-4.4716,-4.4615,-4.4615,-4.4615,-4.325,-4.1178,-4.0924,-3.9952,-3.87,-3.9174,-3.9385,-3.9385,0.0,0.0,0.0,0.0,0.0,0.0,0.0,-2.3112,-2.3861,-2.4423,-2.7062,-2.936,-3.0608,-3.3222,-3.4899,-3.4899,-3.2856,-3.0381,-2.7576,-2.4663,-2.2387,-2.0955,-2.2955,-2.5789,-2.938,-3.0936,-3.3137,-3.6075,-3.75,-3.8593,-3.9348,-4.0078,-4.0426,-4.0475,-4.1127,-4.1413,-4.1359,-3.9967,-3.856,-3.6952,-3.3588,-3.311,-3.3917,0.0,0.0,0.0,0.0,0.0,0.0,0.0,0.0,0.0,0.0,0.0,0.0,0.0,0.0,0.0,0.0,0.0,0.0,0.0,0.0,0.0,0.0,0.0,0.0,0.0,0.0,0.0,0.0,0.0,0.0,0.0,0.0,0.0,-3.5158,-3.8785,-4.0959,-3.9525,-4.2004,-4.3189,-4.1627,-4.2213,-4.3274,-4.4632,-4.5382,-4.6092,-4.6819,-4.753,-4.7597,-4.6887,-4.824,-4.8646,-4.7922,-4.8646,-4.8646,-4.7922,-4.7922,-4.7547,-4.6769,-4.6058,-4.572,-4.5635,-4.4891,-4.4615,-4.4615,-4.4615,-4.413,-4.3325,-4.2642,-4.1467,-4.0146,-4.0163,-4.0146,-4.0096,0.0,0.0,0.0,0.0,0.0,0.0,0.0,-2.2672,-2.321,-2.4291,-2.6925,-2.9393,-3.1212,-3.3504,-3.4899,-3.4899,-3.2398,-2.9814,-2.7485,-2.5078,-2.3536,-2.3138,-2.5261,-2.7881,-3.0936,-3.2978,-3.5181,-3.7615,-3.8013,-3.8858,-4.0111,-4.031,-4.0647,-4.116,-4.1889,-4.2191,-4.2129,-4.1265,-4.093,-4.0652,-3.6562,-3.4685,-3.4121,0.0,0.0,0.0,0.0,0.0,0.0,0.0,0.0,0.0,0.0,0.0,0.0,0.0,0.0,0.0,0.0,0.0,0.0,0.0,0.0,0.0,0.0,0.0,0.0,0.0,0.0,0.0,0.0,0.0,0.0,0.0,-3.6729,-3.8105,-3.868,-4.1197,-4.3624,-4.5275,-4.7153,-4.8135,-4.7699,-4.739,-4.7374,-4.775,-4.7479,-4.7631,-4.8359,-4.8088,-4.8054,-4.8376,-4.8274,-4.8376,-4.8697,-4.89,-4.89,-4.8714,-4.8714,-4.8037,-4.6786,-4.6583,-4.5906,-4.4874,-4.4699,-4.4615,-4.4615,-4.4615,-4.413,-4.3426,-4.3809,-4.2692,-4.095,-4.1491,-4.1027,-4.0096,0.0,0.0,0.0,0.0,0.0,0.0,0.0,-2.2798,-2.3551,-2.5089,-2.7546,-2.9777,-3.1468,-3.3315,-3.4187,-3.3574,-3.0858,-2.8373,-2.6503,-2.4597,-2.41,-2.536,-2.7815,-3.0348,-3.2945,-3.5164,-3.7069,-3.8659,-3.8659,-3.9388,-4.0812,-4.0812,-4.1193,-4.1877,-4.2622,-4.2953,-4.2907,-4.192,-4.1908,-4.2272,-3.9095,-3.7475,-3.6755,-3.5141,-3.4028,-3.3278,-3.2809,-3.2962,-3.3137,-3.1515,0.0,0.0,0.0,0.0,0.0,0.0,0.0,0.0,0.0,0.0,0.0,0.0,0.0,0.0,0.0,0.0,0.0,0.0,0.0,0.0,0.0,0.0,0.0,0.0,-3.9338,-4.1519,-4.3196,-4.4569,-4.6252,-4.8545,-5.0118,-5.0896,-5.0591,-5.0456,-5.0135,-4.9509,-4.9069,-4.8883,-4.9001,-4.8595,-4.8578,-4.8984,-4.8595,-4.8578,-4.9001,-4.9001,-4.9001,-4.9001,-4.9001,-4.8392,-4.7259,-4.6938,-4.6143,-4.5026,-4.475,-4.4615,-4.4615,-4.4615,-4.413,0.0,0.0,0.0,0.0,0.0,-4.084,-4.0062,0.0,0.0,0.0,0.0,0.0,0.0,0.0,-2.3144,-2.4264,-2.6236,-2.8338,-3.0141,-3.1475,-3.2779,-3.2994,-3.1598,-2.8837,-2.6586,-2.5193,-2.3951,-2.4696,-2.7871,-3.0547,-3.3038,-3.5346,-3.74,-3.8808,-3.9547,-3.9547,-4.0216,-4.1513,-4.1513,-4.191,-4.2638,-4.33,-4.3598,-4.3519,-4.2197,-4.2002,-4.2472,-4.1177,-4.0602,-4.031,-3.7869,-3.7304,-3.7556,-3.5781,-3.4771,-3.4254,-3.395,0.0,0.0,0.0,0.0,0.0,0.0,0.0,0.0,0.0,0.0,0.0,0.0,0.0,0.0,0.0,0.0,0.0,0.0,0.0,0.0,0.0,0.0,0.0,0.0,-4.215,-4.5004,-4.7986,-4.8379,-4.89,-5.0185,-5.1505,-5.208,-5.1489,-5.1978,-5.1725,-5.0321,-5.0135,-4.9779,-4.9035,-4.9001,0.0,0.0,0.0,-4.9001,-4.9001,-4.9001,-4.9001,-4.9001,-4.9001,-4.8612,-4.7855,-4.7141,-4.6397,-4.5669,-4.4936,-4.4615,-4.4615,-4.4615,-4.4079,-4.3257,-4.3172,-4.2371,-4.1119,-4.0383,-4.0096,-3.9994,0.0,0.0,0.0,0.0,0.0,0.0,0.0,-2.2648,-2.3643,-2.6168,-2.7339,-2.8882,-3.1338,-3.1846,-3.1664,-3.0787,-2.8072,-2.6038,-2.5176,-2.5392,-2.7396,-3.1513,-3.3326,-3.5578,-3.8387,-3.9464,-4.0299,-4.0994,-4.0994,-4.1458,-4.2274,-4.2274,-4.2671,-4.3383,-4.3532,-4.3598,-4.3552,-4.2718,-4.2456,-4.26,-4.2278,-4.1464,-4.0378,-3.9852,-3.9357,-3.8927,-3.8539,-3.9013,-3.9523,-3.723,-3.7454,-3.8173,-3.5197,-3.358,0.0,0.0,0.0,0.0,0.0,0.0,0.0,0.0,0.0,0.0,0.0,0.0,0.0,0.0,0.0,0.0,0.0,0.0,0.0,-4.2304,-4.4765,-4.7407,-5.0947,-5.1454,-5.1555,-5.1843,-5.2131,-5.2503,-5.301,-5.2604,-5.1944,-5.1065,-5.0439,-4.9779,-4.9035,-4.9001,-4.9001,-4.9001,-4.9001,-4.9001,-4.9001,-4.9001,-4.9001,-4.9001,0.0,0.0,-4.7855,-4.7141,-4.6397,-4.5669,-4.4936,-4.4615,-4.4615,-4.4615,-4.3785,-4.2439,-4.1863,-4.1457,-4.1119,-4.0383,-4.0096,-3.9994,0.0,0.0,0.0,0.0,0.0,0.0,0.0,-2.2501,-2.3232,-2.5273,-2.6101,-2.7155,-2.8862,-2.8982,-2.8644,-2.7898,-2.6171,-2.511,-2.511,-2.7129,-2.998,-3.3624,-3.5562,-3.7582,-3.9812,-4.021,-4.0895,-4.1943,-4.1562,-4.196,-4.3035,-4.2655,-4.2886,-4.3598,-4.3598,-4.3598,-4.3585,-4.3273,-4.2941,-4.2649,-4.3005,-4.2488,-4.1561,-4.186,-4.1541,-4.0945,-4.1326,-4.1442,-4.1243,-4.0204,-4.0115,-4.0143,-3.8385,-3.6937,-3.5473,0.0,0.0,0.0,0.0,0.0,0.0,0.0,0.0,0.0,0.0,0.0,0.0,0.0,0.0,-3.5313,-3.669,0.0,-4.2093,-4.4939,-4.7429,-4.9779,-5.1995,-5.2655,-5.2909,-5.2909,-5.2909,-5.3061,-5.3467,-5.3145,-5.2435,-5.1269,-5.0862,-5.0168,-4.9069,-4.9001,-4.9001,-4.9001,-4.9001,-4.9001,-4.9001,-4.9001,-4.9001,-4.9001,-4.9001,-4.8612,-4.7872,-4.753,-4.6752,-4.5686,-4.5314,-4.4925,-4.4581,-4.4164,-4.3555,-4.2777,-4.2033,-4.1288,-4.0595,-4.0248,-3.9876,-3.9453,0.0,0.0,0.0,0.0,0.0,0.0,0.0,-2.2528,-2.3016,-2.4445,-2.5017,-2.5629,-2.6437,-2.6434,-2.593,-2.4896,-2.4464,-2.4614,-2.5475,-2.8768,-3.2078,-3.5197,-3.7317,-3.9106,-4.0547,-4.0713,-4.1425,-4.2704,-4.2109,-4.2423,-4.3582,-4.2986,-4.3102,-4.3797,-4.3797,-4.388,-4.4015,-4.3935,-4.3489,-4.2876,-4.3586,-4.3391,-4.2695,-4.352,-4.335,-4.2754,-4.3218,-4.2369,-4.1127,-4.2005,-4.1342,-4.0254,-4.0585,-3.9671,-3.7897,-3.469,-3.3364,0.0,0.0,0.0,0.0,0.0,0.0,0.0,0.0,-3.3217,-3.4287,-3.5765,-3.7259,-3.8789,-4.051,-4.3064,-4.5505,-4.7339,-4.9757,-5.1691,-5.2435,-5.3095,-5.345,-5.3298,-5.3399,-5.3501,-5.3501,-5.3365,-5.2706,-5.1286,-5.1082,-5.0422,-4.9069,-4.9001,-4.9001,-4.9001,-4.9001,-4.9001,-4.9001,-4.9001,-4.9001,-4.9001,-4.9001,-4.8697,-4.8091,-4.7834,-4.7056,-4.5906,-4.5618,-4.5145,-4.4564,-4.391,-4.3527,-4.3325,-4.2743,-4.1694,-4.0536,-4.0536,-4.0163,-3.9529,0.0,0.0,0.0,0.0,0.0,0.0,0.0,0.0,-2.31,-2.4503,-2.4638,-2.5121,-2.6438,-2.6589,-2.5732,-2.3618,-2.4477,-2.5696,-2.6969,-2.9831,-3.3088,-3.6704,-3.8344,-3.9835,-4.1276,-4.1939,-4.2655,-4.3466,-4.3383,-4.3433,-4.3598,-4.3515,-4.3876,-4.4572,-4.4572,-4.4937,-4.5516,-4.4859,-4.4191,-4.3653,-4.43,-4.3797,-4.2744,-4.4064,-4.4125,-4.34,-4.282,-4.1349,-3.981,-4.1105,-4.0636,-3.9711,-4.0906,-4.0381,-3.8612,-3.5292,-3.3248,-3.1466,-2.8846,-2.9614,-3.1077,-3.0824,-3.2355,-3.4147,0.0,-3.6297,-3.7635,-3.8639,-4.0031,-4.1529,-4.3104,-4.5218,-4.7407,-4.9576,-5.118,-5.2469,-5.3264,-5.345,-5.323,-5.252,-5.3078,-5.3501,-5.3501,-5.2858,-5.2097,-5.1268,-5.0591,-4.9864,-4.9035,-4.9001,-4.9001,-4.9001,-4.9001,-4.9001,-4.9001,-4.9001,-4.9001,-4.9001,-4.9001,-4.8968,-4.8832,-4.7513,-4.6819,-4.6599,-4.5309,-4.4682,-4.4598,-4.4513,-4.4045,-4.3375,-4.3291,-4.2777,-4.2033,-4.2033,-4.1999,-4.1813,0.0,0.0,0.0,0.0,0.0,0.0,0.0,0.0,0.0,-2.3394,-2.3397,-2.3731,-2.4798,-2.4842,-2.4361,-2.3296,-2.4091,-2.5597,-2.7798,-3.0626,-3.369,-3.697,-3.8907,-4.0382,-4.1364,-4.2109,-4.2853,-4.3598,-4.3598,-4.3598,-4.3598,-4.3598,-4.3747,-4.4075,-4.4075,-4.4241,-4.4572,-4.5102,-4.4684,-4.3729,-4.4894,-4.4469,-4.3139,-4.2864,-4.2353,-4.164,-4.0951,-3.9594,0.0,-3.9279,-3.9212,-3.9073,-4.0857,-3.9889,-3.7492,-3.4258,-3.2402,-3.1325,-3.0843,-3.1273,-3.2225,-3.3751,-3.5518,-3.71,-3.792,-3.9294,-4.078,-4.2104,-4.3556,-4.5049,-4.6559,-4.8246,-4.9876,-5.1231,-5.2688,-5.3602,-5.3518,-5.3501,-5.3044,-5.1809,-5.1961,-5.2164,-5.2164,-5.1877,-5.1352,-5.0625,-5.027,-4.9779,-4.9035,-4.9001,-4.9001,-4.9001,-4.9001,-4.9001,-4.9001,-4.9001,-4.9001,-4.9001,-4.9001,-4.9001,-4.8968,-4.7919,-4.6972,-4.6109,-4.5043,-4.4615,-4.4615,-4.4615,-4.4412,-4.4096,-4.4096,-4.3893,-4.3548,-4.2625,-4.2016,-4.1627,0.0,0.0,0.0,0.0,0.0,0.0,0.0,0.0,0.0,0.0,-2.2582,-2.2915,-2.3913,-2.3756,-2.3592,-2.3635,-2.3848,-2.5079,-2.7688,-3.0319,-3.311,-3.6059,-3.8718,-4.0343,-4.0868,-4.174,-4.2585,-4.3343,-4.3313,-4.3429,-4.3687,-4.3687,-4.3774,-4.3956,-4.3956,-4.4172,-4.4589,-4.5433,-4.5185,-4.4307,-4.5367,-4.4671,-4.287,-4.1794,-4.0178,-3.8405,-3.811,-3.6928,-3.5587,-3.6009,-3.5885,-3.5951,-3.8235,-3.7291,-3.4849,-3.219,-3.0511,-2.9814,-3.1199,-3.2126,-3.3377,-3.6206,-3.8334,-4.0011,-4.0981,-4.2365,-4.3861,-4.5229,-4.6515,-4.78,-4.9069,-5.0355,-5.1454,-5.2181,-5.3416,-5.411,-5.3585,-5.3315,-5.2604,-5.1082,-5.0727,-5.0492,-5.0289,-5.0676,-5.0676,-5.0135,-4.9898,-4.9644,-4.9323,-4.9306,-4.9306,-4.9306,-4.9306,-4.9204,-4.9001,-4.9001,-4.9001,-4.9001,-4.9001,-4.9001,-4.8968,-4.8037,-4.6904,-4.5669,-4.4936,-4.4615,-4.4615,-4.4615,-4.4615,-4.4615,-4.4615,-4.4615,-4.4462,-4.3362,-4.2591,-4.2134,0.0,0.0,0.0,0.0,0.0,0.0,0.0,0.0,0.0,0.0,0.0,0.0,0.0,-2.4224,-2.4041,-2.4699,-2.3939,-2.4298,-2.6333,-2.8367,-3.0824,-3.3756,-3.7392,-3.9402,-3.9568,-4.0785,-4.1863,-4.272,-4.2593,-4.2991,-4.3898,-4.3898,-4.4234,-4.4867,-4.4867,-4.5573,-4.6758,-4.6079,-4.5765,-4.5732,-4.5765,-4.4059,-4.1446,-4.1425,-3.8117,-3.3615,-3.4293,-3.3132,-3.1234,-3.0849,-2.982,-2.9169,-3.1902,-3.1855,-3.0533,-2.9124,-2.7186,-2.6043,-2.8616,-3.1331,-3.4136,-3.6961,-3.9944,-4.2591,-4.4124,-4.5585,-4.6887,-4.7618,-4.8409,-4.9171,-4.9915,-5.0693,-5.1454,-5.2181,-5.2993,-5.3534,-5.3501,-5.2841,-5.1792,-5.0304,-4.9509,-4.8798,0.0,-4.9289,-5.0118,-5.0084,-4.9441,-4.934,-5.0016,-5.005,-5.005,-5.005,-5.005,-4.9712,-4.9018,-4.9001,-4.9001,-4.9001,-4.9001,-4.9001,-4.8951,-4.7496,-4.6413,-4.5669,-4.4936,-4.4615,-4.4615,-4.4615,-4.4615,-4.4615,-4.4615,-4.4615,-4.4598,-4.4564,-4.453,-4.4513,0.0,0.0,0.0,0.0,0.0,0.0,0.0,0.0,0.0,0.0,0.0,0.0,0.0,0.0,0.0,0.0,-2.4025,-2.4135,-2.5581,-2.7267,-2.9262,-3.1639,-3.5243,-3.7253,-3.7378,-3.9132,-4.0257,-4.0642,-4.0604,-4.0738,-4.1059,-4.156,-4.1883,-4.2133,-4.2565,-4.3257,-4.4125,-4.4271,-4.4075,-4.3611,-4.3611,-4.2469,-4.0464,-3.8065,-3.5539,-3.2867,0.0,-2.8485,-2.7814,-2.7683,-2.7641,-2.7844,-2.9275,-2.909,-2.8275,-2.7803,-2.7774,-2.8607,-3.195,0.0,-3.8405,-4.0854,-4.3392,-4.5534,-4.6566,-4.7547,-4.8189,-4.7939,-4.734,-4.6806,-4.6493,-4.7522,-4.8636,-4.9272,-5.1708,-5.3501,-5.3501,-5.3264,-5.2181,-4.9661,-4.9576,0.0,0.0,0.0,0.0,-4.9323,-4.9137,-4.9323,-5.005,-5.0084,-5.0084,-5.0084,-5.0084,-4.9746,-4.9018,-4.9001,-4.9001,-4.9001,-4.9001,-4.8494,-4.7513,-4.7022,-4.6126,-4.4942,-4.4716,-4.4615,-4.4615,-4.4615,-4.4615,-4.4615,-4.4615,-4.4615,-4.4615,-4.4615,-4.4615,-4.4615,0.0,0.0,0.0,0.0,0.0,0.0,0.0,0.0,0.0,0.0,0.0,0.0,0.0,0.0,0.0,0.0,0.0,-2.3947,-2.4652,-2.5799,-2.7157,-2.877,-3.2071,-3.3935,-3.4041,-3.584,-3.6826,-3.6922,-3.7385,-3.7677,-3.7743,-3.8748,-3.9192,-3.9225,-4.0227,-4.0998,-4.1627,-4.2309,-4.1986,-4.1056,-4.079,-3.9431,-3.7241,-3.4372,-3.2109,0.0,-2.7026,-2.5516,-2.4945,-2.4945,-2.5243,-2.5728,-2.6395,-2.6596,-2.6641,-2.7131,-2.8535,-3.0788,0.0,-3.8129,-4.1066,-4.3916,-4.5923,-4.7394,-4.8139,-4.8477,-4.8325,-4.7327,-4.5952,-4.4637,-4.3654,-4.4495,-4.5563,-4.6309,-4.8829,-5.1082,-5.2213,-5.1876,-5.098,-4.956,-4.9576,-4.9035,0.0,0.0,0.0,-4.8968,-4.9001,-4.9543,-5.0811,-5.0642,-5.0744,-5.1285,-5.0777,-5.0135,-4.9407,-4.9137,-4.9001,-4.9001,-4.9001,-4.8376,-4.7175,-4.6921,-4.6126,-4.4976,-4.4716,-4.4615,-4.4615,-4.4615,-4.4615,-4.4615,-4.4615,-4.4615,-4.4615,-4.4615,-4.4615,-4.4615,0.0,0.0,0.0,0.0,0.0,0.0,0.0,0.0,0.0,0.0,0.0,0.0,0.0,0.0,0.0,0.0,0.0,0.0,-2.3662,-2.413,-2.4733,-2.5411,-2.824,-2.9808,-2.9848,-3.1143,-3.1875,-3.1954,-3.3232,-3.3902,-3.4073,-3.5496,-3.6152,-3.6219,-3.7739,-3.8698,-3.9265,-3.995,-3.9449,-3.8162,-3.7378,-3.5179,-3.219,-3.068,-2.8271,-2.5685,-2.5596,-2.4382,-2.2819,-2.2739,-2.2774,-2.2975,-2.3672,-2.4734,-2.5997,0.0,0.0,-3.2646,-3.7227,-3.9921,-4.2314,-4.5957,-4.7394,-4.8075,-4.8781,-4.8325,-4.7297,-4.5838,-4.4248,-4.2702,0.0,0.0,-4.2535,-4.3564,-4.4964,-4.6967,-4.9969,-4.9114,-4.8697,0.0,0.0,0.0,0.0,0.0,0.0,-4.912,0.0,-5.0016,-5.2249,-5.1674,-5.1944,-5.3399,-5.2029,-5.0879,-5.0033,-4.9357,-4.9001,-4.9001,-4.8968,-4.8578,-4.7804,-4.7073,-4.6346,-4.5602,-4.4919,-4.4615,-4.4615,-4.4615,-4.4615,-4.4615,-4.4615,-4.4615,-4.4615,-4.4615,-4.4615,-4.4615,0.0,0.0,0.0,0.0,0.0,0.0,0.0,0.0,0.0,0.0,0.0,0.0,0.0,0.0,0.0,0.0,0.0,0.0,-2.4354,-2.4618,-2.4776,-2.484,-2.708,-2.8111,-2.764,-2.8915,-2.9671,-2.98,-3.0133,-3.0319,-3.0374,-3.13,-3.1699,-3.1688,-3.2551,-3.3309,-3.3946,-3.3978,-3.419,-3.4381,-3.3168,-3.2245,-3.1374,-2.9534,-2.8128,-2.7019,-2.6505,-2.5687,-2.4631,-2.3205,-2.3696,-2.531,0.0,-2.8908,-3.0369,0.0,0.0,-3.8388,-4.1225,-4.4047,-4.6418,-4.7365,-4.7753,-4.7939,-4.8125,-4.6769,-4.4993,-4.347,-4.1231,-3.9054,-3.7511,-3.9217,-4.1316,-4.2626,-4.6309,0.0,-5.1503,-5.1928,0.0,-5.1014,0.0,-5.0947,-4.9661,-5.0219,0.0,0.0,-5.0135,-5.0811,-5.3078,-5.2452,-5.2198,-5.2587,-5.2232,-5.115,-4.9306,-4.9086,-4.9001,-4.9001,-4.846,-4.78,-4.7056,-4.6312,-4.5585,-4.4886,-4.4682,-4.4615,-4.4615,-4.4615,-4.4615,-4.4615,-4.4615,-4.4615,-4.4615,-4.4615,-4.4615,-4.4615,0.0,0.0,0.0,0.0,0.0,0.0,0.0,0.0,0.0,0.0,0.0,0.0,0.0,0.0,0.0,0.0,0.0,0.0,0.0,-2.4653,-2.455,-2.3764,-2.5205,-2.5652,-2.4888,-2.5929,-2.6657,-2.7029,-2.7351,-2.7655,-2.8011,-2.8755,-2.911,-2.9178,-3.049,-3.1311,-3.1746,-3.2286,-3.2437,0.0,0.0,-3.0203,-2.9342,-2.7994,-2.7206,-2.6751,-2.6378,-2.6353,-2.6486,-2.6535,0.0,-2.87,-3.0362,-3.2233,-3.4332,-3.6879,0.0,-4.1933,-4.4204,-4.6338,-4.7973,-4.8308,-4.8125,-4.772,-4.706,-4.5241,-4.3061,-4.0875,-3.8435,-3.6358,-3.5181,-3.657,-3.8625,0.0,0.0,0.0,-5.05,-5.0996,-5.1217,0.0,-5.2046,0.0,-5.0693,-5.1572,-5.2215,-5.2215,-5.1505,-5.1775,-5.3416,-5.3078,-5.2976,-5.3298,-5.2655,-5.1386,-4.9492,-4.9171,-4.9001,-4.9001,-4.8595,-4.7834,-4.6786,-4.6363,-4.5585,-4.4615,-4.4615,-4.4615,-4.4615,-4.4615,-4.4615,-4.4615,-4.4615,-4.4615,-4.4615,-4.4615,-4.4615,-4.4615,0.0,0.0,0.0,0.0,0.0,0.0,0.0,0.0,0.0,0.0,-2.4198,0.0,0.0,0.0,0.0,0.0,0.0,0.0,0.0,0.0,-2.4408,-2.2969,-2.3487,-2.3468,-2.2697,-2.3308,-2.3924,-2.4491,-2.5236,-2.593,-2.6573,-2.73,-2.7707,-2.793,-2.985,-3.0679,-3.0779,-3.2125,-3.195,-3.07,-2.9981,-2.8707,-2.7177,0.0,-2.6255,-2.595,-2.594,-2.6826,-2.8322,-3.0697,-3.1855,-3.2427,-3.3238,-3.5404,-3.8035,-4.0144,-4.2264,-4.4367,-4.6384,-4.7564,-4.8342,-4.8866,-4.8308,-4.7225,-4.5754,-4.3603,-4.1053,-3.8054,-3.5883,-3.4339,-3.3708,-3.4212,-3.5832,-3.9224,0.0,-4.3491,-4.8744,-4.8894,-4.9475,-5.2147,-5.2469,-5.2215,-5.1589,-5.2723,-5.3501,-5.3501,-5.2942,-5.2959,-5.3754,-5.3619,-5.3788,-5.4431,-5.2858,-5.1437,-5.0253,-4.9424,-4.9001,-4.9001,-4.89,-4.8189,-4.6938,-4.6735,-4.5957,-4.475,-4.4649,-4.4615,-4.4615,-4.4615,-4.4615,-4.4615,-4.4615,-4.4615,-4.4615,-4.4615,-4.4615,-4.4615,0.0,0.0,0.0,0.0,0.0,0.0,0.0,0.0,0.0,0.0,-2.4603,-2.4008,0.0,0.0,0.0,0.0,0.0,0.0,0.0,0.0,0.0,-2.4528,-2.4462,-2.4358,-2.4211,-2.4299,-2.4388,-2.4491,-2.5236,-2.566,-2.5812,-2.6556,-2.6928,-2.7013,-2.7402,-2.752,-2.7451,-2.7808,-2.8147,-2.8346,-2.7829,-2.7509,-2.7377,-2.7415,0.0,0.0,-2.6674,-2.8016,-2.9995,-3.1112,-3.2778,-3.4883,-3.7851,-3.9969,-4.1782,-4.4041,-4.586,-4.7196,-4.7584,-4.8697,-4.9593,-4.912,-4.753,-4.5715,-4.4292,-4.1265,0.0,-3.5049,-3.3741,-3.2899,-3.213,-3.3616,-3.631,-4.0495,-4.2813,-4.5682,-5.0217,-5.1234,-5.1978,0.0,-5.3298,-5.3247,-5.3112,-5.3348,0.0,0.0,-5.394,-5.4532,-5.5294,-5.4177,-5.3568,-5.3687,-5.1589,-5.0642,-5.1014,-4.9678,-4.9001,-4.9001,-4.8392,-4.797,-4.7682,-4.6447,-4.5754,-4.5483,-4.484,0.0,-4.4615,-4.4615,-4.4615,-4.4615,-4.4615,-4.4615,-4.4615,-4.4615,-4.4615,-4.4615,0.0,0.0,0.0,0.0,0.0,0.0,0.0,-2.5195,-2.4804,-2.5865,-2.5085,-2.4686,-2.5388,-2.4439,-2.4044,0.0,0.0,0.0,0.0,0.0,0.0,0.0,0.0,0.0,-2.4599,-2.4911,-2.5488,-2.6333,0.0,-2.7148,-2.7943,-2.7909,-2.7945,-2.8066,-2.8404,-2.8539,-2.8503,-2.8946,-2.9099,-2.9001,-2.9211,-2.8909,-2.8363,0.0,0.0,0.0,0.0,-2.8334,-2.9818,-3.0418,-3.2652,-3.5783,-3.9083,-4.166,-4.3802,-4.5263,-4.6722,-4.7973,-4.8392,-4.8984,-4.9357,-4.8612,-4.7056,-4.5111,-4.2848,0.0,0.0,-3.3748,-3.2694,-3.2156,-3.1777,-3.3216,-3.5501,-3.8732,-4.0686,-4.3318,-4.7789,-4.9337,-5.0727,-5.2655,-5.3247,-5.3501,-5.3501,-5.3856,-5.4059,-5.4059,-5.4397,-5.4583,-5.4566,-5.389,-5.3501,-5.3501,-5.1674,-5.0845,-5.1185,-4.9746,-4.9001,-4.9001,-4.8646,-4.8291,-4.7872,-4.7162,-4.665,-4.6227,-4.5483,-4.5162,-4.5162,-4.5162,-4.4942,-4.4682,-4.5461,-4.55,-4.5162,-4.5162,-4.5162,-4.5111,0.0,0.0,0.0,0.0,0.0,0.0,-2.6851,-2.587,-2.522,-2.5916,-2.5412,-2.5279,-2.6051,-2.4692,-2.3919,0.0,0.0,0.0,0.0,0.0,0.0,0.0,0.0,0.0,0.0,0.0,0.0,0.0,-2.7979,0.0,0.0,0.0,0.0,0.0,-3.0229,-3.0427,-3.0459,-3.0961,-3.0825,0.0,0.0,-3.0493,0.0,0.0,0.0,0.0,0.0,0.0,-2.9019,-2.963,-3.1918,-3.5009,-3.7707,-4.1023,-4.4101,-4.4987,-4.6426,-4.7898,-4.8765,-4.912,-4.9018,-4.8108,-4.6549,-4.4468,-4.1653,-3.8853,0.0,-3.2986,-3.2202,-3.1938,-3.161,-3.2603,-3.4223,-3.6598,-3.7945,-4.0356,-4.5117,-4.7043,-4.9032,-5.1944,-5.301,0.0,-5.3501,-5.4025,0.0,-5.4346,-5.4346,-5.411,-5.3534,-5.3501,-5.3416,-5.3247,-5.1928,-5.1133,-5.098,-4.9661,-4.9001,-4.9001,-4.9001,-4.8714,-4.8125,-4.7956,-4.7597,-4.6989,-4.6261,-4.594,-4.594,-4.594,-4.5585,-4.5173,-4.616,-4.621,-4.5686,-4.5517,-4.5466,-4.5382,0.0,0.0,0.0,0.0,0.0,0.0,-2.6195,-2.548,-2.5178,-2.5901,-2.5367,-2.5407,-2.6751,-2.4983,-2.3696,0.0,0.0,0.0,0.0,0.0,0.0,0.0,0.0,0.0,0.0,0.0,0.0,-2.7093,0.0,0.0,0.0,0.0,0.0,0.0,0.0,0.0,-3.1089,-3.0858,0.0,0.0,0.0,0.0,0.0,0.0,0.0,0.0,0.0,0.0,-2.8277,0.0,0.0,-3.1662,-3.3114,-3.7303,-4.197,-4.3369,0.0,0.0,-4.866,-4.9492,-4.9661,-4.8257,-4.5725,-4.3031,-4.0892,0.0,-3.5258,-3.2297,-3.2275,-3.2386,-3.1041,-3.1455,-3.2932,-3.5741,-3.6845,-3.9351,-4.5009,-4.7131,-4.9124,-5.1944,0.0,0.0,-5.3501,-5.3568,-5.3602,-5.3602,-5.3602,-5.3568,-5.3501,-5.3501,-5.3179,-5.2435,-5.164,-5.0896,-5.0202,-4.9407,-4.9001,-4.9001,-4.9001,-4.8968,-4.8883,-4.8193,-4.7855,-4.7753,-4.7022,-4.6684,0.0,-4.6684,-4.665,-4.6532,-4.6007,-4.5771,-4.5618,-4.4942,-4.4699,-4.4699,0.0,0.0,0.0,0.0,0.0,0.0,-2.5956,-2.5441,-2.5205,-2.5916,-2.6124,-2.6419,-2.6939,-2.5826,-2.5348,-2.6192,0.0,0.0,0.0,0.0,0.0,0.0,0.0,0.0,0.0,0.0,-2.7606,-2.7724,-2.8681,0.0,0.0,0.0,0.0,0.0,0.0,0.0,-3.119,-3.119,0.0,0.0,0.0,0.0,0.0,0.0,0.0,0.0,0.0,0.0,-2.7487,-2.6543,0.0,0.0,-2.849,-3.1466,0.0,0.0,-4.2567,-4.4879,-4.761,-4.8883,-4.9086,-4.7614,-4.5021,-4.2291,-4.0085,0.0,-3.4062,-3.1622,-3.1724,-3.181,-3.0416,-3.1046,-3.2178,-3.3343,-3.4109,0.0,-3.9447,-4.1614,-4.4378,-4.8565,-5.0144,-5.1756,0.0,0.0,-5.3501,-5.3501,-5.3501,-5.3298,-5.2807,-5.3247,-5.3129,-5.2334,-5.1589,-5.0862,-5.0101,-4.9373,-4.9001,-4.9001,-4.9001,-4.9001,-4.8984,-4.8714,-4.8578,-4.8528,-4.7784,-4.7462,0.0,-4.7462,-4.7192,-4.6853,-4.7445,-4.7141,-4.6329,-4.6024,-4.5635,-4.5196,0.0,0.0,0.0,0.0,0.0,-2.4319,-2.5853,-2.5252,-2.4947,-2.5882,-2.645,-2.6846,-2.7006,-2.6577,-2.6733,-2.793,-2.6604,0.0,0.0,0.0,0.0,0.0,0.0,0.0,0.0,0.0,-2.7726,-2.7843,-2.8528,-2.9141,0.0,0.0,0.0,0.0,0.0,0.0,0.0,0.0,0.0,0.0,0.0,0.0,0.0,0.0,0.0,0.0,0.0,0.0,0.0,0.0,0.0,0.0,0.0,0.0,0.0,0.0,-3.9219,-4.2172,-4.5439,-4.7293,-4.8054,-4.6786,-4.4145,-4.1342,0.0,0.0,-3.3199,-3.1415,-3.154,-3.1568,-3.0311,-3.1033,-3.18,-3.18,0.0,-3.3573,-3.5707,-3.794,-4.0906,-4.5049,0.0,-4.9508,-5.2687,-5.3314,-5.3602,-5.3805,-5.3619,-5.3264,-5.2689,-5.2976,-5.2689,-5.1674,-5.115,-5.0524,-4.9779,-4.9255,-4.9001,-4.9001,-4.9001,-4.9001,-4.9001,-4.9001,-4.9001,-4.8968,-4.846,-4.824,0.0,-4.824,-4.7919,-4.7513,-4.8105,-4.7716,-4.6735,-4.6295,-4.5821,-4.5297,0.0,0.0,0.0,0.0,0.0,0.0,-2.5853,-2.4743,-2.4256,-2.5798,-2.6019,-2.6279,-2.7017,-2.7085,-2.7362,-2.8049,-2.6636,0.0,0.0,0.0,0.0,0.0,0.0,0.0,0.0,0.0,-2.6942,-2.7008,-2.7675,-2.8049,-2.8135,-2.8799,-2.9191,-2.9296,0.0,0.0,0.0,0.0,0.0,0.0,0.0,0.0,0.0,0.0,0.0,0.0,0.0,0.0,0.0,0.0,0.0,0.0,0.0,0.0,0.0,0.0,-3.5419,-3.9553,-4.1927,-4.4654,-4.6633,-4.5906,-4.2932,-4.0034,0.0,-3.6028,-3.2908,-3.1904,-3.2017,-3.1979,-3.0892,-3.13,-3.18,-3.18,-3.2421,0.0,-3.5516,-3.794,-4.0212,0.0,-4.4521,-4.6885,-4.905,-5.1824,-5.3805,-5.4515,-5.3907,0.0,-5.3501,-5.2739,-5.164,-5.0152,-5.0101,-4.9746,-4.9018,-4.9001,-4.9001,-4.9001,-4.9001,-4.9001,-4.9001,-4.9001,-4.9001,-4.9001,-4.9001,-4.8984,0.0,-4.8984,-4.8984,-4.8832,-4.7378,-4.6802,-4.6616,-4.5173,-4.4632,-4.4615,0.0,0.0,0.0,0.0,0.0,0.0,-2.5053,-2.4417,-2.4124,-2.5126,-2.5693,-2.5979,-2.5946,-2.6585,-2.6789,-2.6169,-2.6369,0.0,0.0,0.0,0.0,0.0,0.0,0.0,0.0,-2.6909,-2.6942,-2.6991,-2.7725,-2.8339,-2.8852,-2.9019,-2.9393,-2.9906,-2.9361,-2.9086,0.0,0.0,0.0,0.0,0.0,0.0,0.0,0.0,0.0,0.0,0.0,0.0,0.0,0.0,0.0,0.0,0.0,0.0,0.0,-2.8891,-3.1853,-3.5339,-3.8024,-4.0102,-4.1384,-4.0739,-3.8966,-3.7063,-3.577,-3.341,-3.1141,-2.9971,-3.051,-3.1107,-3.0757,-3.1305,-3.209,-3.2968,-3.2281,0.0,0.0,0.0,0.0,-4.2855,-4.8833,-5.2703,0.0,-5.416,-5.4685,-5.3907,-5.3129,-5.2469,-5.1961,-5.1217,-5.0811,-5.0862,-5.0355,-4.9746,-4.9018,-4.9001,-4.9001,-4.9001,-4.9001,-4.9001,-4.9001,-4.9001,-4.9001,-4.9001,-4.9001,-4.9001,-4.9001,-4.9001,-4.8714,-4.8206,-4.775,-4.6938,-4.5991,-4.5517,-4.5026,-4.4615,0.0,0.0,0.0,0.0,0.0,0.0,0.0,-2.4176,-2.3855,-2.4315,-2.4801,-2.5056,-2.4911,-2.5812,-2.6148,-2.5445,-2.6351,0.0,0.0,0.0,0.0,0.0,0.0,0.0,-2.6893,-2.6842,-2.6995,-2.73,-2.7811,-2.8424,-2.9121,-2.912,-2.9187,-2.934,-2.8775,-2.8472,0.0,0.0,0.0,0.0,0.0,0.0,-2.6945,0.0,0.0,0.0,0.0,0.0,0.0,0.0,0.0,0.0,0.0,0.0,0.0,0.0,-2.9254,-3.1472,-3.4358,-3.6356,-3.7527,-3.7222,-3.6074,0.0,-3.3693,-3.1781,-2.9943,-2.893,-2.9513,-3.0162,-2.9927,-3.0809,-3.1756,-3.2462,-3.1735,-3.1865,0.0,0.0,0.0,-4.3973,-4.9746,0.0,0.0,-5.4465,-5.4617,-5.3957,-5.2909,-5.2097,-5.1657,-5.0642,-5.0304,-5.0777,-5.0067,-4.9458,-4.9001,-4.9001,-4.9001,-4.9001,-4.9001,-4.9001,-4.9001,-4.9001,-4.9001,-4.9001,-4.9001,-4.9001,0.0,-4.8714,-4.8294,-4.7838,-4.728,-4.6515,-4.5669,-4.5382,-4.4976,-4.4615,0.0,0.0,0.0,0.0,0.0,0.0,0.0,-2.3945,-2.3454,-2.3566,-2.3668,-2.3802,-2.3983,-2.4927,-2.5559,-2.5539,-2.6463,0.0,0.0,0.0,0.0,0.0,0.0,0.0,-2.6893,-2.6758,-2.7046,-2.7739,-2.798,-2.8387,-2.9011,-2.9118,-2.8832,-2.8134,-2.7662,-2.7315,-2.7124,-2.7826,-2.7735,-2.7174,-2.7602,-2.7488,0.0,0.0,0.0,0.0,0.0,0.0,0.0,0.0,0.0,0.0,0.0,0.0,0.0,0.0,0.0,0.0,0.0,-3.3123,-3.4653,-3.4806,-3.3949,-3.2978,-3.2594,-3.0881,0.0,-2.8631,-2.8979,-2.9241,-2.8811,-3.0049,-3.1069,-3.0894,-3.1036,-3.2046,0.0,-3.6282,0.0,0.0,-4.8277,-5.036,-5.2379,-5.3178,-5.3822,-5.438,-5.3061,-5.2198,-5.2147,-5.0777,-5.0016,-5.0016,-4.9357,-4.9001,-4.9001,-4.9001,-4.9001,-4.9001,-4.9001,-4.9001,-4.9001,-4.9001,-4.9001,0.0,-4.8951,-4.8951,-4.8951,-4.8156,-4.7804,-4.7669,-4.6261,-4.5669,-4.5551,-4.4869,-4.4615,-4.4615,0.0,0.0,0.0,0.0,0.0,0.0,0.0,0.0,0.0,0.0,-2.4678,-2.453,-2.3307,-2.4974,-2.5597,0.0,0.0,0.0,0.0,0.0,0.0,0.0,0.0,0.0,-2.6742,-2.6725,-2.6826,-2.7114,-2.8269,-2.8915,-2.91,-2.977,-2.9959,-2.9629,-2.8561,-2.7606,-2.6758,-2.645,-2.6383,-2.6525,-2.6626,-2.6941,0.0,0.0,0.0,0.0,-2.6855,-2.6497,0.0,0.0,0.0,0.0,0.0,0.0,0.0,0.0,-2.6995,-2.6405,-2.72,0.0,-2.9887,-2.9578,-3.0185,-3.0506,0.0,0.0,0.0,0.0,0.0,0.0,0.0,-3.0751,-3.1631,-3.2354,-3.2206,-3.2995,-3.5762,-4.1002,0.0,-4.9537,-5.1959,-5.3297,-5.3263,-5.394,-5.3923,-5.2926,-5.1995,-5.1217,-5.0642,-4.9746,-4.9255,-4.9255,-4.9086,-4.9001,-4.9001,-4.9001,-4.9001,-4.9001,-4.9001,-4.9001,-4.9001,-4.9001,-4.9001,-4.8968,-4.8409,-4.8494,-4.89,-4.7597,-4.7056,-4.6972,-4.6058,-4.5348,-4.4852,-4.4666,-4.4615,-4.4615,0.0,0.0,0.0,0.0,0.0,0.0,0.0,0.0,0.0,0.0,-2.3595,-2.3568,-2.2524,-2.4334,-2.5275,0.0,0.0,0.0,0.0,0.0,0.0,0.0,0.0,-2.6741,-2.6842,-2.6624,-2.6826,-2.7453,-2.8472,-2.9219,-2.9718,-3.0562,-3.0734,-3.0269,-2.8749,-2.7333,-2.6117,-2.6311,-2.6515,-2.6697,-2.7084,0.0,0.0,0.0,0.0,0.0,-2.7245,-2.7061,0.0,-2.5929,-2.6048,-2.6587,0.0,0.0,0.0,0.0,-2.6942,-2.6262,-2.6642,-2.6922,-2.7029,-2.6683,-2.7872,-2.8905,-2.8018,0.0,0.0,0.0,0.0,0.0,0.0,-3.0347,-3.082,-3.1927,-3.2544,-3.4192,0.0,-4.2972,-4.7331,-5.0418,-5.1873,-5.284,-5.3433,-5.323,-5.2689,-5.186,-5.1116,-5.0524,-5.0101,-4.9407,-4.9001,-4.9001,-4.9001,-4.9001,-4.9001,-4.9001,-4.9001,-4.9001,-4.9001,-4.9001,-4.8984,-4.8663,-4.8511,-4.846,-4.7733,-4.7614,-4.7902,-4.6769,-4.6295,-4.621,-4.5483,-4.4942,-4.4615,-4.4615,-4.4615,-4.4615,0.0,0.0,0.0,0.0,0.0,0.0,0.0,0.0,0.0,0.0,0.0,0.0,0.0,0.0,0.0,0.0,0.0,0.0,0.0,0.0,0.0,0.0,-2.6505,-2.6742,-2.6892,-2.6521,-2.6839,-2.7929,-2.8482,-2.9228,-3.0161,-3.1073,-3.1112,-3.0341,-2.8687,-2.7162,-2.5885,-2.6785,-2.719,-2.7343,-2.7937,0.0,0.0,0.0,0.0,0.0,0.0,0.0,0.0,-2.6288,-2.6273,-2.6761,-2.6761,0.0,0.0,0.0,0.0,0.0,-2.7165,-2.6626,-2.5882,-2.5718,-2.6923,-2.8131,-2.8036,0.0,0.0,0.0,0.0,0.0,0.0,-2.9568,-2.9714,-3.0757,-3.2821,-3.6084,-4.1225,-4.4241,-4.7016,-4.9938,-5.0476,-5.1242,-5.2824,-5.1911,-5.1134,-5.1048,-5.0439,-5.0033,-4.9932,-4.934,-4.9001,-4.9001,-4.9001,-4.9001,-4.9001,-4.9001,-4.9001,-4.9001,-4.9001,-4.8951,-4.8815,-4.8176,-4.7821,-4.7669,-4.6955,0.0,-4.6718,-4.5872,-4.5602,-4.5635,-4.4902,-4.4615,-4.4615,-4.4615,-4.4615,-4.4615,0.0,0.0,0.0,0.0,0.0,0.0,0.0,0.0,0.0,0.0,0.0,0.0,0.0,0.0,0.0,0.0,0.0,0.0,0.0,0.0,0.0,-2.5652,-2.6157,-2.647,-2.6487,-2.6418,-2.6646,-2.716,-2.8079,-2.8682,-2.8999,-3.0369,-3.068,-3.0023,-2.9059,-2.8304,-2.7742,-2.7173,-2.7402,-2.8067,-2.7405,0.0,0.0,0.0,0.0,0.0,0.0,0.0,0.0,-2.736,-2.736,-2.745,-2.745,0.0,0.0,0.0,0.0,0.0,-2.6033,-2.666,-2.7459,-2.7427,-2.8152,-2.8803,-2.8619,0.0,0.0,0.0,0.0,0.0,0.0,-2.9571,-3.0197,-3.0086,-3.4447,-3.9896,-4.5803,-4.8203,-4.9545,-5.0065,-5.1232,-5.1639,-5.0693,-5.098,-5.0947,-5.0321,-5.0152,-4.9813,-4.9204,-4.9069,-4.9001,-4.9001,-4.9001,-4.9001,-4.9001,-4.9001,-4.9001,-4.9001,-4.9001,-4.868,-4.8058,-4.7939,-4.7564,-4.6921,0.0,-4.6227,-4.6684,-4.5314,-4.5128,-4.5635,-4.4902,-4.4615,-4.4615,-4.4615,-4.4615,-4.4615,0.0,0.0,0.0,0.0,0.0,0.0,0.0,0.0,0.0,0.0,0.0,0.0,0.0,0.0,0.0,0.0,0.0,0.0,0.0,0.0,-2.5835,-2.5672,-2.5817,-2.6122,-2.6556,-2.6284,-2.6356,-2.6833,-2.7597,-2.7943,-2.7916,-2.9404,-2.9782,-2.9239,-2.9172,-2.8684,-2.7938,-2.8109,-2.8151,-2.8082,0.0,0.0,0.0,0.0,0.0,0.0,0.0,0.0,0.0,0.0,-2.73,-2.754,-2.718,0.0,0.0,0.0,0.0,0.0,-2.6686,-2.6905,-2.743,-2.8589,-2.9217,-2.964,-3.0057,0.0,0.0,0.0,0.0,0.0,0.0,-3.1417,-3.29,-3.6266,-3.8801,-4.2104,-4.719,-4.7997,-4.8439,-4.9483,-5.021,-5.05,-5.0149,-5.005,-4.9881,-4.9526,-4.9509,-4.9357,-4.9018,-4.9001,-4.9001,-4.9001,-4.9001,-4.9001,-4.9001,-4.9001,-4.9001,-4.9001,-4.9001,-4.8612,-4.7872,-4.7496,-4.6904,-4.616,0.0,-4.5297,-4.5579,-4.4886,-4.4818,-4.506,-4.4733,-4.4615,-4.4615,-4.4615,-4.4615,-4.4615,0.0,0.0,0.0,0.0,0.0,0.0,0.0,0.0,0.0,0.0,0.0,0.0,0.0,0.0,0.0,0.0,0.0,0.0,0.0,-2.5577,-2.5484,-2.5615,-2.5313,-2.5602,-2.6547,-2.6163,-2.6237,-2.676,-2.7169,-2.7393,-2.7449,-2.8398,-2.8795,-2.8698,-2.9102,-2.8897,-2.8269,-2.9072,-2.9057,-2.852,0.0,0.0,0.0,0.0,0.0,0.0,0.0,0.0,0.0,0.0,0.0,0.0,0.0,0.0,0.0,-2.76,-2.724,-2.6926,-2.727,-2.713,-2.7305,-2.9117,-2.9724,-3.0281,-3.1683,-3.2256,0.0,0.0,0.0,0.0,0.0,-3.3343,-3.5529,-4.1241,-4.2331,-4.3891,-4.8006,-4.7757,-4.7676,-4.8993,-4.93,-4.9452,-4.9573,-4.9229,-4.9001,-4.9001,-4.9001,-4.9001,-4.9001,-4.9001,-4.9001,-4.9001,-4.9001,-4.9001,-4.9001,-4.8832,-4.8832,-4.9001,-4.8832,-4.8376,-4.7631,-4.6887,-4.6143,-4.5415,-4.4869,-4.4615,-4.4615,-4.4615,-4.4615,-4.457,-4.4412,-4.4338,-4.4338,-4.4338,-4.444,-4.4615,0.0,0.0,0.0,0.0,0.0,0.0,0.0,0.0,0.0,0.0,0.0,0.0,0.0,0.0,0.0,0.0,0.0,0.0,0.0,-2.5169,-2.5173,-2.5048,-2.4446,-2.4761,-2.611,-2.6174,-2.6406,-2.6888,-2.7005,-2.7407,-2.8104,-2.7482,-2.7825,-2.8979,-2.9006,-2.9296,-2.9735,-2.9754,-2.9982,-3.022,-2.9082,0.0,0.0,0.0,0.0,0.0,0.0,0.0,0.0,0.0,0.0,0.0,0.0,0.0,-2.76,-2.76,-2.757,-2.7405,-2.6836,-2.718,-2.7896,-2.869,-2.9248,-3.0361,-3.3166,-3.4228,-3.4621,-3.4744,0.0,0.0,0.0,-3.4398,-3.6731,-3.996,-4.2679,-4.5713,-4.9443,-4.9886,-4.9611,-4.9078,-4.9633,-4.9508,-4.8197,-4.861,-4.9001,-4.9001,-4.9001,-4.9001,-4.9001,-4.9001,-4.9001,-4.9001,-4.9001,-4.9001,-4.9001,-4.8342,-4.8342,-4.9001,-4.8325,-4.7597,-4.6853,-4.6126,-4.5382,-4.4682,-4.4632,-4.4615,-4.4615,-4.4615,-4.4615,-4.4542,-4.3839,-4.3571,-4.3571,-4.3571,-4.4001,-4.4615,0.0,0.0,0.0,0.0,0.0,0.0,0.0,0.0,0.0,0.0,0.0,0.0,0.0,0.0,0.0,0.0,0.0,0.0,0.0,-2.4811,-2.4795,-2.4751,-2.4508,-2.4792,-2.5707,-2.5638,-2.5869,-2.6455,-2.6251,-2.6389,-2.6898,-2.727,-2.7819,-2.8549,-2.9429,-2.9637,-2.942,-3.0448,-3.049,-2.9924,-2.9819,-2.9564,0.0,0.0,0.0,0.0,0.0,0.0,0.0,0.0,-2.76,-2.76,-2.76,-2.76,-2.76,-2.76,-2.73,-2.6926,-2.6662,-2.718,-2.7851,-2.8092,-2.8955,-3.05,-3.3511,-3.4586,-3.515,-3.5707,-3.6953,0.0,-3.6344,-3.8535,-4.0932,-4.2086,-4.474,-4.747,-4.9757,-4.9709,-4.9293,-4.9028,-4.9227,-4.9009,-4.7984,-4.8576,-4.8815,-4.8359,-4.8342,-4.8122,-4.7665,-4.7631,-4.7631,-4.7631,-4.7631,-4.7631,-4.7631,-4.7361,-4.7361,-4.7631,-4.7344,-4.6831,-4.6179,-4.585,-4.4842,-4.335,-4.4224,-4.4338,-4.3943,-4.4412,-4.4338,-4.3839,-4.3136,-4.2892,-4.2892,-4.2892,-4.3303,-4.3914,0.0,0.0,0.0,0.0,0.0,0.0,0.0,0.0,0.0,0.0,0.0,0.0,0.0,0.0,0.0,0.0,0.0,0.0,-2.4609,-2.4549,-2.4569,-2.471,-2.4508,-2.4751,-2.5511,-2.5333,-2.5468,-2.5982,-2.5665,-2.5808,-2.6367,-2.7103,-2.7656,-2.806,-2.9246,-2.9442,-2.8958,-3.0308,-3.0402,-2.9651,-3.0043,-2.9968,0.0,0.0,0.0,0.0,0.0,0.0,0.0,0.0,-2.76,-2.76,-2.76,-2.76,-2.76,-2.76,-2.7136,-2.6542,-2.6333,-2.654,-2.6898,-2.7368,0.0,0.0,-3.3782,-3.5196,-3.615,-3.7642,-3.8608,-3.9031,-3.8565,-4.0823,-4.2726,-4.252,-4.5346,-4.7818,-4.8597,-4.8472,-4.8228,-4.799,-4.8363,-4.8283,-4.7309,-4.7892,-4.811,-4.7584,-4.7366,-4.71,-4.6819,-4.6786,-4.6786,-4.6786,-4.6786,-4.6786,-4.6786,-4.6566,-4.6461,-4.6484,-4.5997,-4.5658,-4.5445,-4.4927,-4.3889,-4.2552,-4.3515,-4.3663,-4.3227,-4.3722,-4.3499,-4.2831,-4.2363,-4.2173,-4.2173,-4.2173,-4.2738,-4.3512,0.0,0.0,0.0,0.0,0.0,0.0,0.0,0.0,0.0,0.0,0.0,0.0,0.0,0.0,0.0,0.0,0.0,0.0,-2.4609,-2.4405,-2.4508,-2.4966,-2.4359,-2.4499,-2.5565,-2.5388,-2.5361,-2.5499,-2.5361,-2.5839,-2.6886,-2.6909,-2.7152,-2.763,-2.8308,-2.8607,-2.8637,-2.931,-2.9606,-2.9592,-2.9606,-2.9606,-2.9621,0.0,0.0,0.0,0.0,0.0,0.0,0.0,-2.76,-2.76,-2.76,-2.76,-2.76,-2.7585,-2.7121,-2.6437,-2.5779,-2.5128,-2.4994,-2.6449,0.0,0.0,-3.4163,-3.6239,-3.7948,-4.0977,-4.0385,-3.9333,-3.9333,-4.0487,-4.1192,-4.0451,-4.3965,-4.6534,-4.5805,-4.6324,-4.6499,-4.5805,-4.6984,-4.7292,-4.5825,-4.6421,-4.6855,-4.679,-4.6166,-4.6088,-4.6739,-4.6769,-4.6769,-4.6769,-4.6769,-4.6769,-4.6769,-4.6058,-4.5702,-4.5777,-4.4208,-4.3926,-4.4624,-4.3173,-4.2489,-4.2489,-4.2489,-4.2489,-4.2489,-4.2489,-4.2109,-4.1492,-4.1492,-4.1492,-4.1492,-4.1492,-4.2332,-4.3482,0.0,0.0,0.0,0.0,0.0,0.0,0.0,0.0,0.0,0.0,0.0,0.0,0.0,0.0,0.0,0.0,0.0,0.0,-2.4385,-2.4323,-2.4441,-2.4726,-2.4385,-2.4431,-2.4885,-2.4568,-2.4643,-2.516,-2.5116,-2.5402,-2.5993,-2.665,-2.7448,-2.8349,-2.9151,-2.9155,-2.8667,-2.9759,-2.9714,-2.8936,-2.9427,-2.9849,-3.0178,0.0,0.0,0.0,0.0,0.0,0.0,0.0,0.0,0.0,-2.76,-2.76,-2.751,-2.7046,-2.6422,-2.5749,-2.5068,-2.6305,-2.7718,-2.7548,0.0,0.0,0.0,-3.6977,0.0,0.0,-4.2663,-4.2007,-4.0898,-4.232,-4.3061,-4.1286,-4.3807,-4.5949,-4.5733,-4.5877,-4.5758,-4.5069,-4.5378,-4.547,-4.5029,-4.5261,-4.5608,-4.5988,-4.5414,-4.509,-4.5235,-4.5258,-4.5258,-4.5258,-4.5258,-4.5258,-4.5258,-4.5055,-4.469,-4.4158,-4.3258,-4.2972,-4.3298,-4.2734,-4.1997,-4.1158,-4.2078,-4.2237,-4.1804,-4.1804,-4.1673,-4.1459,-4.099,-4.0817,-4.0817,-4.0817,-4.1343,-4.2078,0.0,0.0,0.0,0.0,0.0,0.0,0.0,0.0,0.0,0.0,-2.4554,-2.4569,0.0,0.0,0.0,0.0,0.0,0.0,-2.4281,-2.4302,-2.4385,-2.4589,-2.4405,-2.4564,-2.5108,-2.4643,-2.4788,-2.5636,-2.5364,-2.5657,-2.648,-2.7263,-2.8042,-2.8778,-2.9478,-2.9377,-2.873,-2.9726,-2.9385,-2.8293,-2.9475,-3.0028,-3.0163,0.0,0.0,0.0,0.0,0.0,0.0,0.0,0.0,0.0,-2.76,-2.76,-2.7525,-2.7121,-2.6512,-2.6033,-2.6201,-2.7197,-2.8414,-2.9336,-3.1753,-3.4635,-3.7517,0.0,0.0,0.0,-4.3593,-4.3017,-4.2324,-4.3104,-4.3479,-4.2385,-4.3707,-4.4883,-4.4883,-4.4648,-4.4335,-4.3912,-4.4118,-4.4183,-4.3872,-4.3908,-4.4203,-4.4784,-4.3929,-4.3727,-4.4559,-4.4282,-4.4265,-4.4598,-4.4615,-4.4615,-4.4615,-4.431,-4.381,-4.3106,-4.2426,-4.201,-4.1802,-4.1748,-4.1276,-4.0558,-4.136,-4.1492,-4.1091,-4.1091,-4.1091,-4.1057,-4.0646,-4.0489,-4.0489,-4.0489,-4.0922,-4.1492,0.0,0.0,0.0,0.0,0.0,0.0,0.0,0.0,0.0,0.0,-2.422,-2.4508,0.0,0.0,0.0,0.0,0.0,0.0,0.0,-2.4281,-2.4343,-2.4549,-2.4364,-2.4716,-2.5652,-2.5213,-2.547,-2.6497,-2.5899,-2.633,-2.769,-2.824,-2.8692,-2.9076,-2.9444,-2.9315,-2.8906,-2.933,-2.8783,-2.775,-2.952,-2.9968,-2.9741,-3.0883,0.0,0.0,0.0,0.0,0.0,0.0,0.0,0.0,-2.76,-2.7625,-2.761,-2.7525,-2.719,-2.7095,-2.8363,-2.8006,-2.8131,-3.1546,-3.3117,-3.4879,-3.8765,-4.1663,-4.3685,-4.4302,0.0,-4.2802,-4.3485,-4.3048,-4.2802,-4.3424,-4.3516,-4.3516,-4.3516,-4.2971,-4.2586,-4.2525,-4.3091,-4.3229,-4.2566,-4.2505,-4.2733,-4.3366,-4.2148,-4.2291,-4.4305,-4.3713,-4.3612,-4.4294,-4.4434,-4.444,-4.4311,-4.3777,-4.3136,-4.2395,-4.174,-4.1095,-4.0489,-4.0489,-4.0489,-4.0489,-4.0489,-4.0489,-4.0489,-4.0489,-4.0489,-4.0489,-4.0489,-4.0489,-4.0489,-4.0489,-4.0904,-4.1393,0.0,0.0,0.0,0.0,0.0,0.0,0.0,0.0,0.0,0.0,0.0,0.0,0.0,0.0,0.0,0.0,0.0,0.0,0.0,-2.4151,-2.4088,-2.413,-2.4088,-2.4082,-2.4079,-2.4485,-2.5062,-2.5824,-2.5674,-2.6019,-2.6861,-2.751,-2.8404,-2.9477,-2.9574,-2.9532,-2.9394,-2.8992,-2.8323,-2.763,-2.8064,-2.8783,-2.9636,-2.9894,-3.0208,0.0,0.0,0.0,0.0,0.0,0.0,0.0,-2.76,-2.7675,-2.7635,-2.6995,-2.76,-2.8425,-2.8107,-2.9518,0.0,-3.2765,-3.5646,-3.8657,-4.0504,-4.1894,-4.2863,-4.3002,-4.2802,-4.2802,-4.3485,-4.3048,-4.2648,-4.2786,-4.2817,-4.2817,-4.2817,-4.2694,-4.2402,-4.1878,-4.1944,-4.1984,-4.1775,-4.1291,-4.1482,-4.263,-4.1904,-4.1822,-4.28,-4.2656,-4.2402,-4.211,-4.3115,-4.3176,-4.2196,-4.3036,-4.2892,-4.1706,-4.1037,-4.0626,-4.0489,-4.0489,-4.0489,-4.0489,-4.0489,-4.0489,-4.0489,-4.0489,-4.0489,-4.0489,-4.0489,-4.0489,-4.0489,-4.0489,-4.0578,-4.0715,0.0,0.0,0.0,0.0,0.0,0.0,0.0,0.0,0.0,0.0,0.0,0.0,0.0,0.0,0.0,0.0,0.0,0.0,0.0,0.0,-2.4003,-2.4003,-2.4178,-2.4213,-2.4066,-2.4739,-2.5397,-2.6078,-2.6393,-2.6786,-2.718,-2.746,-2.8381,-2.9795,-2.966,-2.9633,-2.9684,-2.9259,-2.8513,-2.766,-2.8304,-2.8978,-2.9636,-2.9909,-3.0432,-3.0956,-3.0627,0.0,0.0,0.0,0.0,0.0,0.0,0.0,-2.773,-2.7368,-2.786,-2.8728,-2.964,-3.0823,0.0,-3.431,0.0,-3.8842,-4.0021,-4.0462,-4.0889,-4.1802,-4.2299,-4.2673,-4.2922,-4.2759,-4.2565,-4.2477,-4.2252,-4.2125,-4.2125,-4.1832,-4.1443,-4.1124,-4.1078,-4.094,-4.0569,-4.0529,-4.0658,-4.1038,-4.0686,-4.0875,-4.1865,-4.1549,-4.137,-4.1387,-4.2094,-4.2145,-4.1513,-4.1545,-4.14,-4.102,-4.0018,-3.9549,-3.9551,-4.0197,-4.0489,-4.0489,-4.0489,-4.0489,-4.0489,-4.0489,-4.0489,-4.0489,-4.0489,-4.0489,-4.0489,-4.0489,-4.0489,-4.0489,0.0,0.0,0.0,0.0,0.0,0.0,0.0,0.0,0.0,0.0,0.0,0.0,0.0,0.0,0.0,0.0,0.0,0.0,0.0,0.0,0.0,-2.4106,-2.4312,-2.4425,-2.4425,-2.5187,-2.5869,-2.6422,-2.7106,-2.7605,-2.7946,-2.783,-2.8467,-2.9747,-2.9522,-2.954,-2.9738,-2.9525,-2.8858,-2.8049,-2.9157,-2.9666,-2.9804,-3.0313,-3.0926,-3.1436,-3.0881,-3.0283,-2.9654,-2.9116,0.0,0.0,0.0,0.0,-2.789,-2.798,-2.8196,-2.8916,-3.1216,-3.1806,-3.2504,-3.5553,-3.6999,0.0,-3.8656,-3.8742,-3.9039,-4.043,-4.1536,-4.2206,-4.2117,-4.218,-4.214,-4.1964,-4.1428,-4.1074,-4.1232,-4.0632,-4.0136,-4.0136,-4.0136,-3.992,-3.94,-3.9813,-3.9929,-3.9361,-3.9282,-3.9711,-4.082,-4.0298,-4.0183,-4.068,-4.0941,-4.1,-4.0821,-3.9958,-3.9708,-4.0148,-3.9049,-3.8446,-3.8385,-3.9582,-4.0136,-4.0136,-4.0136,-4.0213,-4.032,-4.032,-4.0397,-4.0489,-4.0489,-4.0489,-4.0489,-4.0489,-4.0489,-4.0489,0.0,0.0,0.0,0.0,0.0,0.0,0.0,0.0,0.0,0.0,-2.4589,-2.4508,0.0,0.0,0.0,0.0,0.0,0.0,0.0,0.0,0.0,-2.4485,-2.4014,-2.3729,-2.3729,-2.4971,-2.5636,-2.5734,-2.6393,-2.7345,-2.8483,-2.8457,-2.8588,-2.8779,-2.8753,-2.9082,-2.9589,-2.8992,-2.8966,-2.9352,-2.9532,-2.9909,-3.0387,-3.0477,-3.0926,-3.1496,-3.1406,-3.0928,-3.0372,-3.0283,-2.9525,0.0,0.0,0.0,-2.8137,-2.8029,-2.8976,-3.0124,-3.0398,0.0,-3.4306,0.0,-3.7015,-3.8179,0.0,0.0,-3.9054,0.0,-3.97,-4.0916,-4.1372,-4.0969,-4.0607,-4.0572,-3.9531,-3.8971,-3.9674,-3.9216,-3.8785,-3.8785,-3.8785,-3.8739,-3.8646,-3.8723,-3.8741,-3.8639,-3.856,-3.8601,-3.8783,-3.864,-3.8359,-3.7937,-3.9069,-3.9145,-3.8026,-3.9,-3.9266,-3.8762,-3.8587,-3.82,-3.7661,-3.8431,-3.8785,-3.8785,-3.8785,-3.9108,-3.9613,-3.9613,-3.9967,-4.0489,-4.0489,-4.0489,-4.0489,-4.0489,-4.0489,-4.0489,0.0,0.0,0.0,0.0,0.0,0.0,0.0,0.0,0.0,0.0,0.0,-2.4605,0.0,0.0,0.0,0.0,0.0,0.0,0.0,0.0,0.0,-2.5128,-2.4881,-2.4717,-2.4717,-2.5674,-2.6153,-2.6153,-2.6811,-2.7465,-2.8049,-2.8049,-2.8427,-2.9131,-2.8771,-2.8966,-2.9592,-2.9307,-2.9337,-2.9606,-2.9606,-3.0486,-3.1683,-3.0819,-3.1447,-3.2705,-3.194,-3.1247,-3.0689,-3.0744,-2.9966,-2.8929,-2.8991,0.0,0.0,0.0,-2.8728,-2.9587,-3.1025,-3.2939,-3.4751,0.0,-3.6644,-3.716,-3.7023,-3.7223,-3.7636,-3.827,-3.8774,-3.9188,-3.9405,-3.9378,-3.9247,-3.9043,-3.8675,-3.855,-3.8875,-3.8708,-3.8508,-3.8508,-3.8508,-3.8354,-3.7984,-3.8292,-3.82,-3.7446,-3.7684,-3.7888,-3.7831,-3.7796,-3.7679,-3.7417,-3.7953,-3.8019,-3.7492,-3.7701,-3.767,-3.7384,-3.7384,-3.7215,-3.6953,-3.7246,-3.78,-3.8539,-3.8908,-3.9247,-3.9521,-3.989,-4.0228,-4.0489,-4.0489,-4.0489,-4.0489,-4.0489,-4.0489,-4.0489,0.0,0.0,0.0,0.0,0.0,0.0,0.0,0.0,0.0,0.0,0.0,0.0,0.0,0.0,0.0,0.0,0.0,0.0,0.0,0.0,0.0,-2.5561,-2.5615,-2.5615,-2.5615,-2.6258,-2.6587,-2.6587,-2.7106,-2.76,-2.8094,-2.7585,-2.8244,-2.9774,-2.8966,-2.8966,-2.9606,-2.9606,-2.9774,-3.0088,-3.0268,-3.1386,-3.2855,-3.1731,-3.2345,-3.3638,-3.2506,-3.1673,-3.1157,-3.1422,-3.0642,-2.9585,-2.9674,-2.9266,0.0,0.0,0.0,-2.9135,0.0,0.0,-3.3814,-3.5322,-3.5861,-3.6089,0.0,0.0,-3.6533,0.0,-3.7555,-3.7322,-3.6985,-3.7687,-3.8244,-3.8041,-3.7936,-3.7949,-3.8198,-3.8108,-3.8,-3.8,-3.8,-3.78,-3.7292,-3.7707,-3.7584,-3.6569,-3.6953,-3.7157,-3.6929,-3.6927,-3.6833,-3.666,-3.666,-3.6687,-3.6722,-3.623,-3.5984,-3.5984,-3.6153,-3.6245,-3.6245,-3.6415,-3.7046,-3.8031,-3.8539,-3.8939,-3.9259,-3.9782,-4.0182,-4.0489,-4.0489,-4.0489,-4.0489,-4.0489,-4.0489,-4.0489,0.0,0.0,0.0,0.0,0.0,0.0,0.0,0.0,0.0,0.0,0.0,0.0,-2.4046,-2.4024,-2.4003,-2.3982,-2.376,0.0,0.0,0.0,0.0,-2.5561,-2.5615,0.0,-2.5615,-2.6258,-2.6587,-2.6587,-2.6617,-2.7645,-2.9457,-2.753,-2.8008,-3.0402,-2.916,-2.8966,-2.9606,-2.9606,-3.0298,-3.1466,-3.2079,-3.2796,-3.347,-3.3532,-3.3593,-3.3623,-3.3122,-3.2513,-3.2042,-3.268,-3.2109,-3.109,-3.109,-3.0711,-3.0294,0.0,0.0,0.0,0.0,-3.0555,0.0,-3.3075,-3.4552,-3.5446,0.0,0.0,-3.6548,-3.5177,-3.5403,-3.5448,-3.4226,-3.6069,-3.7778,-3.7974,-3.6962,-3.6467,-3.7429,-3.6999,-3.6599,-3.6599,-3.6599,-3.6584,-3.6553,-3.6569,-3.6569,-3.6492,-3.6522,-3.6276,-3.5629,-3.5598,-3.5305,-3.4687,-3.4642,-3.4657,-3.4659,-3.4628,-3.4597,-3.4613,-3.526,-3.5568,-3.5553,-3.6199,-3.6538,-3.6599,-3.663,-3.7384,-3.8554,-3.86,-3.9336,-4.0489,-4.0489,-4.0489,-4.0489,-4.0489,-4.0489,-4.0489,0.0,0.0,0.0,0.0,0.0,0.0,0.0,0.0,0.0,0.0,0.0,0.0,0.0,-2.3903,-2.4021,-2.4371,-2.4312,0.0,0.0,0.0,0.0,-2.6821,-2.6467,-2.6437,-2.6881,-2.7121,-2.724,-2.724,-2.724,-2.7615,-2.8304,-2.7585,-2.7775,-2.8782,-2.9109,-2.9397,-2.9666,-3.0603,-3.0951,-3.1001,-3.2601,-3.3923,-3.4826,-3.3999,-3.4497,-3.5388,-3.3622,-3.3105,-3.3331,-3.3648,-3.3259,-3.253,-3.21,0.0,0.0,0.0,0.0,0.0,0.0,0.0,0.0,-3.2272,-3.3551,-3.444,-3.4258,-3.5177,-3.6014,-3.5872,-3.5707,-3.5557,-3.5527,-3.5765,-3.5938,-3.5874,-3.5671,-3.5767,-3.6534,-3.6199,-3.603,-3.6445,-3.6107,-3.6014,-3.6445,-3.6492,-3.6492,-3.6492,-3.6492,-3.6199,-3.5552,-3.5506,-3.5198,-3.452,-3.4505,-3.4505,-3.4505,-3.4505,-3.4505,-3.452,-3.5183,-3.5506,-3.5537,-3.6184,-3.6492,-3.6492,-3.6492,-3.7015,-3.7923,-3.88,-3.9413,-3.989,-4.032,-4.0489,-4.0489,-4.0489,-4.0489,-4.0489,0.0,0.0,0.0,0.0,0.0,0.0,0.0,0.0,-2.4003,-2.4003,0.0,0.0,0.0,0.0,-2.3981,-2.4545,-2.4814,-2.5113,-2.5561,-2.5382,-2.5869,-2.721,-2.7085,-2.7175,-2.7585,-2.7425,-2.7425,-2.7675,-2.7225,-2.7345,-2.8071,-2.7831,-2.8137,-2.8908,-2.9693,-2.9831,-2.947,-3.0413,-3.0611,-3.0541,-3.3051,-3.4556,-3.5296,-3.4664,-3.5269,-3.6161,-3.4121,-3.3557,-3.3831,-3.4531,-3.4393,-3.3793,0.0,0.0,0.0,0.0,0.0,0.0,-3.0889,0.0,0.0,0.0,-3.2455,-3.3207,-3.3698,-3.4406,-3.5138,-3.5701,-3.5654,-3.5504,-3.5489,-3.5127,-3.4817,-3.4693,-3.4713,-3.4912,-3.5431,-3.5247,-3.5231,-3.5768,-3.5444,-3.5352,-3.5799,-3.6014,-3.6061,-3.583,-3.603,-3.5753,-3.4829,-3.4754,-3.4417,-3.3741,-3.3725,-3.3754,-3.3796,-3.3812,-3.3812,-3.3812,-3.4736,-3.5137,-3.5093,-3.5999,-3.6383,-3.6383,-3.6383,-3.6813,-3.7584,-3.8708,-3.929,-3.9585,-4.0228,-4.0489,-4.0489,-4.0489,-4.0489,-4.0489,0.0,0.0,0.0,0.0,0.0,0.0,0.0,0.0,-2.3982,-2.3982,0.0,0.0,0.0,0.0,0.0,-2.4515,-2.5202,-2.5615,-2.5615,-2.6228,-2.6626,-2.6641,0.0,0.0,-2.7625,-2.7109,-2.7142,-2.7815,-2.6503,-2.6937,-2.8961,-2.8318,-2.9077,-3.0934,-3.0949,-3.0251,-2.9037,-2.8938,-2.9327,-3.027,-3.3457,-3.4737,-3.4812,-3.5664,-3.6016,-3.5879,-3.4729,-3.3919,0.0,-3.5351,0.0,0.0,0.0,0.0,0.0,0.0,0.0,0.0,0.0,0.0,0.0,0.0,0.0,0.0,-3.335,0.0,-3.394,-3.4371,-3.4951,-3.5026,-3.3739,-3.4023,-3.4505,-3.4647,-3.418,-3.391,-3.418,-3.4208,-3.4268,-3.4475,-3.4489,-3.4474,-3.4505,-3.5106,-3.5213,-3.4551,-3.5121,-3.4845,-3.3475,-3.3255,-3.2863,-3.2221,-3.2191,-3.2259,-3.2398,-3.2398,-3.2398,-3.2413,-3.3827,-3.4401,-3.4254,-3.5584,-3.6196,-3.6196,-3.6211,-3.6688,-3.7523,-3.82,-3.8877,-3.9521,-4.0197,-4.0474,-4.0489,-4.0489,-4.0489,-4.0489,0.0,0.0,0.0,0.0,0.0,-2.3925,-2.3824,-2.376,-2.3717,0.0,0.0,0.0,-2.3595,-2.4124,-2.4327,-2.3909,-2.5025,-2.5746,-2.5746,-2.6363,-2.6998,-2.7578,-2.7839,-2.793,-2.7905,-2.7748,-2.7748,-2.793,-2.7576,-2.7707,-2.8268,-2.8581,-2.9057,-2.9709,-3.0103,-3.0118,-2.9922,-3.0872,-3.0772,-3.0342,-3.4076,-3.551,-3.561,-3.7221,-3.8406,-3.8938,0.0,-3.7234,-3.7763,0.0,-3.6834,-3.7031,0.0,0.0,0.0,0.0,0.0,0.0,-3.1166,0.0,0.0,0.0,0.0,0.0,0.0,0.0,-3.2594,-3.3111,-3.3337,-3.3472,-3.35,-3.3649,-3.38,-3.383,-3.4194,-3.4468,-3.4545,-3.4349,-3.4223,-3.4268,-3.394,-3.3862,-3.4251,-3.457,-3.4631,0.0,-3.457,-3.4382,-3.346,-3.2811,-3.2446,-3.2358,-3.2247,-3.2259,-3.2398,-3.2398,-3.2398,-3.2413,-3.3667,-3.4268,-3.4254,-3.5584,-3.6196,-3.6211,-3.6352,-3.6553,-3.683,-3.7507,-3.8185,-3.8846,-3.949,-4.0059,-4.0489,-4.0489,-4.0489,-4.0489,0.0,0.0,0.0,0.0,0.0,-2.3696,-2.3595,-2.3595,-2.3616,0.0,0.0,0.0,-2.4071,-2.4806,-2.5108,-2.4641,-2.5628,-2.6309,-2.6309,-2.6672,-2.721,-2.7965,-2.8054,-2.8054,-2.7995,-2.778,-2.7789,-2.8079,-2.7789,-2.7829,-2.8183,-2.9078,-2.9709,-3.014,-3.0391,-3.088,-3.1566,-3.1781,-3.1194,-3.0453,-3.4637,-3.6103,-3.6039,-3.82,-3.9433,0.0,0.0,0.0,-3.8802,-3.8387,-3.8186,0.0,0.0,0.0,0.0,0.0,0.0,0.0,0.0,0.0,0.0,0.0,0.0,0.0,-3.1637,-3.196,-3.2537,-3.3652,-3.3877,-3.3876,-3.3919,-3.3934,-3.3814,-3.3544,-3.3891,-3.4239,-3.4286,-3.3864,-3.3604,-3.3708,-3.3242,-3.301,-3.325,-3.3686,-3.379,-3.3383,-3.3715,-3.3606,-3.2874,-3.2377,-3.2122,-3.215,-3.2122,-3.2163,-3.233,-3.233,-3.233,-3.233,-3.3537,-3.4089,-3.403,-3.5476,-3.6085,-3.6006,-3.6242,-3.6383,-3.6413,-3.6876,-3.7646,-3.8585,-3.9262,-3.9905,-4.0489,-4.0489,-4.0489,-4.0489,0.0,0.0,-2.3014,-2.3526,-2.3616,-2.3653,-2.3653,-2.3616,-2.3674,0.0,-2.3777,-2.4026,-2.4738,-2.5553,-2.6016,-2.5994,-2.6632,-2.7018,-2.7018,-2.7079,-2.7422,-2.8014,-2.8177,-2.8177,-2.8044,-2.7581,-2.7638,-2.821,-2.769,-2.7823,-2.855,-2.9746,-3.0753,-3.149,-3.1321,-3.2014,-3.3293,-3.1951,-3.1148,-3.1067,-3.5229,-3.6529,-3.6286,-3.8908,-3.995,-3.992,-3.9258,-3.8737,-3.8527,-3.9871,-3.9113,0.0,0.0,0.0,0.0,0.0,-3.4491,0.0,0.0,0.0,0.0,0.0,-3.1163,0.0,-3.2216,-3.2279,-3.2613,-3.4431,-3.4805,-3.464,-3.4085,-3.398,-3.3815,-3.3306,-3.326,-3.3351,-3.3532,-3.3066,-3.2733,-3.2848,-3.2488,-3.215,-3.2025,-3.2684,-3.2861,-3.2209,-3.2741,-3.2776,-3.2055,-3.2025,-3.194,-3.1813,-3.1912,-3.2038,-3.2178,-3.2163,-3.2163,-3.2178,-3.3315,-3.3804,-3.3758,-3.5213,-3.5834,-3.5752,-3.6085,-3.6242,-3.6242,-3.6414,-3.7292,-3.8569,-3.917,-3.9828,-4.0489,-4.0489,-4.0489,-4.0489,0.0,-2.2802,-2.3746,-2.3767,-2.3861,-2.3903,-2.3903,-2.3839,-2.3818,-2.394,-2.4409,-2.4788,-2.4932,-2.5681,-2.6123,-2.6016,-2.671,-2.7169,-2.7169,-2.7673,-2.8088,-2.8299,-2.8348,-2.8348,-2.8339,-2.8225,-2.8249,-2.8348,-2.8762,-2.9064,-2.9218,-3.054,-3.1524,-3.2167,-3.1601,-3.2054,-3.3165,-3.1939,-3.2415,-3.4137,-3.6107,-3.6834,-3.7071,-4.0529,-4.2141,-4.2515,-4.1856,-4.1886,-4.1961,-4.0364,-3.817,-3.6161,0.0,0.0,0.0,-3.5415,0.0,0.0,0.0,0.0,0.0,0.0,0.0,0.0,-3.0573,-2.9598,-2.8807,-3.016,-3.0437,-3.0532,-3.0806,-3.084,-3.0918,-3.1354,-3.1769,-3.2195,-3.2676,-3.272,-3.2538,-3.2098,-3.2114,-3.215,-3.2025,-3.2341,-3.2412,-3.2081,-3.2272,-3.2344,-3.2178,-3.2066,-3.1996,-3.1968,-3.187,-3.1883,-3.2038,-3.2038,-3.2038,-3.2053,-3.267,-3.3231,-3.3728,-3.4743,-3.5457,-3.5973,-3.6289,-3.6445,-3.6445,-3.6492,-3.7292,-3.8523,-3.8662,-3.9413,-4.0489,-4.0489,-4.0489,-4.0489,-2.1721,-2.2505,-2.3219,-2.3803,-2.4234,-2.4398,-2.4049,-2.4522,-2.4825,-2.4615,-2.552,-2.6306,-2.6558,-2.7025,-2.7263,-2.7201,-2.7263,-2.7287,-2.7287,-2.7609,-2.8124,-2.8889,-2.8581,-2.8719,-2.9371,-2.9064,-2.9193,-2.9807,-2.9869,-3.0222,-3.0819,-3.1489,-3.2204,-3.2875,-3.2143,-3.2348,-3.3207,-3.1939,-3.2627,-3.4729,-3.6639,-3.7948,-3.9068,-4.179,-4.3045,-4.3245,-4.297,-4.2641,-4.1998,-3.9802,-3.7824,0.0,-3.6017,-3.555,-3.5186,0.0,-3.4819,-3.3839,0.0,0.0,0.0,-3.2813,0.0,0.0,0.0,-3.0715,-2.9964,-3.0848,-3.0502,-3.0031,-2.9951,-2.9652,-2.941,-2.9394,-3.0135,-3.0689,-3.0689,-3.1804,-3.2511,-3.2195,-3.2066,-3.194,-3.1769,-3.2038,-3.2163,-3.2094,-3.2094,-3.2094,-3.2094,-3.1968,-3.1855,-3.1769,-3.1784,-3.1841,-3.1898,-3.1898,-3.1898,-3.1898,-3.2374,-3.2811,-3.3246,-3.4455,-3.5138,-3.5377,-3.6042,-3.6258,-3.6116,-3.6195,-3.6854,-3.7803,-3.819,-3.8974,-3.9876,-4.0174,-4.0261,-4.0261,-2.182,-2.2167,-2.2699,-2.3833,-2.4502,-2.4691,-2.4143,-2.4974,-2.5544,-2.5236,-2.6481,-2.7549,-2.799,-2.856,-2.8885,-2.8762,-2.8692,-2.8461,-2.7963,-2.8056,-2.8424,-2.9196,-2.895,-2.9279,-3.0319,-3.0073,-3.0405,-3.1345,-3.1079,-3.1432,-3.2407,-3.2571,-3.3054,-3.3767,-3.2936,-3.2964,-3.3521,-3.2278,-3.2966,-3.5095,-3.7094,-3.8832,-4.0452,-4.2381,-4.315,-4.3125,-4.3245,-4.2237,-4.0598,-3.8981,-3.7549,-3.6362,-3.5649,-3.529,0.0,0.0,0.0,0.0,0.0,0.0,0.0,0.0,0.0,-3.2724,0.0,0.0,0.0,-3.2161,0.0,0.0,0.0,0.0,0.0,-2.7838,0.0,0.0,0.0,-3.031,0.0,-3.1972,-3.1892,-3.171,-3.1417,-3.1658,-3.1916,-3.2191,-3.1944,-3.186,-3.1981,-3.187,-3.1698,-3.1511,-3.167,-3.1727,-3.1727,-3.1727,-3.1727,-3.1771,-3.2137,-3.2511,-3.29,-3.4167,-3.4802,-3.4933,-3.5793,-3.6022,-3.5752,-3.5941,-3.6248,-3.6704,-3.7763,-3.8559,-3.923,-3.9773,-4.0011,-4.0011,-2.2006,-2.2642,-2.3385,-2.4065,-2.4296,-2.4353,-2.4276,-2.4351,-2.4594,-2.5135,-2.6481,-2.7426,-2.748,-2.9475,-3.059,-3.0025,-3.1931,-3.2251,-3.0025,-3.0391,-3.0031,-2.8572,-2.9571,-3.0155,-3.0121,-3.1277,-3.185,-3.1819,-3.2518,-3.2968,-3.3108,-3.3865,-3.4599,-3.5214,-3.4375,-3.4115,-3.4306,-3.338,-3.4714,-3.7516,-3.7785,-3.8288,0.0,-4.158,-4.2515,-4.259,-4.3135,-4.1354,-3.8727,0.0,-3.6962,-3.4875,0.0,-3.4562,-3.4878,-3.5416,0.0,0.0,0.0,0.0,0.0,0.0,-3.1986,0.0,0.0,0.0,-3.0426,-2.9904,0.0,0.0,0.0,0.0,0.0,0.0,0.0,0.0,-2.7155,-2.79,-2.8873,-3.0152,-3.119,-3.1615,-3.1122,-3.1089,-3.1427,-3.216,-3.1518,-3.1374,-3.1966,-3.187,-3.1698,-3.1511,-3.1511,-3.1539,-3.1539,-3.1539,-3.1539,-3.1539,-3.1585,-3.2258,-3.341,-3.3773,-3.4528,-3.5614,-3.5896,-3.6005,-3.5973,-3.6005,-3.5701,-3.5413,-3.7312,-3.8436,-3.9108,-3.9753,-4.0011,-4.0011,-2.285,-2.3067,-2.3542,-2.4153,-2.4599,-2.4743,-2.4364,-2.4937,-2.5821,-2.6911,-2.828,-2.8833,-2.8073,-2.9935,-3.1129,-3.0746,0.0,-3.2249,0.0,-3.0948,-3.0464,-2.9033,-2.9166,-2.993,-3.1413,-3.1232,-3.2035,-3.3815,-3.3487,-3.3868,-3.4942,-3.5046,-3.5028,-3.4922,-3.5217,-3.5187,-3.488,-3.4101,-3.5155,0.0,0.0,-3.7642,0.0,-4.1715,-4.2686,-4.2381,-4.2237,-4.0561,-3.8367,0.0,-3.627,0.0,0.0,0.0,0.0,-3.4942,0.0,0.0,0.0,0.0,0.0,0.0,0.0,0.0,-3.2416,0.0,-3.0417,0.0,0.0,0.0,0.0,0.0,0.0,0.0,-2.6711,0.0,0.0,0.0,-2.8122,-2.8723,0.0,0.0,-3.0372,-3.0295,-3.0761,-3.199,-3.094,-3.0736,-3.1838,-3.1712,-3.1597,-3.1511,-3.1511,-3.1511,-3.1511,-3.1511,-3.1511,-3.1511,-3.1884,-3.2422,-3.3051,-3.3924,-3.4602,-3.516,-3.5633,-3.5782,-3.5716,-3.5716,-3.555,-3.546,-3.7007,-3.7681,-3.7824,-3.9169,-3.964,-3.964,-2.3702,0.0,0.0,-2.4471,-2.482,-2.4912,-2.4604,-2.5727,-2.7019,-2.8242,-2.9556,-3.0017,-2.9058,-3.0994,-3.2311,0.0,-3.3347,-3.353,0.0,-3.1975,-3.1296,-2.9966,-2.9294,-3.0161,-3.2749,-3.1903,-3.2765,-3.5415,-3.4573,-3.4787,-3.592,-3.583,-3.5429,-3.4828,-3.5768,-3.6026,-3.5705,0.0,-3.6096,-3.7903,-3.7721,-3.788,-3.8512,-4.1407,-4.2237,-4.1856,-4.1737,-4.0164,-3.8078,-3.7828,-3.6135,0.0,-3.4871,-3.4409,-3.3801,0.0,0.0,0.0,-3.3391,0.0,0.0,0.0,0.0,0.0,0.0,0.0,0.0,0.0,0.0,0.0,0.0,0.0,0.0,0.0,0.0,-2.678,0.0,-2.6833,0.0,0.0,0.0,0.0,0.0,-2.9161,-2.9664,-3.1329,-3.0223,-3.0157,-3.1709,-3.1597,-3.1511,-3.1511,-3.1511,-3.1511,-3.1511,-3.1511,-3.1511,-3.1511,-3.2168,-3.2661,-3.2946,-3.4119,-3.4766,-3.4945,-3.5247,-3.5424,-3.5489,-3.5295,-3.5325,-3.5639,-3.6911,-3.7188,-3.7109,-3.8786,-3.9388,-3.9388,-2.441,-2.4271,0.0,-2.5142,-2.4743,-2.4548,-2.5158,-2.6457,-2.7611,-2.8319,-2.9556,-3.0386,-3.034,0.0,0.0,0.0,0.0,-3.7931,-3.4954,0.0,-3.2998,0.0,0.0,-3.1435,0.0,-3.3997,-3.4714,-3.5975,-3.6072,-3.5813,-3.5248,-3.6091,-3.6107,-3.5476,-3.5967,-3.6545,-3.7124,-3.6917,-3.8232,-4.0407,-3.976,-3.952,-3.9589,0.0,-4.0487,-4.0621,-4.1916,0.0,0.0,-3.8387,-3.689,0.0,0.0,0.0,0.0,0.0,0.0,0.0,0.0,0.0,0.0,-3.2539,0.0,0.0,0.0,0.0,-3.1967,0.0,0.0,0.0,0.0,0.0,0.0,0.0,0.0,0.0,0.0,0.0,0.0,0.0,0.0,0.0,0.0,-2.7491,-2.7972,-2.9917,-2.936,-2.9766,-3.1707,-3.1597,-3.1511,-3.1511,-3.1511,-3.1511,-3.1511,-3.1511,-3.1511,-3.1511,-3.2168,-3.2841,-3.3484,-3.4204,-3.4878,-3.5429,-3.4818,-3.4908,-3.5444,-3.4786,-3.4906,-3.5639,-3.6911,-3.7404,-3.7539,-3.8916,-3.9388,-3.9388,0.0,0.0,0.0,0.0,0.0,-2.4702,-2.5841,-2.7196,-2.8732,-3.0597,-3.2007,-3.2988,0.0,-3.5062,-3.6163,0.0,0.0,-3.7312,-3.5045,-3.4288,0.0,0.0,0.0,-3.1094,0.0,0.0,-3.3236,-3.5002,-3.5063,-3.497,-3.477,-3.5968,-3.5645,-3.4183,-3.5569,-3.674,0.0,0.0,0.0,0.0,0.0,-3.8269,-3.8988,0.0,-3.9613,-3.9307,-4.0134,-3.9125,0.0,-3.7278,-3.6099,-3.4721,-3.49,-3.4587,-3.4258,-3.4665,-3.4499,-3.4091,0.0,0.0,-3.397,-3.3138,0.0,0.0,0.0,0.0,0.0,0.0,0.0,0.0,0.0,0.0,0.0,0.0,0.0,0.0,0.0,0.0,0.0,0.0,0.0,0.0,0.0,0.0,-2.8228,-2.9697,-2.958,-3.0084,-3.1507,-3.1539,-3.1511,-3.1511,-3.1511,-3.1705,-3.2153,-3.172,-3.1944,-3.2841,-3.3051,-3.3275,-3.3514,-3.4173,-3.4638,-3.4848,-3.4608,-3.4861,-3.5519,-3.5714,-3.5953,-3.6282,-3.7554,-3.8063,-3.8167,-3.908,-3.9388,-3.9388,-2.5158,0.0,0.0,0.0,0.0,-2.5133,-2.6534,-2.8288,-3.0273,-3.2516,-3.4195,0.0,-3.5908,0.0,-3.7801,0.0,-3.8281,-3.7688,-3.5425,-3.5241,0.0,-3.2813,-3.1845,-3.2638,0.0,0.0,0.0,0.0,-3.4706,-3.4366,-3.415,-3.5521,-3.5291,-3.3844,-3.5063,-3.6711,-3.8561,-3.7652,-3.8937,0.0,0.0,-3.7419,0.0,0.0,-3.805,-3.8361,0.0,-3.8347,-3.7345,-3.6941,-3.6004,-3.5048,-3.5402,-3.5018,-3.4543,-3.4885,-3.4752,-3.4438,-3.4258,-3.4437,0.0,-3.3649,-3.368,0.0,-3.2872,0.0,-3.1758,0.0,0.0,0.0,0.0,0.0,0.0,0.0,0.0,0.0,0.0,-2.6019,0.0,0.0,0.0,0.0,0.0,-2.6412,-2.7291,-2.8932,-2.9067,-2.9576,-3.079,-3.1495,-3.1854,-3.1854,-3.2079,-3.2437,-3.2856,-3.2437,-3.2632,-3.3499,-3.3724,-3.3874,-3.3858,-3.4532,-3.4846,-3.4831,-3.4608,-3.5028,-3.5863,-3.6058,-3.6537,-3.7255,-3.8063,-3.8542,-3.8811,-3.926,-3.9388,-3.9388,-2.4533,-2.441,0.0,0.0,-2.5373,0.0,0.0,0.0,-3.2054,0.0,-3.598,-3.7453,-3.8103,-3.9048,-3.9634,-3.97,-4.0096,-3.9133,-3.6226,-3.7014,0.0,0.0,-3.4667,-3.5816,-3.7662,0.0,0.0,0.0,0.0,-3.4104,-3.3429,-3.4799,-3.5121,-3.4505,-3.4459,0.0,-3.9627,-3.8319,-3.9802,-4.2671,-3.9234,-3.7059,-3.5834,-3.5198,-3.6071,-3.7718,-3.8177,-3.7913,-3.736,-3.736,-3.6537,-3.5504,-3.5504,-3.5504,-3.5504,-3.5504,-3.5504,-3.5402,-3.4885,-3.4751,-3.4678,-3.4107,-3.4016,0.0,0.0,0.0,-3.2191,0.0,0.0,0.0,0.0,0.0,0.0,0.0,0.0,0.0,0.0,0.0,-2.5081,0.0,0.0,0.0,0.0,-2.5026,-2.5372,-2.7737,-2.791,-2.844,0.0,-3.1462,-3.2452,-3.2512,-3.3155,-3.3514,-3.3544,-3.3514,-3.3529,-3.3604,-3.4219,-3.4503,-3.4533,-3.516,-3.5459,-3.5415,-3.4788,-3.5267,-3.6432,-3.5848,-3.6701,-3.8392,-3.8422,-3.8841,-3.9388,-3.9388,-3.9388,-3.9388,-2.578,-2.5857,-2.5903,0.0,-2.6534,-2.698,0.0,0.0,0.0,0.0,-3.6778,-3.878,-4.1603,-4.089,-4.0411,-4.0905,-4.0142,0.0,0.0,0.0,0.0,-3.7387,-3.6252,-3.63,-3.7677,-3.5397,-3.4377,-3.4698,0.0,0.0,-3.3413,-3.4351,-3.4659,-3.4474,0.0,-3.4956,-3.709,-3.6252,-3.693,-3.8454,-3.7543,-3.6652,-3.5879,0.0,-3.6094,-3.7026,-3.7503,-3.7255,-3.6731,-3.6731,-3.6178,-3.5504,-3.5504,-3.5504,-3.5504,-3.5504,-3.5504,-3.5474,-3.5327,-3.5674,-3.5902,-3.5386,-3.5614,-3.5827,0.0,0.0,0.0,0.0,0.0,0.0,0.0,0.0,0.0,0.0,0.0,0.0,0.0,0.0,0.0,-2.4441,0.0,0.0,-2.4777,-2.5273,-2.6283,-2.7773,-2.791,-2.8822,-3.0924,0.0,-3.1566,-3.2482,-3.3155,-3.3724,-3.4249,-3.3739,-3.3993,-3.4981,-3.4668,-3.4503,-3.4518,-3.4698,-3.4773,-3.4758,-3.4578,-3.5267,-3.6507,-3.6806,-3.7509,-3.8437,-3.896,-3.926,-3.9388,-3.9388,-3.9388,-3.9388,-2.6303,-2.6857,-2.718,-2.6888,0.0,0.0,-2.9072,-3.036,0.0,-3.5517,-3.7319,0.0,-4.1048,-4.1257,-4.1294,-4.1407,-4.0711,0.0,-3.8672,0.0,0.0,-3.8612,-3.8411,-3.8501,-3.8862,-3.6796,0.0,-3.4957,0.0,0.0,-3.2982,-3.4027,-3.4505,-3.4489,0.0,-3.4894,-3.6682,-3.7312,-3.7288,-3.697,-3.7748,-3.7521,0.0,-3.6275,-3.6691,-3.7406,-3.7109,-3.6791,-3.6447,-3.6148,-3.5804,-3.5504,-3.5504,-3.5504,-3.5504,-3.5504,-3.5504,-3.5564,-3.5863,-3.6207,-3.6495,-3.6442,-3.673,-3.6869,-3.6371,-3.5965,-3.5527,0.0,-3.4304,-3.3379,0.0,0.0,0.0,0.0,0.0,0.0,0.0,0.0,0.0,0.0,-2.5007,0.0,-2.4773,-2.5586,-2.6405,-2.7057,-2.7391,-2.8137,-2.9509,0.0,-3.1578,-3.2556,-3.3531,-3.431,-3.4921,-3.4325,-3.452,-3.5504,-3.5115,-3.4921,-3.4921,-3.4921,-3.4921,-3.4936,-3.5267,-3.5938,-3.6941,-3.7584,-3.8227,-3.8871,-3.9275,-3.9388,-3.9388,-3.9388,-3.9388,-3.9388,-2.6488,-2.7611,0.0,0.0,0.0,0.0,0.0,-3.1744,0.0,-3.5879,0.0,-3.8942,-3.9183,-4.095,-4.1976,-4.1587,-4.1467,-4.0755,-3.9213,-4.116,-4.1415,-3.9198,-4.0576,-4.107,-4.0412,-3.8627,-3.7156,0.0,0.0,0.0,-3.269,-3.3658,0.0,0.0,0.0,0.0,0.0,-3.9113,-3.8756,-3.694,-3.8747,-3.8772,-3.7662,-3.7131,-3.7556,-3.8227,-3.6956,-3.6492,-3.6387,-3.5729,-3.5504,-3.5504,-3.5504,-3.5504,-3.5504,-3.5504,-3.5564,-3.5759,-3.6327,-3.6611,-3.6866,-3.7404,-3.7599,-3.7558,-3.7139,-3.6977,-3.6619,-3.5572,-3.5226,-3.4711,0.0,0.0,0.0,0.0,0.0,0.0,0.0,0.0,0.0,0.0,0.0,0.0,0.0,-2.5691,-2.6016,-2.6207,-2.655,-2.6969,-2.7546,0.0,-3.1921,-3.2885,-3.4164,-3.4988,-3.5402,-3.5003,-3.5003,-3.5417,-3.5459,-3.5504,-3.5504,-3.5504,-3.5549,-3.5669,-3.6237,-3.6881,-3.7584,-3.8153,-3.8796,-3.9388,-3.9388,-3.9388,-3.9388,-3.9388,-3.9388,-3.9388,-2.7103,0.0,0.0,0.0,0.0,-3.1774,-3.3181,-3.438,-3.5834,-3.7873,-3.8476,-3.9706,-4.2216,-4.1429,-4.113,-4.2141,-4.1737,0.0,0.0,0.0,0.0,-4.176,-4.1527,-4.107,-4.0412,-3.8627,-3.7382,0.0,0.0,0.0,-3.4104,-3.2641,0.0,0.0,0.0,0.0,-3.482,-3.6329,0.0,-3.6243,-3.8054,-3.8331,-3.7718,-3.8002,-3.8232,-3.8227,-3.6956,-3.6492,-3.6387,-3.5729,-3.5504,-3.5504,-3.5504,-3.5504,-3.5504,-3.5504,-3.5893,-3.6342,-3.6447,-3.7255,-3.8078,-3.8197,-3.8646,-3.9035,-3.8966,-3.8487,-3.8057,-3.7818,-3.6967,-3.5859,-3.4616,0.0,0.0,0.0,0.0,0.0,0.0,0.0,0.0,0.0,0.0,-2.6869,0.0,0.0,-2.5277,-2.6801,-2.5601,-2.6344,-2.9867,0.0,-3.1438,0.0,-3.4938,-3.5179,0.0,0.0,-3.5164,-3.484,-3.5299,-3.5504,-3.5504,-3.5504,-3.5804,-3.6327,-3.6432,-3.715,-3.8227,-3.8347,-3.8796,-3.9388,-3.9388,-3.9388,-3.9388,-3.9388,-3.9388,-3.9388,-2.8904,0.0,0.0,0.0,0.0,0.0,0.0,-3.7477,-3.8587,-3.8131,-3.8707,-3.9489,-4.0246,-4.1003,-4.1572,-4.1871,-4.1916,-4.2201,-4.2821,-4.2865,-4.2716,-4.241,-4.1767,-4.107,-4.0412,-3.9197,-3.7869,-3.6379,0.0,0.0,-3.3411,0.0,0.0,-3.4505,0.0,-3.4498,0.0,0.0,0.0,-3.702,-3.9183,-3.9457,-3.8602,-3.8846,-3.8931,-3.8796,-3.7823,-3.7479,-3.727,-3.5953,-3.5504,-3.5504,-3.5504,-3.5504,-3.5504,-3.5504,-3.5729,-3.6133,-3.6791,-3.7404,-3.8048,-3.8751,-3.917,-3.9388,-3.9388,-3.917,-3.8721,-3.8018,-3.7659,-3.7038,-3.5503,-3.3214,0.0,0.0,0.0,0.0,0.0,0.0,-3.0955,0.0,0.0,0.0,0.0,0.0,0.0,0.0,0.0,0.0,0.0,0.0,-3.1554,0.0,0.0,0.0,-3.5106,0.0,-3.5437,-3.5121,-3.5731,-3.5833,-3.5519,-3.5863,-3.6193,-3.6522,-3.7195,-3.7823,-3.8422,-3.8781,-3.9125,-3.9388,-3.9388,-3.9388,-3.9388,-3.9388,-3.9388,-3.9388,-3.0933,-3.0883,0.0,0.0,-3.4683,-3.6496,-3.7639,-3.9997,-4.0883,-3.8892,-3.9403,-3.9658,-3.8908,-4.0965,-4.2186,-4.1677,-4.2231,-4.2731,-4.3105,-4.3135,-4.2895,-4.2425,-4.1632,-4.0935,-4.0412,-3.9753,-3.8472,0.0,0.0,0.0,0.0,0.0,0.0,0.0,0.0,0.0,0.0,0.0,-3.9219,-3.8467,-4.0561,-4.0681,-3.9619,-3.9433,-3.9388,-3.9334,-3.8631,-3.8392,-3.8138,-3.6477,-3.5908,-3.5893,-3.5759,-3.5714,-3.5714,-3.5714,-3.5804,-3.6163,-3.73,-3.7719,-3.8093,-3.9119,-3.9388,-3.9388,-3.9388,-3.9388,-3.9089,-3.8048,-3.8018,-3.7618,-3.5819,-3.4151,0.0,0.0,0.0,0.0,0.0,0.0,0.0,0.0,0.0,0.0,-2.8748,0.0,0.0,0.0,0.0,0.0,-2.8636,0.0,0.0,0.0,0.0,-3.4915,-3.5377,0.0,-3.5949,-3.5746,-3.6405,-3.6402,-3.5923,-3.6447,-3.6761,-3.6956,-3.7943,-3.8467,-3.8646,-3.9185,-3.9388,-3.9388,-3.9388,-3.9388,-3.9388,-3.9388,-3.9388,-3.9388,0.0,0.0,0.0,0.0,0.0,-3.7192,-3.8316,-4.0673,-4.2216,-4.1976,-4.1527,-4.1632,-4.2656,-4.2536,-4.2366,-4.2306,-4.2865,-4.3015,-4.253,-4.2485,-4.247,-4.2396,-4.116,-4.0457,-4.0397,-3.9753,-3.9062,0.0,0.0,-3.5504,0.0,0.0,0.0,0.0,0.0,0.0,0.0,-3.9646,-4.0364,-4.0239,-4.1078,-4.095,-4.0247,-3.9649,-3.9388,-3.9334,-3.8631,-3.8392,-3.8272,-3.7494,-3.7225,-3.7135,-3.6567,-3.6402,-3.6402,-3.6402,-3.6791,-3.7389,-3.8108,-3.8751,-3.9224,-3.9394,-3.9388,-3.9388,-3.9388,-3.9388,-3.9343,-3.926,-3.8317,-3.6929,-3.5142,-3.4165,-3.3472,0.0,0.0,0.0,0.0,0.0,-3.473,-3.3577,0.0,0.0,-3.0652,-2.7948,0.0,0.0,-2.7298,0.0,0.0,0.0,0.0,-3.4541,-3.4677,-3.4768,-3.4938,-3.6475,-3.7008,-3.6604,-3.7083,-3.7285,-3.7225,-3.73,-3.7644,-3.8227,-3.8347,-3.8736,-3.9334,-3.9358,-3.9388,-3.9388,-3.9388,-3.9388,-3.9388,-3.9388,-3.9388,-3.9388,0.0,0.0,0.0,0.0,0.0,0.0,0.0,-4.2051,-4.2806,-4.2455,-4.2171,-4.2051,-4.2147,-4.1923,-4.1811,-4.1811,-4.2013,-4.2058,-4.1826,-4.1811,-4.1632,-4.1205,-4.0681,-4.0217,-3.9828,-3.9559,-3.8972,0.0,0.0,0.0,0.0,0.0,0.0,0.0,0.0,-3.8534,-3.9028,-4.0875,-4.119,-4.0457,-4.1115,-4.0756,-3.9783,-3.9514,-3.9388,-3.9343,-3.911,-3.9005,-3.8975,-3.8706,-3.8078,-3.73,-3.6686,-3.6492,-3.6417,-3.6013,-3.6357,-3.7,-3.7629,-3.8287,-3.8901,-3.932,-3.9388,-3.9388,-3.9388,-3.9388,-3.9305,-3.8886,-3.7764,-3.6765,-3.6379,-3.5198,-3.4345,-3.4434,0.0,0.0,0.0,0.0,0.0,-3.3848,0.0,-3.1336,0.0,-2.8522,0.0,0.0,0.0,0.0,0.0,0.0,0.0,-3.3562,0.0,-3.5651,-3.5358,-3.7117,-3.7708,-3.7147,-3.7723,-3.7793,-3.7419,-3.7823,-3.8362,-3.9005,-3.9005,-3.917,-3.9388,-3.9388,-3.9388,-3.9388,-3.9388,-3.9388,-3.9388,-3.9388,-3.9664,-3.9948,-3.8292,0.0,-3.8156,0.0,-4.0401,-4.0761,-4.241,-4.288,-4.2821,-4.2201,-4.1946,-4.1722,-4.1452,-4.1422,-4.1309,-4.1115,-4.1265,-4.1332,-4.1115,-4.1085,-4.0891,-4.0427,-4.0217,0.0,-3.9388,-3.9388,-3.8996,-3.8191,-3.6748,0.0,0.0,0.0,0.0,0.0,-3.95,-3.9941,-4.001,-4.149,-4.1467,-4.0442,-4.0905,-4.0531,-3.9694,-3.9499,-3.9388,-3.9388,-3.9388,-3.9388,-3.9388,-3.9388,-3.8646,-3.7629,-3.718,-3.7045,-3.6956,-3.6492,-3.6686,-3.718,-3.7823,-3.8332,-3.8811,-3.929,-3.9388,-3.9388,-3.9388,-3.9388,-3.917,-3.8272,-3.7389,-3.6776,-3.6836,-3.5794,-3.4943,-3.497,0.0,0.0,0.0,-3.5297,0.0,-3.3848,-3.2626,-3.1838,-3.1734,-2.9576,0.0,0.0,0.0,0.0,0.0,0.0,0.0,0.0,0.0,0.0,-3.6288,-3.7878,-3.8452,-3.8003,-3.8467,-3.8452,-3.8018,-3.8482,-3.896,-3.9388,-3.9388,-3.9388,-3.9388,-3.9388,-3.9388,-3.9388,-3.9388,-3.9388,-3.9388,-3.9388,-3.9828,-4.0337,-3.9224,-3.9214,-3.9803,-4.2755,-4.2308,-4.1964,-4.312,-4.2776,-4.2171,-4.1512,-4.0831,-4.0666,-4.1347,-4.1422,-4.1115,-4.0472,-4.101,-4.1115,-4.0457,-4.0412,-4.0412,0.0,0.0,-3.9388,-3.9388,-3.9388,-3.9373,-3.9394,0.0,0.0,-3.7677,0.0,-3.8523,-3.9706,-4.0302,-4.0514,-4.0427,-4.1115,-4.101,-4.0397,-4.0412,-4.0397,-4.0322,-3.9664,-3.9388,-3.9388,-3.9388,-3.9388,-3.9388,-3.9388,-3.896,-3.8377,-3.8362,-3.8362,-3.8362,-3.8362,-3.8362,-3.8512,-3.9215,-3.9394,-3.9373,-3.9388,-3.9388,-3.9388,-3.9388,-3.9388,-3.9,-3.7704,-3.7404,-3.7015,-3.5759,-3.5504,-3.5102,-3.3908,0.0,0.0,0.0,-3.4745,0.0,-3.3848,-3.2626,-3.2368,-3.3532,-3.1483,0.0,0.0,0.0,0.0,0.0,0.0,0.0,-3.558,-3.5701,0.0,-3.7677,-3.8807,-3.9373,-3.9394,-3.9373,-3.9373,-3.9394,-3.9373,-3.9373,-3.9388,-3.9388,-3.9388,-3.9388,-3.9388,-3.9388,-3.9388,-3.9388,-3.9388,-3.9388,-3.9388,-3.9828,-4.0397,-4.1318,-4.1025,-4.1055,-4.244,-4.2404,-4.2254,-4.265,-4.253,-4.2006,-4.0861,-4.0531,-4.0307,-4.0068,-4.0053,-4.0142,0.0,-4.0187,-3.9963,0.0,-3.9723,-3.9723,-3.9723,-3.9493,-3.9388,-3.9388,-3.9388,-3.9388,-3.9388,0.0,0.0,0.0,-3.9289,-3.9881,-4.0201,-4.0845,-4.089,-4.0442,-4.11,-4.0995,-4.0397,-4.0397,-4.0127,-3.9709,-3.9499,-3.9388,-3.9388,-3.9388,-3.9388,-3.9388,-3.9388,-3.9275,-3.9095,-3.9095,-3.8452,-3.7719,-3.7719,-3.8033,-3.8437,-3.8661,-3.9065,-3.9388,-3.9388,-3.9388,-3.9388,-3.9388,-3.9388,-3.917,-3.8257,-3.7719,-3.715,-3.6327,-3.5804,-3.537,-3.5,-3.5267,0.0,-3.5,0.0,-3.3833,-3.2611,-3.1407,-3.1146,-3.2353,-3.1068,0.0,0.0,0.0,0.0,0.0,0.0,0.0,0.0,-3.6463,0.0,-3.7707,-3.8822,-3.9388,-3.9388,-3.9388,-3.9388,-3.9388,-3.9388,-3.9388,-3.9388,-3.9388,-3.9388,-3.9388,-3.9388,-3.9388,-3.9388,-3.9388,-3.9388,-3.9388,-3.9388,-4.0113,-4.101,-4.1587,-4.1527,-4.1504,-4.1961,-4.2036,-4.2036,-4.2036,-4.1826,-4.1324,-4.0502,-4.0187,-3.9873,-3.9433,-3.9388,0.0,-3.9993,-3.9649,-3.9388,-3.9388,-3.9388,-3.9388,-3.9388,-3.9388,-3.9388,-3.9388,-3.9388,0.0,-3.9388,-3.8692,-3.8532,-3.8917,-4.0034,-4.0456,-4.0427,-4.1085,-4.101,-4.0427,-4.0846,-4.0636,-4.0023,-4.0023,-3.9783,-3.9388,-3.9388,-3.9388,-3.9388,-3.9388,-3.9388,-3.9388,-3.9388,-3.9245,-3.908,-3.9298,-3.8661,-3.7823,-3.8093,-3.8452,-3.8781,-3.8781,-3.9095,-3.9388,-3.9388,-3.9388,-3.9388,-3.9388,-3.9388,-3.923,-3.8527,-3.7868,-3.7225,-3.6596,-3.5953,-3.5504,-3.5504,-3.5504,-3.5325,-3.4895,0.0,-3.3261,0.0,0.0,0.0,0.0,-3.2167,-3.2273,0.0,0.0,0.0,0.0,0.0,-3.4769,-3.5552,-3.7417,-3.8387,-3.8357,-3.9041,-3.9388,-3.9388,-3.9388,-3.9388,-3.9388,-3.9388,-3.9388,-3.9388,-3.9388,-3.9388,-3.9388,-3.9388,-3.9388,-3.9388,-3.9388,-3.9388,-3.9388,-3.9388,-4.0247,-4.128,-4.0382,-4.0846,-4.1265,-4.1309,-4.1347,-4.1347,-4.1347,-4.0786,-4.0382,-4.0337,-3.9798,-3.9388,-3.9388,-3.9388,-3.9388,-3.9388,0.0,0.0,-3.9388,-3.9388,-3.9388,-3.9388,-3.9388,-3.9388,-3.9388,-3.9388,-3.9388,-3.9388,-3.9433,-3.9514,-3.9574,-4.0187,-4.0472,-4.0487,-4.1055,-4.095,-4.0337,-4.0337,-3.9978,-3.9388,-3.9388,-3.9388,-3.9388,-3.9388,-3.9388,-3.9388,-3.9388,-3.9388,-3.9388,-3.9388,-3.899,-3.8571,-3.9215,-3.8975,-3.8586,-3.923,-3.9388,-3.9388,-3.9388,-3.9388,-3.9388,-3.9388,-3.9388,-3.9388,-3.9388,-3.9388,-3.923,-3.8527,-3.7868,-3.7225,-3.6596,-3.5953,-3.5504,-3.5504,-3.5429,-3.5,-3.3848,-3.3622,-3.3156,0.0,0.0,0.0,-3.3728,-3.436,-3.499,0.0,0.0,0.0,0.0,0.0,-3.5478,-3.8322,-3.8437,-3.8766,-3.9373,-3.9388,-3.9388,-3.9388,-3.9388,-3.9388,-3.9388,-3.9388,-3.9388,-3.9388,-3.9388,-3.9388,-3.9388,-3.9388,-3.9388,-3.9388,-3.9388,-3.9388,-3.9388,-3.9388,-4.0247,-4.1294,0.0,0.0,-4.0038,-4.0546,-4.0636,-4.0636,-4.0636,-4.0502,-4.0217,-3.9709,-3.9514,-3.9388,-3.9388,-3.9388,-3.9388,-3.9388,-3.9388,-3.9388,-3.9388,-3.9388,-3.9388,-3.9388,-3.9388,-3.9388,-3.9388,-3.9388,-3.9388,-3.9388,-3.9918,-4.0427,-4.092,-4.107,-4.1145,-4.113,-4.0786,-4.0262,-3.9649,-3.9649,-3.9574,-3.9388,-3.9388,-3.9388,-3.9388,-3.9388,-3.9388,-3.9388,-3.9388,-3.9388,-3.9388,-3.9388,-3.9269,-3.92,-3.9364,-3.9305,-3.9215,-3.9328,-3.9388,-3.9388,-3.9388,-3.9388,-3.9388,-3.9388,-3.9388,-3.9388,-3.9388,-3.9388,-3.923,-3.8527,-3.7868,-3.7225,-3.6596,-3.5953,-3.5504,-3.5504,-3.4746,-3.4028,-3.3743,-3.2899,-3.2231,0.0,-3.2487,-3.329,-3.4361,-3.5083,-3.5503,0.0,0.0,-3.6661,-3.6661,-3.6758,-3.7278,-3.8382,-3.8901,-3.926,-3.9388,-3.9388,-3.9388,-3.9388,-3.9388,-3.9388,-3.9388,-3.9388,-3.9388,-3.9388,-3.9388,-3.9388,-3.9388,-3.9388,-3.9388,-3.9388,-3.9388,-3.9388,-3.9388,-3.9388,-4.0247,-4.1392,-3.9888,-3.9664,-3.9493,-3.9888,-3.9948,-3.9948,-3.9948,-3.9948,-3.9828,-3.9433,-3.9388,-3.9388,-3.9388,-3.9388,-3.9388,-3.9388,-3.9388,-3.9388,-3.9388,-3.9388,-3.9388,-3.9388,-3.9388,-3.9388,-3.9388,-3.9388,-3.9388,-3.9388,-3.9768,-4.0127,-4.0487,-4.0487,-4.0487,-4.0472,-4.0113,-3.9753,-3.9388,-3.9388,-3.9388,-3.9388,-3.9388,-3.9388,-3.9388,-3.9388,-3.9388,-3.9388,-3.9388,-3.9388,-3.9388,-3.9388,-3.9388,-3.9388,-3.9388,-3.9388,-3.9388,-3.9388,-3.9388,-3.9388,-3.9388,-3.9388,-3.9388,-3.9388,-3.9388,-3.9388,-3.9388,-3.9388,-3.932,-3.8931,-3.8317,-3.7659,-3.703,-3.6387,-3.5863,-3.5549,-3.4731,-3.4044,-3.3743,-3.2913,-3.2549,-3.311,-3.3774,-3.4633,-3.5829,-3.655,-3.682,-3.652,-3.7106,0.0,-3.7481,-3.8112,-3.8602,-3.8856,-3.9514,-3.9723,-3.9388,-3.9388,-3.9574,-3.9873,-3.9873,-4.0023,-4.0307,-4.0008,-3.9873,-3.9843,-3.9508,-3.9388,-3.9388,-3.9388,-3.9388,-3.9388,-3.9388,-3.9388,-3.9454,-3.9753,-4.0502,-4.1422,-3.9388,-3.9388,-3.9388,-3.9388,-3.9388,-3.9388,-3.9388,-3.9388,-3.9388,-3.9388,-3.9388,-3.9388,-3.9388,-3.9388,-3.9388,-3.9388,-3.9388,-3.9388,-3.9388,-3.9388,-3.9388,-3.9388,-3.9388,-3.9388,-3.9388,-3.9388,-3.9388,-3.9388,-3.9388,-3.9433,-3.9574,-3.9433,-3.9433,-3.9574,-3.9433,-3.9388,-3.9388,-3.9388,-3.9388,-3.9388,-3.9388,-3.9388,-3.9388,-3.9388,-3.9388,-3.9388,-3.9388,-3.9388,-3.9388,-3.9388,-3.9388,-3.9388,-3.9388,-3.9388,-3.9388,-3.9388,-3.9388,-3.9388,-3.9388,-3.9388,-3.9388,-3.9388,-3.9388,-3.9388,-3.9388,-3.9388,-3.9388,-3.9388,-3.8871,-3.8227,-3.7659,-3.7045,-3.6372,-3.5511,-3.4941,-3.4361,-3.3681,0.0,-3.3517,-3.4707,-3.5578,-3.6475,-3.7449,-3.8153,-3.8317,-3.7749,-3.8227,-3.8542,-3.8542,-3.92,-3.9574,-3.9574,-4.0113,-4.0187,-3.9723,-3.9709,-3.9993,-4.0546,-4.0546,-4.0846,-4.1392,-4.0696,-4.0397,-4.0367,-3.9709,-3.9388,-3.9388,-3.9493,-3.9514,-3.9388,-3.9493,-3.9574,-3.9634,-4.0187,-4.0876,-4.1572,-3.9388,-3.9388,-3.9388,-3.9388,-3.9388,-3.9388,-3.9388,-3.9388,-3.9388,-3.9388,-3.9388,-3.9388,-3.9388,-3.9388,-3.9388,-3.9388,-3.9388,-3.9388,-3.9388,-3.9388,-3.9388,-3.9388,-3.9388,-3.9388,-3.9388,-3.9388,-3.9388,-3.9388,-3.9388,-3.9709,-4.0232,-3.9679,-3.9709,-4.0232,-3.9664,-3.9388,-3.9388,-3.9388,-3.9388,-3.9388,-3.9388,-3.9388,-3.9388,-3.9388,-3.9388,-3.9388,-3.9388,-3.9388,-3.9388,-3.9388,-3.9388,-3.9388,-3.9388,-3.9388,-3.9388,-3.9388,-3.9388,-3.9388,-3.9388,-3.9388,-3.9388,-3.9388,-3.9388,-3.9388,-3.9388,-3.9388,-3.9388,-3.9388,-3.8871,-3.8362,-3.8257,-3.7704,-3.6716,-3.5082,-3.4381,-3.3818,-3.3206,0.0,-3.4197,-3.5384,-3.6967,-3.8053,-3.8227,-3.8856,-3.9179,-3.911,-3.92,-3.926,-3.926,-3.9888,-4.0247,-4.0247,-4.0352,-4.0621,-4.107,-4.107,-4.113,-4.1235,-4.1235,-4.128,-4.1392,-4.0696,-4.0397,-4.0367,-3.9709,-3.9388,-3.9433,-4.0023,-3.9918,-3.9448,-4.0023,-4.0247,-4.0262,-4.0367,-4.1175,-4.2246,-3.9388,-3.9388,-3.9388,-3.9388,-3.9388,-3.9388,-3.9388,-3.9388,-3.9388,-3.9388,-3.9388,-3.9388,-3.9388,-3.9388,-3.9388,-3.9388,-3.9388,-3.9388,-3.9388,-3.9388,-3.9388,-3.9388,-3.9388,-3.9388,-3.9388,-3.9388,-3.9388,-3.9388,-3.9388,-3.9574,-3.9858,-3.9523,-3.9589,-3.9858,-3.9559,-3.9388,-3.9388,-3.9388,-3.9388,-3.9388,-3.9388,-3.9388,-3.9388,-3.9388,-3.9388,-3.9388,-3.9388,-3.9388,-3.9388,-3.9388,-3.9388,-3.9388,-3.9388,-3.9388,-3.9388,-3.9388,-3.9388,-3.9388,-3.9388,-3.9388,-3.9388,-3.9388,-3.9388,-3.9388,-3.9388,-3.9388,-3.9388,-3.9388,-3.917,-3.8841,-3.8467,-3.8138,-3.7203,-3.4955,-3.5058,-3.5015,-3.395,-3.4718,-3.5838,-3.703,-3.7873,-3.8542,-3.8901,-3.923,-3.9388,-3.9388,-3.9753,-3.9948,-3.9948,-4.0561,-4.1085,-4.1482,-4.1115,-4.125,-4.1946,-4.1587,-4.1602,-4.1946,-4.1946,-4.2087,-4.2417,-4.1758,-4.1497,-4.1399,-4.0382,-4.0142,-4.0442,-4.0038,-4.0113,-4.0442,-4.0023,-4.0307,-4.0935,-4.0935,-4.1572,-4.2455,-3.9388,-3.9388,-3.9388,-3.9388,-3.9388,-3.9388,-3.9388,-3.9388,-3.9388,-3.9388,-3.9388,-3.9388,-3.9388,-3.9388,-3.9388,-3.9388,-3.9388,-3.9388,-3.9388,-3.9388,-3.9388,-3.9388,-3.9388,-3.9388,-3.9388,-3.9388,-3.9388,-3.9388,-3.9388,-3.9388,-3.9388,-3.9388,-3.9388,-3.9388,-3.9388,-3.9388,-3.9388,-3.9388,-3.9388,-3.9388,-3.9388,-3.9388,-3.9388,-3.9388,-3.9388,-3.9388,-3.9388,-3.9388,-3.9388,-3.9388,-3.9388,-3.9388,-3.9388,-3.9388,-3.9388,-3.9388,-3.9388,-3.9388,-3.9388,-3.9388,-3.9388,-3.9388,-3.9388,-3.9388,-3.9388,-3.9388,-3.9388,-3.9388,-3.9388,-3.926,-3.8721,-3.8631,-3.7858,-3.5419,0.0,-3.6492,-3.52,-3.6108,-3.7368,-3.8517,-3.8631,-3.8841,-3.9328,-3.9388,-3.9388,-3.9388,-4.0023,-4.0337,-4.0187,-4.1085,-4.1946,-4.2605,-4.2102,-4.2073,-4.2581,-4.2087,-4.2087,-4.262,-4.262,-4.2851,-4.3275,-4.2671,-4.2396,-4.2336,-4.113,-4.0905,-4.1309,-4.0457,-4.0606,-4.1294,-4.0442,-4.0726,-4.1647,-4.1647,-4.2066,-4.2671,-3.9388,-3.9388,-3.9388,-3.9388,-3.9388,-3.9388,-3.9388,-3.9388,-3.9388,-3.9388,-3.9388,-3.9388,-3.9388,-3.9388,-3.9388,-3.9388,-3.9388,-3.9388,-3.9388,-3.9388,-3.9388,-3.9388,-3.9388,-3.9388,-3.9388,-3.9388,-3.9388,-3.9388,-3.9388,-3.9388,-3.9388,-3.9388,-3.9388,-3.9388,-3.9388,-3.9388,-3.9388,-3.9388,-3.9388,-3.9388,-3.9388,-3.9388,-3.9388,-3.9388,-3.9388,-3.9388,-3.9388,-3.9388,-3.9388,-3.9388,-3.9388,-3.9388,-3.9388,-3.9388,-3.9388,-3.9388,-3.9388,-3.9388,-3.9388,-3.9388,-3.9388,-3.9388,-3.9388,-3.9388,-3.9388,-3.9388,-3.9388,-3.9388,-3.9388,-3.9373,-3.9349,-3.9349,-3.8707,-3.6855,0.0,0.0,-3.6649,-3.7178,-3.806,-3.9185,-3.9349,-3.9364,-3.9388,-3.9388,-3.9388,-3.9388,-4.0023,-4.0127,-3.9493,-4.1265,-4.2596,-4.32,-4.3185,-4.317,-4.3215,-4.317,-4.317,-4.3215,-4.3215,-4.3245,-4.3275,-4.2671,-4.2396,-4.2366,-4.1647,-4.1324,-4.1452,-4.1976,-4.1886,-4.1467,-4.1976,-4.2246,-4.2336,-4.2336,-4.2701,-4.323,-3.9388,-3.9388,-3.9388,-3.9388,-3.9388,-3.9388,-3.9388,-3.9388,-3.9388,-3.9388,-3.9388,-3.9388,-3.9388,-3.9388,-3.9388,-3.9388,-3.9388,-3.9388,-3.9388,-3.9388,-3.9388,-3.9388,-3.9388,-3.9388,-3.9388,-3.9388,-3.9388,-3.9388,-3.9388,-3.9388,-3.9388,-3.9388,-3.9388,-3.9388,-3.9388,-3.9388,-3.9388,-3.9388,-3.9388,-3.9388,-3.9388,-3.9388,-3.9388,-3.9388,-3.9388,-3.9388,-3.9388,-3.9388,-3.9388,-3.9388,-3.9388,-3.9388,-3.9388,-3.9388,-3.9388,-3.9388,-3.9388,-3.9388,-3.9388,-3.9388,-3.9388,-3.9388,-3.9388,-3.9388,-3.9388,-3.9388,-3.9388,-3.9388,-3.9388,-3.9388,-3.9388,-3.9388,-3.8782,-3.6816,0.0,-3.8221,-3.6714,-3.7792,-3.8927,-3.9364,-3.9388,-3.9388,-3.9388,-3.9783,-4.0023,-4.0023,-4.101,-4.1542,-4.125,-4.2342,-4.3075,-4.329,-4.329,-4.329,-4.329,-4.329,-4.329,-4.329,-4.329,-4.329,-4.329,-4.3075,-4.297,-4.2925,-4.2267,-4.2222,-4.2551,-4.1983,-4.2087,-4.2536,-4.1968,-4.2252,-4.291,-4.2545,-4.2776,-4.329,-3.9388,-3.9388,-3.9388,-3.9388,-3.9388,-3.9388,-3.9388,-3.9388,-3.9388,-3.9388,-3.9388,-3.9388,-3.9388,-3.9388,-3.9388,-3.9388,-3.9388,-3.9388,-3.9388,-3.9388,-3.9388,-3.9388,-3.9388,-3.9388,-3.9388,-3.9388,-3.9388,-3.9388,-3.9388,-3.9388,-3.9388,-3.9388,-3.9388,-3.9388,-3.9388,-3.9388,-3.9388,-3.9388,-3.9388,-3.9388,-3.9388,-3.9388,-3.9388,-3.9388,-3.9388,-3.9388,-3.9388,-3.9388,-3.9388,-3.9388,-3.9388,-3.9388,-3.9388,-3.9388,-3.9388,-3.9388,-3.9388,-3.9388,-3.9388,-3.9388,-3.9388,-3.9388,-3.9388,-3.9388,-3.9388,-3.9388,-3.9388,-3.9388,-3.9388,-3.9388,-3.9388,-3.9388,-3.8952,-3.7573,-3.851,-3.8975,-3.7824,-3.8822,-3.9798,-4.0008,-4.0038,-4.0038,-4.0038,-4.0442,-4.0711,-4.0711,-4.1767,-4.2485,-4.2656,-4.2895,-4.312,-4.329,-4.329,-4.329,-4.329,-4.329,-4.329,-4.329,-4.329,-4.329,-4.329,-4.329,-4.329,-4.3275,-4.2865,-4.2925,-4.323,-4.2372,-4.2521,-4.32,-4.2342,-4.2536,-4.3245,-4.2836,-4.294,-4.329,-3.9388,-3.9388,-3.9388,-3.9388,-3.9388,-3.9388,-3.9388,-3.9388,-3.9388,-3.9388,-3.9388,-3.9388,-3.9388,-3.9388,-3.9388,-3.9388,-3.9388,-3.9388,-3.9388,-3.9388,-3.9388,-3.9388,-3.9388,-3.9388,-3.9388,-3.9388,-3.9388,-3.9388,-3.9388,-3.9388,-3.9388,-3.9388,-3.9388,-3.9388,-3.9388,-3.9388,-3.9388,-3.9388,-3.9388,-3.9388,-3.9388,-3.9388,-3.9388,-3.9388,-3.9388,-3.9388,-3.9388,-3.9388,-3.9388,-3.9388,-3.9388,-3.9388,-3.9388,-3.9388,-3.9388,-3.9388,-3.9388,-3.9388,-3.9388,-3.9388,-3.9388,-3.9388,-3.9388,-3.9388,-3.9388,-3.9388,-3.9388,-3.9388,-3.9388,-3.9439,-3.9439,-3.9439,-3.9439,-3.9439,-3.9439,-3.9664,-4.0307,-4.0412,-4.0651,-4.1309,-4.1422,-4.1422,-4.1422,-4.1422,-4.1384,-4.1384,-4.2036,-4.2656,-4.326,-4.2716,-4.2671,-4.3275,-4.329,-4.329,-4.329,-4.329,-4.329,-4.329,-4.329,-4.329,-4.329,-4.3305,-4.3305,-4.3305,-4.3305,-4.3305,-4.3305,-4.329,-4.329,-4.3305,-4.329,-4.329,-4.329,-4.329,-4.329,-4.329,-3.9388,-3.9388,-3.9388,-3.9388,-3.9388,-3.9388,-3.9388,-3.9388,-3.9388,-3.9388,-3.9388,-3.9388,-3.9388,-3.9388,-3.9388,-3.9388,-3.9388,-3.9388,-3.9388,-3.9388,-3.9388,-3.9388,-3.9388,-3.9388,-3.9388,-3.9388,-3.9388,-3.9388,-3.9388,-3.9388,-3.9388,-3.9388,-3.9388,-3.9388,-3.9388,-3.9388,-3.9388,-3.9388,-3.9388,-3.9388,-3.9388,-3.9388,-3.9388,-3.9388,-3.9388,-3.9388,-3.9388,-3.9388,-3.9388,-3.9388,-3.9388,-3.9388,-3.9388,-3.9388,-3.9388,-3.9388,-3.9753,-4.0113,-4.0113,-4.0442,-4.0576,-3.9649,-3.9768,-3.9993,-3.9493,-4.0127,-4.0666,-4.0202,-4.0472,-4.0786,-4.0786,-4.0786,-4.0786,-4.0786,-4.0786,-4.0861,-4.1055,-4.1085,-4.116,-4.1392,-4.1422,-4.1422,-4.1422,-4.1841,-4.2111,-4.2111,-4.2671,-4.3135,-4.329,-4.315,-4.3135,-4.329,-4.329,-4.329,-4.329,-4.329,-4.329,-4.329,-4.329,-4.329,-4.3305,-4.3768,-4.4018,-4.4018,-4.4018,-4.4287,-4.4631,-4.3678,-4.3559,-4.3932,-4.3469,-4.329,-4.329,-4.329,-4.329,-4.329,-3.9388,-3.9388,-3.9388,-3.9388,-3.9388,-3.9388,-3.9388,-3.9388,-3.9388,-3.9388,-3.9388,-3.9388,-3.9388,-3.9388,-3.9388,-3.9388,-3.9388,-3.9388,-3.9388,-3.9388,-3.9388,-3.9388,-3.9388,-3.9388,-3.9388,-3.9388,-3.9388,-3.9388,-3.9388,-3.9388,-3.9388,-3.9388,-3.9388,-3.9388,-3.9388,-3.9388,-3.9388,-3.9388,-3.9388,-3.9388,-3.9388,-3.9388,-3.9388,-3.9388,-3.9388,-3.9388,-3.9388,-3.9388,-3.9388,-3.9388,-3.9388,-3.9388,-3.9388,-3.9388,-3.9388,-3.9388,-3.9888,-4.0397,-4.0397,-4.0876,-4.1227,-4.0382,-4.0307,-4.0367,-4.0232,-4.0606,-4.095,-4.0816,-4.11,-4.1422,-4.1422,-4.1422,-4.1422,-4.1422,-4.1422,-4.1512,-4.1767,-4.1811,-4.1901,-4.2117,-4.2147,-4.2147,-4.2147,-4.2521,-4.2746,-4.2746,-4.3599,-4.3843,-4.3319,-4.3783,-4.3947,-4.3678,-4.3932,-4.4107,-4.4107,-4.4107,-4.3947,-4.3678,-4.3678,-4.3813,-4.4122,-4.4526,-4.4706,-4.4706,-4.4706,-4.493,-4.5229,-4.4436,-4.4182,-4.4272,-4.3828,-4.3678,-4.3648,-4.3394,-4.3454,-4.3648,-3.9388,-3.9388,-3.9388,-3.9388,-3.9388,-3.9388,-3.9388,-3.9388,-3.9388,-3.9388,-3.9388,-3.9388,-3.9388,-3.9388,-3.9388,-3.9388,-3.9388,-3.9388,-3.9388,-3.9388,-3.9388,-3.9388,-3.9388,-3.9388,-3.9388,-3.9388,-3.9388,-3.9388,-3.9388,-3.9388,-3.9388,-3.9388,-3.9388,-3.9388,-3.9388,-3.9388,-3.9388,-3.9388,-3.9388,-3.9388,-3.9388,-3.9388,-3.9388,-3.9388,-3.9388,-3.9388,-3.9388,-3.9388,-3.9388,-3.9388,-3.9388,-3.9388,-3.9388,-3.9388,-3.9388,-3.9388,-3.9933,-4.0487,-4.0487,-4.101,-4.1549,-4.1549,-4.1055,-4.0711,-4.125,-4.101,-4.0778,-4.1279,-4.1526,-4.1624,-4.1488,-4.1479,-4.1547,-4.1564,-4.1511,-4.1682,-4.2396,-4.2485,-4.2671,-4.3215,-4.329,-4.329,-4.329,-4.3349,-4.3409,-4.3469,-4.4616,-4.4766,-4.3529,-4.4646,-4.502,-4.4421,-4.499,-4.5289,-4.5289,-4.5289,-4.499,-4.4407,-4.4407,-4.4721,-4.5289,-4.5364,-4.5394,-4.5394,-4.5394,-4.5424,-4.5469,-4.5349,-4.4945,-4.4392,-4.4332,-4.4272,-4.4152,-4.3514,-4.3678,-4.4137,-3.9388,-3.9388,-3.9388,-3.9388,-3.9388,-3.9388,-3.9388,-3.9388,-3.9388,-3.9388,-3.9388,-3.9388,-3.9388,-3.9388,-3.9388,-3.9388,-3.9388,-3.9388,-3.9388,-3.9388,-3.9388,-3.9388,-3.9388,-3.9388,-3.9388,-3.9388,-3.9388,-3.9388,-3.9388,-3.9388,-3.9388,-3.9388,-3.9388,-3.9388,-3.9388,-3.9388,-3.9388,-3.9388,-3.9388,-3.9388,-3.9388,-3.9388,-3.9388,-3.9388,-3.9388,-3.9388,-3.9388,-3.9388,-3.9388,-3.9388,-3.9388,-3.9388,-3.9388,-3.9388,-3.9388,-3.9388,-4.0247,-4.1175,-4.1175,-4.2028,-4.2871,-4.2871,-4.2417,-4.1871,-4.1512,-4.2058,-4.2386,-4.1316,-4.2465,-4.3309,-4.2093,-4.2278,-4.2713,-4.2867,-4.2326,-4.217,-4.2971,-4.312,-4.3125,-4.3275,-4.329,-4.329,-4.329,-4.3768,-4.4317,-4.4825,-4.514,-4.517,-4.4885,-4.514,-4.5229,-4.5095,-4.5214,-4.5289,-4.5289,-4.5289,-4.5229,-4.508,-4.508,-4.5155,-4.5319,-4.5858,-4.6097,-4.6097,-4.6097,-4.6396,-4.6785,-4.5723,-4.5214,-4.5035,-4.4511,-4.4003,-4.3484,-4.3349,-4.3379,-4.3484,-3.9388,-3.9388,-3.9388,-3.9388,-3.9388,-3.9388,-3.9388,-3.9388,-3.9388,-3.9388,-3.9388,-3.9388,-3.9388,-3.9388,-3.9388,-3.9388,-3.9388,-3.9388,-3.9388,-3.9388,-3.9388,-3.9388,-3.9388,-3.9388,-3.9388,-3.9388,-3.9388,-3.9388,-3.9388,-3.9388,-3.9388,-3.9388,-3.9388,-3.9388,-3.9388,-3.9388,-3.9388,-3.9388,-3.9388,-3.9388,-3.9388,-3.9388,-3.9388,-3.9388,-3.9388,-3.9388,-3.9388,-3.9388,-3.9388,-3.9388,-3.9388,-3.9388,-3.9388,-3.9388,-3.9361,-3.9239,-4.0263,-4.1368,-4.1228,-4.2238,-4.329,-4.329,-4.3314,-4.3041,-4.1922,-4.2505,-4.3036,-4.2167,-4.3452,-4.4553,-4.3729,-4.3853,-4.4152,-4.4236,-4.389,-4.3752,-4.4176,-4.4272,-4.4272,-4.4272,-4.4272,-4.4054,-4.3587,-4.4162,-4.456,-4.459,-4.562,-4.5963,-4.5334,-4.5903,-4.6112,-4.5798,-4.6097,-4.6247,-4.6247,-4.6247,-4.6247,-4.6247,-4.5933,-4.5948,-4.6262,-4.6636,-4.68,-4.68,-4.68,-4.6995,-4.7249,-4.6546,-4.6067,-4.5723,-4.505,-4.4571,-4.4197,-4.3529,-4.329,-4.329,-3.9388,-3.9388,-3.9388,-3.9388,-3.9388,-3.9388,-3.9388,-3.9388,-3.9388,-3.9388,-3.9388,-3.9388,-3.9388,-3.9388,-3.9388,-3.9388,-3.9388,-3.9388,-3.9388,-3.9388,-3.9388,-3.9388,-3.9388,-3.9388,-3.9388,-3.9388,-3.9388,-3.9388,-3.9388,-3.9388,-3.9388,-3.9388,-3.9388,-3.9388,-3.9388,-3.9388,-3.9388,-3.9388,-3.9388,-3.9388,-3.9388,-3.9388,-3.9388,-3.9228,-3.9192,-3.9192,-3.9192,-3.9265,-3.9439,-3.9508,-3.9553,-3.9604,-3.9723,-3.9629,-3.9461,-3.9232,-4.009,-4.11,-4.1022,-4.2085,-4.3294,-4.3414,-4.3947,-4.4072,-4.2634,-4.2998,-4.3567,-4.3202,-4.4394,-4.5341,-4.4914,-4.4904,-4.4976,-4.504,-4.4899,-4.4857,-4.5025,-4.5025,-4.4983,-4.48,-4.4941,-4.4818,-4.4267,-4.4705,-4.4894,-4.4428,-4.6221,-4.673,-4.5469,-4.6595,-4.6867,-4.6,-4.6649,-4.6975,-4.6785,-4.6785,-4.6785,-4.6785,-4.6237,-4.6455,-4.7309,-4.7309,-4.7309,-4.7309,-4.7309,-4.7309,-4.7309,-4.7309,-4.692,-4.6204,-4.5559,-4.5229,-4.4975,-4.3738,-4.3364,-4.3469,-3.9388,-3.9388,-3.9388,-3.9388,-3.9388,-3.9388,-3.9388,-3.9388,-3.9388,-3.9388,-3.9388,-3.9388,-3.9388,-3.9388,-3.9388,-3.9388,-3.9388,-3.9388,-3.9388,-3.9388,-3.9388,-3.9388,-3.9388,-3.9388,-3.9388,-3.9388,-3.9388,-3.9388,-3.9388,-3.9388,-3.9388,-3.9388,-3.9388,-3.9388,-3.9388,-3.9388,-3.9388,-3.9388,-3.9388,-3.9388,-3.9388,-3.9388,-3.9301,-3.8627,-3.8352,-3.8352,-3.8352,-3.8811,-3.9514,-4.0083,-4.0262,-4.0367,-4.0935,-4.0577,-3.993,-3.9886,-3.9845,-3.9992,-4.0802,-4.2,-4.3236,-4.3964,-4.4676,-4.4918,-4.3872,-4.4352,-4.4787,-4.396,-4.5058,-4.5511,-4.3281,-4.3284,-4.3737,-4.3964,-4.3356,-4.3137,-4.3892,-4.4006,-4.369,-4.283,-4.3459,-4.4512,-4.5815,-4.6034,-4.6288,-4.6764,-4.7103,-4.6842,-4.5814,-4.6725,-4.6462,-4.4617,-4.551,-4.5598,-4.473,-4.473,-4.473,-4.4684,-4.4599,-4.5541,-4.7309,-4.7309,-4.7309,-4.7309,-4.7309,-4.7309,-4.7309,-4.7309,-4.692,-4.6204,-4.5559,-4.4945,-4.4347,-4.3559,-4.3648,-4.4182,-3.9388,-3.9388,-3.9388,-3.9388,-3.9388,-3.9388,-3.9388,-3.9388,-3.9388,-3.9388,-3.9388,-3.9388,-3.9388,-3.9388,-3.9388,-3.9388,-3.9388,-3.9388,-3.9388,-3.9388,-3.9388,-3.9388,-3.9388,-3.9388,-3.9388,-3.9388,-3.9388,-3.9388,-3.9388,-3.9388,-3.9388,-3.9388,-3.9388,-3.9388,-3.9388,-3.9388,-3.9388,-3.9388,-3.9388,-3.9388,-3.9388,-3.9119,-3.8701,-3.8352,-3.791,-3.7539,-3.8037,-3.8427,-3.8826,-3.9421,-3.9323,-3.9025,-3.9661,-3.953,-3.9185,-3.9088,-3.9687,-4.0439,-4.0698,-4.2223,-4.3797,-4.418,-4.465,-4.4906,-4.4487,-4.4588,-4.4511,-4.3783,-4.4908,-4.5522,-4.3828,-4.3708,-4.3931,-4.4086,-4.3771,-4.3635,-4.4044,-4.4089,-4.412,-4.424,-4.4657,-4.52,-4.5947,-4.552,-4.5324,-4.5598,-4.5613,-4.5432,-4.5007,-4.5366,-4.5219,-4.4326,-4.4755,-4.4767,-4.4297,-4.4317,-4.4293,-4.428,-4.428,-4.4761,-4.5613,-4.5635,-4.5622,-4.5607,-4.5638,-4.5628,-4.566,-4.6254,-4.6285,-4.6005,-4.59,-4.5454,-4.4825,-4.4541,-4.4601,-4.487]},{"header":{"parameterUnit":"m.s-1","parameterCategory":1,"la1":30.6,"la2":28.766,"lo1":-90.7593,"lo2":-88.6598,"dy":0.0162,"dx":0.0183,"nx":116,"ny":114,"refTime":"2023-04-04T06:00:00:Z","depth":0,"parameterNumber":3,"parameterNumberName":"V-component_of_WINDS"},"data":[0.0,0.0,0.0,0.0,0.0,0.0,0.0,0.0,0.0,0.0,0.0,0.0,0.0,0.0,0.0,0.0,0.0,0.0,0.0,0.0,0.0,0.0,0.0,0.0,0.0,0.0,0.0,0.0,0.0,0.0,0.0,0.0,0.0,0.0,0.0,0.0,0.0,0.0,0.0,0.0,0.0,0.0,0.0,0.0,0.0,0.0,0.0,0.0,0.0,0.0,0.0,0.0,0.0,0.0,0.0,0.0,0.0,0.0,0.0,0.0,0.0,0.0,0.0,0.0,0.0,0.0,0.0,0.0,0.0,0.0,0.0,0.0,0.0,0.0,0.0,0.0,0.0,0.0,0.0,0.0,0.0,0.0,0.0,0.0,0.0,0.0,0.0,0.0,0.0,0.0,0.0,0.0,0.0,0.0,0.0,0.0,0.0,0.0,0.0,0.0,0.0,0.0,0.0,0.0,0.0,0.0,0.0,0.0,0.0,0.0,0.0,0.0,0.0,0.0,0.0,0.0,0.0,0.0,0.0,0.0,0.0,0.0,0.0,0.0,0.0,0.0,0.0,0.0,0.0,0.0,0.0,0.0,0.0,0.0,0.0,0.0,0.0,0.0,0.0,0.0,0.0,0.0,0.0,0.0,0.0,0.0,0.0,0.0,0.0,0.0,0.0,0.0,0.0,0.0,0.0,0.0,0.0,0.0,0.0,0.0,0.0,0.0,0.0,0.0,0.0,0.0,0.0,0.0,0.0,0.0,0.0,0.0,0.0,0.0,0.0,0.0,0.0,0.0,0.0,0.0,0.0,0.0,0.0,0.0,0.0,0.0,0.0,0.0,0.0,0.0,0.0,0.0,0.0,0.0,0.0,0.0,0.0,0.0,0.0,0.0,0.0,0.0,0.0,0.0,0.0,0.0,0.0,0.0,0.0,0.0,0.0,0.0,0.0,0.0,0.0,0.0,0.0,0.0,0.0,0.0,0.0,0.0,0.0,0.0,0.0,0.0,0.0,0.0,0.0,0.0,0.0,0.0,0.0,0.0,0.0,0.0,0.0,0.0,0.0,0.0,0.0,0.0,0.0,0.0,0.0,0.0,0.0,0.0,0.0,0.0,0.0,0.0,0.0,0.0,0.0,0.0,0.0,0.0,0.0,0.0,0.0,0.0,0.0,0.0,0.0,0.0,0.0,0.0,0.0,0.0,0.0,0.0,0.0,0.0,0.0,0.0,0.0,0.0,0.0,0.0,0.0,0.0,0.0,0.0,0.0,0.0,0.0,0.0,0.0,0.0,0.0,0.0,0.0,0.0,0.0,0.0,0.0,0.0,0.0,0.0,0.0,0.0,0.0,0.0,0.0,0.0,0.0,0.0,0.0,0.0,0.0,0.0,0.0,0.0,0.0,0.0,0.0,0.0,0.0,0.0,0.0,0.0,0.0,0.0,0.0,0.0,0.0,0.0,0.0,0.0,0.0,0.0,0.0,0.0,0.0,0.0,0.0,0.0,0.0,0.0,0.0,0.0,0.0,0.0,0.0,0.0,0.0,0.0,0.0,0.0,0.0,0.0,0.0,0.0,0.0,0.0,0.0,0.0,0.0,0.0,0.0,0.0,0.0,0.0,0.0,0.0,0.0,0.0,0.0,0.0,0.0,0.0,0.0,0.0,0.0,0.0,0.0,0.0,0.0,0.0,0.0,0.0,0.0,0.0,0.0,0.0,0.0,0.0,0.0,0.0,0.0,0.0,0.0,0.0,0.0,0.0,0.0,0.0,0.0,0.0,0.0,0.0,0.0,0.0,0.0,0.0,0.0,0.0,0.0,0.0,0.0,0.0,0.0,0.0,0.0,0.0,0.0,0.0,0.0,0.0,0.0,0.0,0.0,0.0,0.0,0.0,0.0,0.0,0.0,0.0,0.0,0.0,0.0,0.0,0.0,0.0,0.0,0.0,0.0,0.0,0.0,0.0,0.0,0.0,0.0,0.0,0.0,0.0,0.0,0.0,0.0,0.0,0.0,0.0,0.0,0.0,0.0,0.0,0.0,0.0,0.0,0.0,0.0,0.0,0.0,0.0,0.0,0.0,0.0,0.0,0.0,0.0,0.0,0.0,0.0,0.0,0.0,0.0,0.0,0.0,0.0,0.0,0.0,0.0,0.0,0.0,0.0,0.0,0.0,0.0,0.0,0.0,0.0,0.0,0.0,0.0,0.0,0.0,0.0,0.0,0.0,0.0,0.0,0.0,0.0,0.0,0.0,0.0,0.0,0.0,0.0,0.0,0.0,0.0,0.0,0.0,0.0,0.0,0.0,0.0,0.0,0.0,0.0,0.0,0.0,0.0,0.0,0.0,0.0,0.0,0.0,0.0,0.0,0.0,0.0,0.0,0.0,0.0,0.0,0.0,0.0,0.0,0.0,0.0,0.0,0.0,0.0,0.0,0.0,0.0,0.0,0.0,0.0,0.0,0.0,0.0,0.0,0.0,0.0,0.0,0.0,0.0,0.0,0.0,0.0,0.0,0.0,0.0,0.0,0.0,0.0,0.0,0.0,0.0,0.0,0.0,0.0,0.0,0.0,0.0,0.0,0.0,0.0,0.0,0.0,0.0,0.0,0.0,0.0,0.0,0.0,0.0,0.0,0.0,0.0,0.0,0.0,0.0,0.0,0.0,0.0,0.0,0.0,0.0,0.0,0.0,0.0,0.0,0.0,0.0,0.0,0.0,0.0,0.0,0.0,0.0,0.0,0.0,0.0,0.0,0.0,0.0,0.0,0.0,0.0,0.0,0.0,0.0,0.0,0.0,0.0,0.0,0.0,0.0,0.0,0.0,0.0,0.0,0.0,0.0,0.0,0.0,0.0,0.0,0.0,0.0,0.0,0.0,0.0,0.0,0.0,0.0,0.0,0.0,0.0,0.0,0.0,0.0,0.0,0.0,0.0,0.0,0.0,0.0,0.0,0.0,0.0,0.0,0.0,0.0,0.0,0.0,0.0,0.0,0.0,0.0,0.0,0.0,0.0,0.0,0.0,0.0,0.0,0.0,0.0,0.0,0.0,0.0,0.0,0.0,0.0,0.0,0.0,0.0,0.0,0.0,0.0,0.0,0.0,0.0,0.0,0.0,0.0,0.0,0.0,0.0,0.0,0.0,0.0,0.0,0.0,0.0,0.0,0.0,0.0,0.0,0.0,0.0,0.0,0.0,0.0,0.0,0.0,0.0,0.0,0.0,0.0,0.0,0.0,0.0,0.0,0.0,0.0,0.0,0.0,0.0,0.0,0.0,0.0,0.0,0.0,0.0,0.0,0.0,0.0,0.0,0.0,0.0,0.0,0.0,0.0,0.0,0.0,0.0,0.0,0.0,0.0,0.0,0.0,0.0,0.0,0.0,0.0,0.0,0.0,0.0,0.0,0.0,0.0,0.0,0.0,0.0,0.0,0.0,0.0,0.0,0.0,0.0,0.0,0.0,0.0,0.0,0.0,0.0,0.0,0.0,0.0,0.0,0.0,0.0,0.0,0.0,0.0,0.0,0.0,0.0,0.0,0.0,0.0,0.0,0.0,0.0,0.0,0.0,0.0,0.0,0.0,0.0,0.0,0.0,0.0,0.0,0.0,0.0,0.0,0.0,0.0,0.0,0.0,0.0,0.0,0.0,0.0,0.0,0.0,0.0,0.0,0.0,0.0,0.0,0.0,0.0,0.0,0.0,0.0,0.0,0.0,0.0,0.0,0.0,0.0,0.0,0.0,0.0,0.0,0.0,0.0,0.0,0.0,0.0,0.0,0.0,0.0,0.0,0.0,0.0,0.0,0.0,0.0,0.0,0.0,0.0,0.0,0.0,0.0,0.0,0.0,0.0,0.0,0.0,0.0,0.0,0.0,0.0,0.0,0.0,0.0,0.0,0.0,0.0,0.0,0.0,0.0,0.0,0.0,0.0,0.0,0.0,0.0,0.0,0.0,0.0,0.0,0.0,0.0,0.0,0.0,0.0,0.0,0.0,0.0,0.0,0.0,0.0,0.0,0.0,0.0,0.0,0.0,0.0,0.0,0.0,0.0,0.0,0.0,0.0,0.0,0.0,0.0,0.0,0.0,0.0,0.0,0.0,0.0,0.0,0.0,0.0,0.0,0.0,0.0,0.0,0.0,0.0,0.0,0.0,0.0,0.0,0.0,0.0,0.0,0.0,0.0,0.0,0.0,0.0,0.0,0.0,0.0,0.0,0.0,0.0,0.0,0.0,0.0,0.0,0.0,0.0,0.0,0.0,0.0,0.0,0.0,0.0,0.0,0.0,0.0,0.0,0.0,0.0,0.0,0.0,0.0,0.0,0.0,0.0,0.0,0.0,0.0,0.0,0.0,0.0,0.0,0.0,0.0,0.0,0.0,0.0,0.0,0.0,0.0,0.0,0.0,0.0,0.0,0.0,0.0,0.0,0.0,0.0,0.0,0.0,0.0,0.0,0.0,0.0,0.0,0.0,0.0,0.0,0.0,0.0,0.0,0.0,0.0,0.0,0.0,0.0,0.0,0.0,0.0,0.0,0.0,0.0,0.0,0.0,0.0,0.0,0.0,0.0,0.0,0.0,0.0,0.0,0.0,0.0,0.0,0.0,0.0,0.0,0.0,0.0,0.0,0.0,0.0,0.0,0.0,0.0,0.0,0.0,0.0,0.0,0.0,0.0,0.0,0.0,0.0,0.0,0.0,0.0,0.0,0.0,0.0,0.0,0.0,0.0,0.0,0.0,0.0,0.0,0.0,0.0,0.0,0.0,0.0,0.0,0.0,0.0,0.0,0.0,0.0,0.0,0.0,0.0,0.0,0.0,0.0,0.0,0.0,0.0,0.0,0.0,0.0,0.0,0.0,0.0,0.0,0.0,0.0,0.0,0.0,0.0,0.0,0.0,0.0,0.0,0.0,0.0,0.0,0.0,0.0,0.0,0.0,0.0,0.0,0.0,0.0,0.0,0.0,0.0,0.0,0.0,0.0,0.0,0.0,0.0,0.0,0.0,0.0,0.0,0.0,0.0,0.0,0.0,0.0,0.0,0.0,0.0,0.0,0.0,0.0,0.0,0.0,0.0,0.0,0.0,0.0,0.0,0.0,0.0,0.0,0.0,0.0,0.0,0.0,0.0,0.0,0.0,0.0,0.0,0.0,0.0,0.0,0.0,0.0,0.0,0.0,0.0,0.0,0.0,0.0,0.0,0.0,0.0,0.0,0.0,0.0,0.0,0.0,0.0,0.0,0.0,0.0,0.0,0.0,0.0,0.0,0.0,0.0,0.0,0.0,0.0,0.0,0.0,0.0,0.0,0.0,0.0,0.0,0.0,0.0,0.0,0.0,0.0,0.0,0.0,0.0,0.0,0.0,0.0,0.0,0.0,0.0,0.0,0.0,0.0,0.0,0.0,0.0,0.0,0.0,0.0,0.0,0.0,0.0,0.0,0.0,0.0,0.0,0.0,0.0,0.0,0.0,0.0,0.0,0.0,0.0,0.0,0.0,0.0,0.0,0.0,0.0,0.0,0.0,0.0,0.0,0.0,0.0,0.0,0.0,0.0,0.0,0.0,0.0,0.0,0.0,0.0,0.0,0.0,0.0,0.0,0.0,0.0,0.0,0.0,0.0,0.0,0.0,0.0,0.0,0.0,0.0,0.0,0.0,0.0,0.0,0.0,0.0,0.0,0.0,0.0,0.0,0.0,0.0,0.0,0.0,0.0,0.0,0.0,0.0,0.0,0.0,0.0,0.0,0.0,0.0,0.0,0.0,0.0,0.0,0.0,0.0,0.0,0.0,0.0,0.0,0.0,0.0,0.0,0.0,0.0,0.0,0.0,0.0,0.0,0.0,0.0,0.0,0.0,0.0,0.0,0.0,0.0,0.0,0.0,0.0,0.0,0.0,0.0,0.0,0.0,0.0,0.0,0.0,0.0,0.0,0.0,0.0,0.0,0.0,0.0,0.0,0.0,0.0,0.0,0.0,0.0,0.0,0.0,0.0,0.0,0.0,0.0,0.0,0.0,0.0,0.0,0.0,0.0,0.0,0.0,0.0,0.0,0.0,0.0,0.0,0.0,0.0,0.0,0.0,0.0,0.0,0.0,0.0,0.0,0.0,0.0,0.0,0.0,1.4865,1.4515,0.0,0.0,0.0,0.0,0.0,0.0,0.0,0.0,0.0,0.0,0.0,0.0,0.0,0.0,0.0,0.0,0.0,0.0,0.0,0.0,0.0,0.0,0.0,0.0,0.0,0.0,0.0,0.0,0.0,0.0,0.0,0.0,0.0,0.0,0.0,0.0,0.0,0.0,1.3336,1.4002,1.543,1.6104,1.6212,1.5886,0.0,0.0,0.0,0.0,0.0,0.0,0.0,0.0,0.0,0.0,0.0,0.0,0.0,0.0,0.0,0.0,0.0,0.0,0.0,0.0,0.0,0.0,0.0,0.0,0.0,0.0,0.0,0.0,0.0,0.0,0.0,0.0,0.0,0.0,0.0,0.0,0.0,0.0,0.0,0.0,0.0,0.0,0.0,0.0,0.0,0.0,0.0,0.0,0.0,0.0,0.0,0.0,0.0,0.0,0.0,0.0,0.0,0.0,0.0,0.0,0.0,0.0,0.0,0.0,0.0,0.0,0.0,0.0,0.0,0.0,1.6393,1.5653,0.0,0.0,0.0,0.0,0.0,0.0,0.0,0.0,0.0,0.0,0.0,0.0,0.0,0.0,0.0,0.0,0.0,0.0,0.0,0.0,0.0,0.0,0.0,1.2729,1.2749,1.2881,1.3094,1.3266,0.0,0.0,0.0,0.0,0.0,0.0,0.0,1.3222,1.3273,1.3142,1.3845,1.5021,1.6623,1.7461,1.7216,1.6075,1.6357,0.0,0.0,0.0,0.0,0.0,0.0,0.0,0.0,0.0,0.0,0.0,0.0,0.0,0.0,0.0,0.0,0.0,0.0,0.0,0.0,0.0,0.0,0.0,0.0,0.0,0.0,0.0,0.0,0.0,0.0,0.0,0.0,0.0,0.0,0.0,0.0,0.0,0.0,0.0,0.0,0.0,0.0,0.0,0.0,0.0,0.0,0.0,0.0,0.0,0.0,0.0,0.0,0.0,0.0,0.0,0.0,0.0,0.0,0.0,0.0,0.0,0.0,0.0,1.8877,1.8963,1.9297,1.9478,1.9554,1.9506,1.8789,1.7666,1.6389,1.6281,0.0,0.0,0.0,0.0,0.0,0.0,0.0,0.0,0.0,0.0,0.0,0.0,0.0,0.0,0.0,0.0,0.0,0.0,0.0,0.0,0.0,1.2558,1.2749,1.2881,1.3094,1.3266,1.3386,0.0,0.0,0.0,0.0,0.0,1.3504,1.315,1.3336,1.4128,1.5756,1.7285,1.8723,1.9083,1.9339,1.9481,1.8533,1.836,1.8817,0.0,0.0,0.0,0.0,0.0,0.0,0.0,0.0,0.0,0.0,0.0,0.0,0.0,0.0,0.0,0.0,0.0,0.0,0.0,0.0,0.0,0.0,0.0,0.0,0.0,0.0,0.0,0.0,0.0,0.0,0.0,0.0,0.0,0.0,0.0,0.0,0.0,0.0,0.0,0.0,0.0,1.9012,1.7366,0.0,0.0,0.0,0.0,0.0,0.0,0.0,0.0,0.0,0.0,0.0,0.0,0.0,1.9307,1.9715,1.9754,1.9822,1.9946,2.0744,2.118,2.1257,2.2126,2.2551,2.2541,2.2425,0.0,1.7856,1.7348,0.0,0.0,0.0,0.0,0.0,0.0,0.0,0.0,0.0,0.0,0.0,0.0,0.0,0.0,0.0,0.0,0.0,0.0,0.0,0.0,0.0,1.3336,1.3811,1.4214,1.4925,1.5018,1.4236,1.4558,0.0,0.0,0.0,1.3659,1.3214,1.3714,1.4589,1.5818,1.7678,1.9003,1.9841,2.0504,2.0911,2.1065,2.0546,1.9891,1.9196,1.9008,0.0,0.0,0.0,0.0,0.0,0.0,0.0,0.0,0.0,0.0,0.0,0.0,0.0,0.0,0.0,0.0,0.0,0.0,0.0,0.0,0.0,0.0,0.0,0.0,0.0,0.0,0.0,0.0,0.0,0.0,0.0,0.0,0.0,0.0,0.0,0.0,0.0,0.0,0.0,1.8644,1.8776,1.6921,1.7578,1.7792,0.0,0.0,0.0,0.0,0.0,0.0,0.0,0.0,0.0,1.9478,2.0222,2.0849,2.1221,2.1878,2.2171,2.2171,2.2868,2.3159,2.3178,2.3647,2.3812,2.3812,2.3812,2.2892,2.1233,1.965,1.8547,1.7779,0.0,0.0,0.0,0.0,1.7232,1.7401,0.0,0.0,0.0,0.0,0.0,0.0,0.0,0.0,0.0,0.0,0.0,0.0,1.3649,1.4459,1.5222,1.5749,1.6408,1.6269,1.5022,1.5186,1.4821,1.3634,1.3944,1.3799,1.3091,1.4358,1.5899,1.7709,1.9334,2.0514,2.1321,2.2014,2.2397,2.2501,2.2387,2.1357,1.9672,1.907,1.9016,1.9383,0.0,0.0,0.0,0.0,0.0,0.0,0.0,0.0,0.0,0.0,0.0,0.0,0.0,0.0,0.0,0.0,0.0,0.0,0.0,0.0,0.0,0.0,0.0,0.0,0.0,0.0,0.0,0.0,0.0,0.0,0.0,0.0,0.0,0.0,0.0,0.0,0.0,1.8296,1.8754,1.6847,1.7864,1.8283,0.0,0.0,0.0,0.0,0.0,0.0,1.9174,1.9995,2.0638,2.1094,2.199,2.2659,2.2916,2.3968,2.4394,2.4297,2.4717,2.4863,2.4709,2.4709,2.4709,2.4709,2.4709,2.4512,2.3965,2.1748,2.0187,1.9125,1.8518,1.8396,1.8539,1.8235,1.8423,1.8773,0.0,0.0,0.0,0.0,0.0,0.0,0.0,0.0,0.0,0.0,0.0,1.414,1.4741,1.5876,1.6759,1.7174,1.6605,1.5961,1.5313,1.4712,1.4295,1.4063,1.4218,1.4051,1.3566,1.4945,1.6953,1.9658,2.0576,2.1963,2.3712,2.3753,2.4002,2.4342,2.396,2.269,2.0763,1.9843,1.9823,2.0363,1.9728,0.0,0.0,0.0,0.0,0.0,0.0,0.0,0.0,0.0,0.0,0.0,0.0,0.0,0.0,0.0,0.0,0.0,0.0,0.0,0.0,0.0,0.0,0.0,0.0,0.0,0.0,0.0,0.0,0.0,0.0,0.0,0.0,0.0,0.0,0.0,0.0,0.0,0.0,1.7713,1.8567,0.0,0.0,0.0,0.0,1.9753,2.0564,2.0895,2.0614,2.2243,2.2889,2.2239,2.3997,2.4922,2.4932,2.582,2.6055,2.5596,2.6084,2.6074,2.5615,2.5615,2.5615,2.5615,2.5615,2.542,2.4863,2.2994,2.1414,2.012,1.9144,1.8528,1.823,1.8211,1.8469,1.8811,0.0,0.0,0.0,0.0,0.0,0.0,0.0,0.0,1.2578,1.2455,1.369,1.4898,1.5781,1.7193,1.841,1.9111,1.8777,1.8007,1.6788,1.6061,1.5032,1.3642,1.346,1.39,1.4925,1.657,1.8475,2.0638,2.1859,2.2936,2.3929,2.4167,2.4342,2.4507,2.4685,2.4177,2.3114,2.1497,2.0596,2.0306,2.0149,2.0378,0.0,0.0,0.0,0.0,0.0,0.0,0.0,0.0,0.0,0.0,0.0,0.0,0.0,0.0,0.0,0.0,0.0,0.0,0.0,0.0,0.0,0.0,0.0,0.0,0.0,0.0,0.0,0.0,0.0,0.0,0.0,0.0,0.0,0.0,0.0,0.0,0.0,2.0078,2.147,0.0,2.0516,2.0248,2.0507,2.1368,2.1736,2.2275,2.3047,2.3711,2.4323,2.4933,2.5274,2.5762,2.6318,2.6914,2.6992,2.6562,2.7002,2.6846,2.6162,2.6162,2.6006,2.5693,2.5693,2.5596,2.5449,2.474,2.3573,2.2133,2.178,2.1196,2.0614,2.0876,2.1079,2.1165,0.0,0.0,0.0,0.0,0.0,0.0,0.0,0.0,1.2836,1.3064,1.4513,1.5999,1.7121,1.8828,2.0113,2.0683,2.0168,1.9083,1.7379,1.6278,1.4892,1.3206,1.3453,1.4552,1.6578,1.8103,1.9748,2.158,2.2811,2.365,2.4115,2.4528,2.4735,2.4755,2.5254,2.5285,2.4848,2.3207,2.2017,2.1189,2.0878,2.0838,2.0884,0.0,0.0,0.0,0.0,0.0,0.0,0.0,0.0,0.0,0.0,0.0,0.0,0.0,0.0,0.0,0.0,0.0,0.0,0.0,0.0,0.0,0.0,0.0,0.0,0.0,0.0,0.0,0.0,0.0,0.0,0.0,0.0,0.0,0.0,2.0857,2.2252,2.1648,2.3246,2.3934,2.2707,2.2443,2.263,2.3312,2.3551,2.4156,2.5244,2.543,2.585,2.6572,2.6602,2.6807,2.7226,2.7666,2.7666,2.7236,2.7529,2.7295,2.6592,2.6455,2.623,2.5947,2.5752,2.5693,2.5693,2.5693,2.4971,2.3834,2.3687,2.3066,2.2344,2.2617,2.2682,2.2682,0.0,0.0,0.0,0.0,0.0,0.0,0.0,1.2811,1.3193,1.4065,1.5782,1.7424,1.8757,2.0659,2.1807,2.1807,2.0581,1.8938,1.694,1.5188,1.382,1.2904,1.4274,1.6115,1.8403,1.9378,2.0757,2.2542,2.3432,2.4115,2.4528,2.4983,2.5199,2.523,2.5699,2.5941,2.5844,2.4974,2.4095,2.3202,2.1865,2.1811,2.2396,0.0,0.0,0.0,0.0,0.0,0.0,0.0,0.0,0.0,0.0,0.0,0.0,0.0,0.0,0.0,0.0,0.0,0.0,0.0,0.0,0.0,0.0,0.0,0.0,0.0,0.0,0.0,0.0,0.0,0.0,0.0,0.0,0.0,1.9239,2.1721,2.3233,2.2476,2.3886,2.4685,2.4033,2.4188,2.4733,2.5703,2.6201,2.6611,2.7031,2.7441,2.748,2.707,2.7851,2.8086,2.7738,2.8086,2.8086,2.7738,2.7738,2.7451,2.7002,2.6592,2.6396,2.6348,2.5918,2.5693,2.5693,2.5693,2.5478,2.5077,2.4619,2.3881,2.312,2.313,2.312,2.3091,0.0,0.0,0.0,0.0,0.0,0.0,0.0,1.2599,1.2998,1.406,1.5939,1.7748,1.9267,2.0834,2.1807,2.1807,2.0245,1.863,1.705,1.5594,1.4671,1.4423,1.567,1.7337,1.9378,2.0607,2.1983,2.3505,2.3753,2.4281,2.5003,2.5127,2.5399,2.572,2.6175,2.6428,2.6453,2.6862,2.6517,2.5464,2.3125,2.2364,2.2584,0.0,0.0,0.0,0.0,0.0,0.0,0.0,0.0,0.0,0.0,0.0,0.0,0.0,0.0,0.0,0.0,0.0,0.0,0.0,0.0,0.0,0.0,0.0,0.0,0.0,0.0,0.0,0.0,0.0,0.0,0.0,2.0833,2.1614,2.1828,2.3368,2.487,2.6074,2.7156,2.7721,2.7539,2.7292,2.7282,2.7568,2.7412,2.75,2.792,2.7764,2.7744,2.793,2.7871,2.793,2.8115,2.8232,2.8232,2.8125,2.8125,2.7734,2.7012,2.6894,2.6504,2.5908,2.5742,2.5693,2.5693,2.5693,2.5478,2.5135,2.5293,2.4648,2.3643,2.3955,2.3627,2.3091,0.0,0.0,0.0,0.0,0.0,0.0,0.0,1.2572,1.3189,1.4668,1.6347,1.7981,1.9521,2.0767,2.1362,2.0979,1.9282,1.7729,1.6521,1.537,1.5023,1.577,1.7296,1.8918,2.0586,2.1973,2.3163,2.4157,2.4157,2.4612,2.5502,2.5502,2.574,2.6231,2.6698,2.6905,2.6941,2.768,2.7804,2.7321,2.5328,2.4163,2.3585,2.3094,2.2898,2.2925,2.3187,2.3512,2.3636,2.248,0.0,0.0,0.0,0.0,0.0,0.0,0.0,0.0,0.0,0.0,0.0,0.0,0.0,0.0,0.0,0.0,0.0,0.0,0.0,0.0,0.0,0.0,0.0,0.0,2.237,2.379,2.4751,2.5538,2.6569,2.8027,2.8935,2.9385,2.9209,2.9131,2.8945,2.8584,2.833,2.8223,2.8291,2.8057,2.8047,2.8281,2.8057,2.8047,2.8291,2.8291,2.8291,2.8291,2.8291,2.7939,2.7285,2.71,2.6641,2.5996,2.5771,2.5693,2.5693,2.5693,2.5478,0.0,0.0,0.0,0.0,0.0,2.352,2.3071,0.0,0.0,0.0,0.0,0.0,0.0,0.0,1.2632,1.3554,1.5531,1.6734,1.8021,1.962,2.0483,2.0617,1.9793,1.8019,1.6572,1.5742,1.4966,1.5357,1.7205,1.9042,2.0695,2.2087,2.337,2.425,2.4652,2.4652,2.513,2.6003,2.6003,2.6252,2.6708,2.7123,2.7309,2.7326,2.7863,2.8331,2.8648,2.7774,2.6556,2.5127,2.4417,2.4283,2.4506,2.442,2.4234,2.3985,2.3772,0.0,0.0,0.0,0.0,0.0,0.0,0.0,0.0,0.0,0.0,0.0,0.0,0.0,0.0,0.0,0.0,0.0,0.0,0.0,0.0,0.0,0.0,0.0,0.0,2.3787,2.5722,2.7705,2.8002,2.8232,2.8975,2.9736,3.0068,2.9802,3.001,2.9863,2.9053,2.8945,2.874,2.831,2.8291,0.0,0.0,0.0,2.8291,2.8291,2.8291,2.8291,2.8291,2.8291,2.8066,2.7699,2.7217,2.6787,2.6367,2.5879,2.5693,2.5693,2.5693,2.5449,2.5037,2.4988,2.4463,2.374,2.3257,2.3091,2.3033,0.0,0.0,0.0,0.0,0.0,0.0,0.0,1.2522,1.3343,1.553,1.6427,1.7612,1.9582,1.9948,1.9834,1.9285,1.7584,1.627,1.5732,1.5866,1.7119,1.9596,2.0824,2.2232,2.3929,2.46,2.5181,2.5616,2.5616,2.5906,2.648,2.648,2.6729,2.7175,2.7268,2.7309,2.7347,2.8208,2.8637,2.8667,2.8517,2.7836,2.6789,2.545,2.4772,2.4502,2.4493,2.4914,2.5239,2.3604,2.3689,2.4086,2.1994,2.1445,0.0,0.0,0.0,0.0,0.0,0.0,0.0,0.0,0.0,0.0,0.0,0.0,0.0,0.0,0.0,0.0,0.0,0.0,0.0,2.3631,2.5391,2.7302,2.9414,2.9707,2.9766,2.9932,3.0098,3.0312,3.0605,3.0371,2.999,2.9482,2.9121,2.874,2.831,2.8291,2.8291,2.8291,2.8291,2.8291,2.8291,2.8291,2.8291,2.8291,0.0,0.0,2.7699,2.7217,2.6787,2.6367,2.5879,2.5693,2.5693,2.5693,2.5216,2.4502,2.417,2.3935,2.374,2.3257,2.3091,2.3033,0.0,0.0,0.0,0.0,0.0,0.0,0.0,1.2505,1.3077,1.4702,1.5413,1.6316,1.7644,1.7934,1.7812,1.7348,1.6314,1.5691,1.5691,1.6993,1.8733,2.101,2.2221,2.3484,2.4817,2.5065,2.5554,2.6273,2.6034,2.6283,2.6957,2.6718,2.6864,2.7309,2.7309,2.7309,2.7367,2.8574,2.8896,2.8699,2.8939,2.8659,2.7902,2.6732,2.5958,2.5585,2.5823,2.5896,2.5771,2.5001,2.4885,2.4841,2.3523,2.2857,2.2545,0.0,0.0,0.0,0.0,0.0,0.0,0.0,0.0,0.0,0.0,0.0,0.0,0.0,0.0,2.0594,2.0864,0.0,2.4241,2.5361,2.7108,2.874,3.0019,3.04,3.0547,3.0547,3.0547,3.0635,3.0869,3.0684,3.0273,2.9675,2.9365,2.8965,2.833,2.8291,2.8291,2.8291,2.8291,2.8291,2.8291,2.8291,2.8291,2.8291,2.8291,2.8066,2.7708,2.7441,2.6992,2.6377,2.6162,2.5937,2.5674,2.5498,2.5146,2.4697,2.4268,2.3838,2.3437,2.3179,2.2964,2.2721,0.0,0.0,0.0,0.0,0.0,0.0,0.0,1.2455,1.2824,1.383,1.4443,1.5022,1.5689,1.5961,1.5851,1.5219,1.5102,1.5306,1.5918,1.802,2.0093,2.1994,2.3318,2.4436,2.5337,2.544,2.5885,2.675,2.6376,2.6573,2.7299,2.6926,2.6998,2.7434,2.7434,2.7486,2.7637,2.8668,2.899,2.8852,2.9055,2.8925,2.8595,2.7725,2.7154,2.6781,2.7071,2.6475,2.5699,2.6248,2.5834,2.5032,2.5054,2.4489,2.3681,2.3454,2.2451,0.0,0.0,0.0,0.0,0.0,0.0,0.0,0.0,2.0107,2.0601,2.1173,2.1947,2.2735,2.3271,2.4863,2.6339,2.6988,2.8583,2.9844,3.0273,3.0654,3.0859,3.0771,3.083,3.0889,3.0889,3.081,3.043,2.9685,2.9492,2.9111,2.833,2.8291,2.8291,2.8291,2.8291,2.8291,2.8291,2.8291,2.8291,2.8291,2.8291,2.8115,2.7836,2.7617,2.7168,2.6504,2.6338,2.6064,2.5664,2.5352,2.5194,2.5077,2.4678,2.4072,2.3344,2.3344,2.313,2.2822,0.0,0.0,0.0,0.0,0.0,0.0,0.0,0.0,1.2673,1.3687,1.4082,1.4614,1.5534,1.5701,1.5271,1.4086,1.478,1.5708,1.677,1.864,2.0726,2.2936,2.396,2.4892,2.5792,2.6206,2.6718,2.7226,2.7175,2.7206,2.7309,2.7258,2.7417,2.7852,2.7852,2.8079,2.8442,2.8167,2.8561,2.9237,2.8427,2.8307,2.8628,2.8072,2.7572,2.7185,2.6822,2.5712,2.4635,2.5623,2.5269,2.4574,2.5499,2.5049,2.4011,2.2864,2.113,1.971,2.0198,2.0496,2.0424,1.9261,1.9682,2.0416,0.0,2.1115,2.1728,2.1861,2.2533,2.3376,2.4201,2.5583,2.7027,2.8192,2.94,3.0293,3.0752,3.0859,3.0732,3.0322,3.0644,3.0889,3.0889,3.0518,3.0078,2.96,2.9209,2.8789,2.831,2.8291,2.8291,2.8291,2.8291,2.8291,2.8291,2.8291,2.8291,2.8291,2.8291,2.8271,2.8193,2.7432,2.7031,2.6904,2.6093,2.5732,2.5684,2.5635,2.543,2.5106,2.5057,2.4697,2.4268,2.4268,2.4248,2.4141,0.0,0.0,0.0,0.0,0.0,0.0,0.0,0.0,0.0,1.2868,1.3103,1.3426,1.3959,1.4198,1.4172,1.3825,1.4475,1.5609,1.7286,1.9137,2.1052,2.3101,2.4312,2.5233,2.591,2.6376,2.6843,2.7309,2.7309,2.7309,2.7309,2.7309,2.7403,2.7541,2.7541,2.7645,2.7852,2.8183,2.8261,2.8195,2.8258,2.8126,2.7814,2.7045,2.6465,2.602,2.5465,2.4502,0.0,2.4307,2.4265,2.412,2.5468,2.4805,2.3371,2.2836,2.1395,2.0004,2.0318,2.0552,2.0628,2.043,2.1131,2.1908,2.217,2.2916,2.3663,2.4065,2.4831,2.5682,2.6543,2.7645,2.8651,2.9429,3.0343,3.0947,3.0898,3.0889,3.0625,2.9912,3.0,3.0117,3.0117,2.9951,2.9648,2.9228,2.9023,2.874,2.831,2.8291,2.8291,2.8291,2.8291,2.8291,2.8291,2.8291,2.8291,2.8291,2.8291,2.8291,2.8271,2.7666,2.7119,2.6621,2.6006,2.5693,2.5693,2.5693,2.5577,2.5459,2.5459,2.5342,2.5079,2.4609,2.4258,2.4033,0.0,0.0,0.0,0.0,0.0,0.0,0.0,0.0,0.0,0.0,1.2357,1.2604,1.3017,1.3101,1.3314,1.3749,1.4082,1.5144,1.7092,1.8854,2.069,2.2532,2.4135,2.5148,2.5413,2.6082,2.661,2.7018,2.7065,2.7138,2.7167,2.7167,2.7287,2.74,2.74,2.7534,2.7862,2.839,2.8235,2.7686,2.8349,2.7914,2.6853,2.6179,2.5228,2.4231,2.393,2.3131,2.2291,2.283,2.2807,2.2848,2.4535,2.3872,2.2469,2.254,2.1464,2.0205,2.0164,2.0565,2.111,2.154,2.2468,2.3392,2.39,2.4707,2.5515,2.6113,2.6855,2.7598,2.833,2.9072,2.9707,3.0127,3.084,3.124,3.0937,3.0781,3.0371,2.9492,2.9287,2.9225,2.9108,2.9258,2.9258,2.8945,2.8809,2.8662,2.8476,2.8467,2.8467,2.8467,2.8467,2.8408,2.8291,2.8291,2.8291,2.8291,2.8291,2.8291,2.8271,2.7734,2.708,2.6367,2.5879,2.5693,2.5693,2.5693,2.5693,2.5693,2.5693,2.5693,2.5606,2.4972,2.459,2.4326,0.0,0.0,0.0,0.0,0.0,0.0,0.0,0.0,0.0,0.0,0.0,0.0,0.0,1.3016,1.2986,1.3656,1.3613,1.4241,1.594,1.7554,1.9261,2.1093,2.3309,2.4442,2.4247,2.5362,2.6032,2.6243,2.6486,2.6733,2.69,2.69,2.7173,2.7562,2.7562,2.8202,2.9218,2.8794,2.8597,2.8576,2.8597,2.7531,2.5962,2.5885,2.4283,2.2039,2.243,2.1671,2.0576,2.1252,2.0783,2.0282,2.2338,2.2201,2.133,2.1649,2.0813,1.967,1.894,2.0104,2.159,2.199,2.3236,2.459,2.5411,2.6318,2.707,2.7562,2.7949,2.8389,2.8818,2.9268,2.9707,3.0127,3.0596,3.0908,3.0889,3.0508,2.9902,2.9043,2.8584,2.8174,0.0,2.8457,2.8935,2.8916,2.8545,2.8486,2.8877,2.8896,2.8896,2.8896,2.8896,2.8701,2.8301,2.8291,2.8291,2.8291,2.8291,2.8291,2.8262,2.7422,2.6797,2.6367,2.5879,2.5693,2.5693,2.5693,2.5693,2.5693,2.5693,2.5693,2.5684,2.5664,2.5645,2.5635,0.0,0.0,0.0,0.0,0.0,0.0,0.0,0.0,0.0,0.0,0.0,0.0,0.0,0.0,0.0,0.0,1.342,1.3899,1.5447,1.6546,1.7888,1.9579,2.1809,2.2941,2.2737,2.4098,2.473,2.4662,2.4761,2.4842,2.4915,2.5219,2.5478,2.563,2.6084,2.6638,2.7239,2.7596,2.7541,2.7251,2.7251,2.6537,2.5285,2.367,2.2587,2.1754,0.0,1.9486,1.9116,1.9339,1.94,1.9587,2.0642,2.0464,1.989,2.0015,1.9584,1.9341,2.0551,0.0,2.2962,2.3885,2.5116,2.6289,2.6885,2.7451,2.7822,2.7748,2.7263,2.682,2.6775,2.7299,2.7868,2.8447,2.9853,3.0889,3.0889,3.0752,3.0127,2.8672,2.8623,0.0,0.0,0.0,0.0,2.8476,2.8369,2.8476,2.8896,2.8916,2.8916,2.8916,2.8916,2.8721,2.8301,2.8291,2.8291,2.8291,2.8291,2.7998,2.7432,2.7148,2.6631,2.5947,2.5752,2.5693,2.5693,2.5693,2.5693,2.5693,2.5693,2.5693,2.5693,2.5693,2.5693,2.5693,0.0,0.0,0.0,0.0,0.0,0.0,0.0,0.0,0.0,0.0,0.0,0.0,0.0,0.0,0.0,0.0,0.0,1.348,1.4449,1.5234,1.6237,1.7458,1.9509,2.0542,2.0403,2.1695,2.2291,2.213,2.2574,2.2695,2.2622,2.3225,2.3549,2.3569,2.4291,2.494,2.5447,2.6054,2.5982,2.5406,2.5242,2.458,2.344,2.1582,2.0951,0.0,1.9322,1.8709,1.8627,1.8627,1.885,1.9212,1.9755,1.968,1.9356,1.9174,1.9202,1.9756,0.0,2.308,2.3949,2.5419,2.6514,2.7363,2.7793,2.7988,2.79,2.7324,2.6464,2.5577,2.5013,2.5431,2.6042,2.6468,2.8121,2.9492,2.9994,2.9875,2.9434,2.8613,2.8623,2.831,0.0,0.0,0.0,2.8271,2.8291,2.8603,2.9336,2.9238,2.9297,2.9609,2.9316,2.8945,2.8525,2.8369,2.8291,2.8291,2.8291,2.793,2.7236,2.709,2.6631,2.5967,2.5752,2.5693,2.5693,2.5693,2.5693,2.5693,2.5693,2.5693,2.5693,2.5693,2.5693,2.5693,0.0,0.0,0.0,0.0,0.0,0.0,0.0,0.0,0.0,0.0,0.0,0.0,0.0,0.0,0.0,0.0,0.0,0.0,1.315,1.3791,1.4388,1.4931,1.6593,1.7471,1.7363,1.8436,1.8964,1.8869,1.9968,2.037,2.0121,2.1013,2.1401,2.1441,2.2286,2.308,2.3768,2.4183,2.3879,2.31,2.2737,2.1876,2.0755,1.9924,1.9521,1.9399,1.9419,1.9264,1.9021,1.8995,1.8983,1.9108,1.9644,1.9763,1.9634,0.0,0.0,2.0948,2.3093,2.3928,2.4677,2.6533,2.7363,2.7826,2.8164,2.79,2.7376,2.6465,2.5547,2.4592,0.0,0.0,2.4373,2.4459,2.5634,2.7048,2.8488,2.8213,2.8115,0.0,0.0,0.0,0.0,0.0,0.0,2.8359,0.0,2.8877,3.0166,2.9834,2.999,3.083,3.0039,2.9375,2.8887,2.8496,2.8291,2.8291,2.8271,2.8047,2.7669,2.7178,2.6758,2.6328,2.5869,2.5693,2.5693,2.5693,2.5693,2.5693,2.5693,2.5693,2.5693,2.5693,2.5693,2.5693,0.0,0.0,0.0,0.0,0.0,0.0,0.0,0.0,0.0,0.0,0.0,0.0,0.0,0.0,0.0,0.0,0.0,0.0,1.3674,1.3681,1.3839,1.4162,1.5674,1.6271,1.5797,1.6947,1.7434,1.7292,1.7573,1.7681,1.7625,1.8208,1.8532,1.8666,1.9318,1.9915,2.0447,2.0771,2.0798,2.0709,2.0928,2.0741,2.0326,1.9921,2.0064,2.0452,2.0063,1.9622,1.92,1.9044,1.906,1.9246,0.0,2.0007,2.0149,0.0,0.0,2.2952,2.4526,2.5816,2.6867,2.7415,2.764,2.7748,2.7855,2.7002,2.5977,2.5098,2.3506,2.2039,2.1277,2.2188,2.3316,2.4055,2.6468,0.0,2.9661,2.998,0.0,2.9453,0.0,2.9414,2.8672,2.8994,0.0,0.0,2.8945,2.9336,3.0644,3.0283,3.0137,3.0361,3.0156,2.9531,2.8467,2.834,2.8291,2.8291,2.7978,2.7598,2.7168,2.6738,2.6318,2.5849,2.5732,2.5693,2.5693,2.5693,2.5693,2.5693,2.5693,2.5693,2.5693,2.5693,2.5693,2.5693,0.0,0.0,0.0,0.0,0.0,0.0,0.0,0.0,0.0,0.0,0.0,0.0,0.0,0.0,0.0,0.0,0.0,0.0,0.0,1.3455,1.3399,1.3207,1.4152,1.4513,1.4117,1.4933,1.5429,1.5566,1.5751,1.5967,1.6132,1.6602,1.6807,1.6846,1.7737,1.8306,1.8607,1.9113,1.9203,0.0,0.0,1.8965,1.8828,1.9061,1.954,2.0158,2.0517,2.0359,1.9959,1.9501,0.0,2.0236,2.0335,2.0832,2.1609,2.2655,0.0,2.4516,2.5779,2.6888,2.7767,2.7891,2.7855,2.762,2.7239,2.6054,2.4674,2.3421,2.1745,2.0258,1.9602,2.048,2.1686,0.0,0.0,0.0,2.8936,2.9368,2.957,0.0,3.0049,0.0,2.9268,2.9775,3.0146,3.0146,2.9736,2.9893,3.084,3.0644,3.0586,3.0771,3.04,2.9668,2.8574,2.8389,2.8291,2.8291,2.8057,2.7617,2.7012,2.6768,2.6318,2.5693,2.5693,2.5693,2.5693,2.5693,2.5693,2.5693,2.5693,2.5693,2.5693,2.5693,2.5693,2.5693,0.0,0.0,0.0,0.0,0.0,0.0,0.0,0.0,0.0,0.0,1.29,0.0,0.0,0.0,0.0,0.0,0.0,0.0,0.0,0.0,1.3252,1.2504,1.2819,1.2975,1.2874,1.3221,1.3639,1.4104,1.457,1.4971,1.5342,1.5801,1.5916,1.5802,1.6889,1.7446,1.7547,1.8222,1.8215,1.7725,1.7484,1.7335,1.7355,0.0,1.8988,1.9599,2.0726,2.1054,2.0862,2.0078,2.0588,2.1463,2.1073,2.2069,2.3422,2.3706,2.4647,2.5809,2.6847,2.7461,2.791,2.8213,2.7891,2.7266,2.6416,2.4984,2.3345,2.1585,2.0147,1.8986,1.835,1.9013,2.0118,2.1575,0.0,2.4983,2.7719,2.8087,2.8564,3.0107,3.0293,3.0146,2.9785,3.0439,3.0889,3.0889,3.0566,3.0576,3.1035,3.0957,3.1055,3.1426,3.0518,2.9697,2.9014,2.8535,2.8291,2.8291,2.8232,2.7822,2.71,2.6982,2.6533,2.5771,2.5713,2.5693,2.5693,2.5693,2.5693,2.5693,2.5693,2.5693,2.5693,2.5693,2.5693,2.5693,0.0,0.0,0.0,0.0,0.0,0.0,0.0,0.0,0.0,0.0,1.322,1.2799,0.0,0.0,0.0,0.0,0.0,0.0,0.0,0.0,0.0,1.3318,1.3559,1.3746,1.3768,1.3888,1.4009,1.4104,1.457,1.4852,1.4902,1.5332,1.5508,1.5478,1.5701,1.5889,1.5969,1.6015,1.6169,1.6489,1.7012,1.7779,1.8684,1.9918,0.0,0.0,2.0421,2.0684,2.1247,2.0156,2.0631,2.1797,2.2519,2.3426,2.4427,2.5555,2.6544,2.7317,2.7542,2.8115,2.8633,2.8359,2.7441,2.6327,2.5315,2.3525,0.0,1.9678,1.8655,1.7956,1.749,1.8395,2.0023,2.2504,2.4161,2.6109,2.892,2.958,3.001,0.0,3.0771,3.0742,3.0664,3.0801,0.0,0.0,3.1143,3.1484,3.1924,3.1279,3.0928,3.0996,2.9785,2.9238,2.9453,2.8682,2.8291,2.8291,2.7939,2.7695,2.7529,2.6816,2.6416,2.626,2.5889,0.0,2.5693,2.5693,2.5693,2.5693,2.5693,2.5693,2.5693,2.5693,2.5693,2.5693,0.0,0.0,0.0,0.0,0.0,0.0,0.0,1.3396,1.3258,1.4007,1.3478,1.323,1.3821,1.3235,1.3021,0.0,0.0,0.0,0.0,0.0,0.0,0.0,0.0,0.0,1.3953,1.4274,1.4642,1.4974,0.0,1.5713,1.6133,1.6113,1.5972,1.5838,1.6152,1.6311,1.6373,1.6544,1.7098,1.7903,1.7595,1.7977,1.8862,0.0,0.0,0.0,0.0,2.068,2.1024,2.0181,2.0502,2.1448,2.2735,2.4053,2.5226,2.6133,2.7043,2.7767,2.7939,2.8281,2.8496,2.8066,2.7168,2.6045,2.4614,0.0,0.0,1.8803,1.7844,1.7278,1.7075,1.7988,1.9426,2.1414,2.2843,2.4696,2.7383,2.8413,2.9287,3.04,3.0742,3.0889,3.0889,3.1094,3.1211,3.1211,3.1406,3.1514,3.1504,3.1113,3.0889,3.0889,2.9834,2.9355,2.9626,2.8721,2.8291,2.8291,2.8086,2.7881,2.7708,2.7297,2.6934,2.6689,2.626,2.6074,2.6074,2.6074,2.5947,2.5732,2.6181,2.6269,2.6074,2.6074,2.6074,2.6045,0.0,0.0,0.0,0.0,0.0,0.0,1.4277,1.3791,1.3516,1.4035,1.3654,1.3654,1.444,1.3547,1.3088,0.0,0.0,0.0,0.0,0.0,0.0,0.0,0.0,0.0,0.0,0.0,0.0,0.0,1.5991,0.0,0.0,0.0,0.0,0.0,1.6972,1.7258,1.7321,1.7741,1.8476,0.0,0.0,1.8231,0.0,0.0,0.0,0.0,0.0,0.0,2.0699,2.0508,2.0383,2.0571,2.2378,2.3984,2.5333,2.5908,2.6736,2.7584,2.8154,2.8359,2.8301,2.7845,2.6875,2.5674,2.3988,2.2038,0.0,1.8284,1.7439,1.6982,1.6807,1.7518,1.863,2.0026,2.1142,2.2832,2.5721,2.6956,2.8237,2.999,3.0605,0.0,3.0889,3.1191,0.0,3.1377,3.1377,3.124,3.0908,3.0889,3.084,3.0742,2.998,2.9521,2.9434,2.8672,2.8291,2.8291,2.8291,2.8125,2.7855,2.7757,2.748,2.7129,2.6709,2.6523,2.6523,2.6523,2.6318,2.6015,2.665,2.668,2.6377,2.6279,2.625,2.6201,0.0,0.0,0.0,0.0,0.0,0.0,1.3928,1.3691,1.3635,1.4063,1.3737,1.3867,1.4828,1.3706,1.2966,0.0,0.0,0.0,0.0,0.0,0.0,0.0,0.0,0.0,0.0,0.0,0.0,1.5057,0.0,0.0,0.0,0.0,0.0,0.0,0.0,0.0,1.7949,1.8496,0.0,0.0,0.0,0.0,0.0,0.0,0.0,0.0,0.0,0.0,2.0592,0.0,0.0,1.8978,2.1556,2.2971,2.3866,2.4725,0.0,0.0,2.8023,2.8574,2.8672,2.7861,2.6466,2.4844,2.3312,0.0,1.9544,1.7673,1.7387,1.722,1.6505,1.6725,1.7649,1.9558,2.0266,2.1869,2.5595,2.6801,2.8077,2.999,0.0,0.0,3.0889,3.0928,3.0947,3.0947,3.0947,3.0928,3.0889,3.0889,3.0703,3.0273,2.9814,2.9385,2.8984,2.8525,2.8291,2.8291,2.8291,2.8271,2.8223,2.7894,2.7699,2.764,2.7148,2.6953,0.0,2.6953,2.6934,2.6865,2.6562,2.6426,2.6338,2.5947,2.5742,2.5742,0.0,0.0,0.0,0.0,0.0,0.0,1.3837,1.3599,1.3543,1.4035,1.4184,1.4419,1.4932,1.4242,1.4015,1.4668,0.0,0.0,0.0,0.0,0.0,0.0,0.0,0.0,0.0,0.0,1.546,1.5249,1.598,0.0,0.0,0.0,0.0,0.0,0.0,0.0,1.8008,1.8008,0.0,0.0,0.0,0.0,0.0,0.0,0.0,0.0,0.0,0.0,1.9651,2.0367,0.0,0.0,1.9443,2.0435,0.0,0.0,2.4825,2.5586,2.7419,2.8223,2.834,2.749,2.5927,2.4171,2.2795,0.0,1.8881,1.8119,1.754,1.7137,1.7078,1.6989,1.7154,1.7916,1.8471,0.0,2.1978,2.3305,2.5044,2.7757,2.8732,2.9731,0.0,0.0,3.0889,3.0889,3.0889,3.0771,3.0488,3.0742,3.0674,3.0215,2.9785,2.9365,2.8926,2.8506,2.8291,2.8291,2.8291,2.8291,2.8281,2.8125,2.8047,2.8018,2.7588,2.7402,0.0,2.7402,2.7246,2.7051,2.7393,2.7217,2.6748,2.6572,2.6348,2.6094,0.0,0.0,0.0,0.0,0.0,1.2964,1.3782,1.3497,1.3405,1.4016,1.4361,1.4614,1.4893,1.4618,1.478,1.5642,1.5052,0.0,0.0,0.0,0.0,0.0,0.0,0.0,0.0,0.0,1.5527,1.5275,1.5813,1.6237,0.0,0.0,0.0,0.0,0.0,0.0,0.0,0.0,0.0,0.0,0.0,0.0,0.0,0.0,0.0,0.0,0.0,0.0,0.0,0.0,0.0,0.0,0.0,0.0,0.0,0.0,2.316,2.4103,2.6102,2.7305,2.7744,2.7012,2.5295,2.3509,0.0,0.0,1.8783,1.8783,1.8027,1.7499,1.781,1.7335,1.6908,1.6908,0.0,1.8229,1.9742,2.103,2.285,2.5682,0.0,2.8153,3.0266,3.0704,3.0947,3.1064,3.0957,3.0752,3.042,3.0586,3.042,2.9834,2.9531,2.917,2.874,2.8437,2.8291,2.8291,2.8291,2.8291,2.8291,2.8291,2.8291,2.8271,2.7978,2.7851,0.0,2.7851,2.7666,2.7432,2.7773,2.7549,2.6982,2.6728,2.6455,2.6152,0.0,0.0,0.0,0.0,0.0,0.0,1.3782,1.333,1.3204,1.4007,1.4091,1.4268,1.4669,1.4706,1.4934,1.5548,1.4994,0.0,0.0,0.0,0.0,0.0,0.0,0.0,0.0,0.0,1.5127,1.5009,1.5538,1.5749,1.5635,1.6169,1.6348,1.6239,0.0,0.0,0.0,0.0,0.0,0.0,0.0,0.0,0.0,0.0,0.0,0.0,0.0,0.0,0.0,0.0,0.0,0.0,0.0,0.0,0.0,0.0,2.0604,2.2664,2.3902,2.5586,2.6924,2.6504,2.4662,2.2766,0.0,2.0801,1.9481,1.9408,1.8954,1.8556,1.8516,1.7619,1.6908,1.6908,1.7238,0.0,2.0043,2.103,2.229,0.0,2.5189,2.6324,2.7892,2.977,3.1064,3.1475,3.1123,0.0,3.0889,3.0449,2.9814,2.8955,2.8926,2.8721,2.8301,2.8291,2.8291,2.8291,2.8291,2.8291,2.8291,2.8291,2.8291,2.8291,2.8291,2.8281,0.0,2.8281,2.8281,2.8193,2.7353,2.7021,2.6914,2.6015,2.5703,2.5693,0.0,0.0,0.0,0.0,0.0,0.0,1.3497,1.3154,1.2996,1.3607,1.3914,1.4327,1.4904,1.4926,1.5041,1.5376,1.5148,0.0,0.0,0.0,0.0,0.0,0.0,0.0,0.0,1.5186,1.5127,1.5,1.5448,1.579,1.6034,1.6335,1.6587,1.6791,1.6485,1.6414,0.0,0.0,0.0,0.0,0.0,0.0,0.0,0.0,0.0,0.0,0.0,0.0,0.0,0.0,0.0,0.0,0.0,0.0,0.0,1.8807,1.9567,2.0972,2.1678,2.2804,2.3593,2.3108,2.1878,2.0597,1.9828,1.9241,1.8897,1.9186,1.888,1.8876,2.0021,1.8394,1.7153,1.7993,1.7986,0.0,0.0,0.0,0.0,2.4246,2.7839,3.0199,0.0,3.1269,3.1572,3.1123,3.0674,3.0293,3.0,2.957,2.9336,2.9365,2.9072,2.8721,2.8301,2.8291,2.8291,2.8291,2.8291,2.8291,2.8291,2.8291,2.8291,2.8291,2.8291,2.8291,2.8291,2.8291,2.8125,2.7832,2.7568,2.71,2.6553,2.6279,2.5996,2.5693,0.0,0.0,0.0,0.0,0.0,0.0,0.0,1.4064,1.3877,1.4251,1.4464,1.4686,1.4931,1.494,1.4945,1.5026,1.5022,0.0,0.0,0.0,0.0,0.0,0.0,0.0,1.5215,1.5264,1.5312,1.5407,1.5575,1.5918,1.6392,1.6434,1.6513,1.66,1.6488,1.6191,0.0,0.0,0.0,0.0,0.0,0.0,2.0582,0.0,0.0,0.0,0.0,0.0,0.0,0.0,0.0,0.0,0.0,0.0,0.0,0.0,1.9778,2.039,2.0137,2.1362,2.2604,2.22,2.1302,0.0,1.9996,1.9571,1.9445,1.9976,1.9673,1.9681,2.1004,1.9065,1.7603,1.846,1.8276,1.8166,0.0,0.0,0.0,2.4689,2.8288,0.0,0.0,3.1366,3.1533,3.1152,3.0547,3.0078,2.9824,2.9238,2.9043,2.9316,2.8906,2.8555,2.8291,2.8291,2.8291,2.8291,2.8291,2.8291,2.8291,2.8291,2.8291,2.8291,2.8291,2.8291,0.0,2.8125,2.7953,2.7689,2.7366,2.6855,2.6367,2.6201,2.5967,2.5693,0.0,0.0,0.0,0.0,0.0,0.0,0.0,1.5699,1.5487,1.5635,1.5481,1.5237,1.4877,1.4867,1.4831,1.4671,1.4744,0.0,0.0,0.0,0.0,0.0,0.0,0.0,1.5215,1.5332,1.5615,1.6056,1.5911,1.6143,1.6665,1.6516,1.6229,1.5917,1.6457,1.5969,1.4881,1.6678,1.8184,1.9383,2.0192,2.0997,0.0,0.0,0.0,0.0,0.0,0.0,0.0,0.0,0.0,0.0,0.0,0.0,0.0,0.0,0.0,0.0,0.0,2.1,2.3264,2.2929,2.2205,2.1621,2.1882,2.1274,0.0,2.1428,2.1055,2.0858,2.1612,1.9748,1.8255,1.8701,1.8464,1.8595,0.0,2.0947,0.0,0.0,2.7314,2.871,2.9861,3.0548,3.1074,3.1396,3.0635,3.0137,3.0107,2.9316,2.8877,2.8877,2.8496,2.8291,2.8291,2.8291,2.8291,2.8291,2.8291,2.8291,2.8291,2.8291,2.8291,0.0,2.8262,2.8262,2.8262,2.7803,2.7669,2.7591,2.6709,2.6367,2.6299,2.584,2.5693,2.5693,0.0,0.0,0.0,0.0,0.0,0.0,0.0,0.0,0.0,0.0,1.5571,1.5328,1.6019,1.5834,1.5571,0.0,0.0,0.0,0.0,0.0,0.0,0.0,0.0,0.0,1.5362,1.5391,1.541,1.5419,1.5994,1.636,1.6548,1.6672,1.6735,1.6764,1.5995,1.55,1.5332,1.6568,1.7712,1.8746,2.0064,2.0907,0.0,0.0,0.0,0.0,2.2385,2.2234,0.0,0.0,0.0,0.0,0.0,0.0,0.0,0.0,2.0996,2.0863,1.9178,0.0,2.0445,1.9716,1.979,1.9905,0.0,0.0,0.0,0.0,0.0,0.0,0.0,2.1085,1.9813,2.1112,2.0765,2.0468,2.0908,2.3553,0.0,2.8456,2.9848,3.0694,3.0674,3.1064,3.1133,3.0557,3.0019,2.957,2.9238,2.8721,2.8437,2.8437,2.834,2.8291,2.8291,2.8291,2.8291,2.8291,2.8291,2.8291,2.8291,2.8291,2.8291,2.8271,2.7949,2.7998,2.8232,2.748,2.7168,2.7119,2.6592,2.6182,2.583,2.5723,2.5693,2.5693,0.0,0.0,0.0,0.0,0.0,0.0,0.0,0.0,0.0,0.0,1.6255,1.6122,1.6215,1.6068,1.5832,0.0,0.0,0.0,0.0,0.0,0.0,0.0,0.0,1.5323,1.5225,1.5565,1.5605,1.5374,1.6191,1.6616,1.6686,1.6897,1.6949,1.6821,1.5977,1.59,1.6438,1.7539,1.8351,1.9043,2.0689,0.0,0.0,0.0,0.0,0.0,2.271,2.2656,0.0,2.1757,2.1857,2.2309,0.0,0.0,0.0,0.0,2.1817,2.16,2.0909,2.0611,2.0276,1.9297,2.0019,2.0857,2.045,0.0,0.0,0.0,0.0,0.0,0.0,2.1897,2.0739,2.22,2.1745,2.1574,0.0,2.5061,2.7395,2.8962,2.9723,3.0353,3.085,3.0732,3.042,2.9941,2.9512,2.917,2.8926,2.8525,2.8291,2.8291,2.8291,2.8291,2.8291,2.8291,2.8291,2.8291,2.8291,2.8291,2.8281,2.8096,2.8008,2.7978,2.7559,2.749,2.7656,2.7002,2.6728,2.668,2.626,2.5947,2.5693,2.5693,2.5693,2.5693,0.0,0.0,0.0,0.0,0.0,0.0,0.0,0.0,0.0,0.0,0.0,0.0,0.0,0.0,0.0,0.0,0.0,0.0,0.0,0.0,0.0,0.0,1.569,1.5362,1.5137,1.5739,1.6007,1.5842,1.6527,1.6875,1.6934,1.7224,1.7113,1.6732,1.6562,1.7014,1.7957,1.8886,1.9529,2.0049,2.1534,0.0,0.0,0.0,0.0,0.0,0.0,0.0,0.0,2.2058,2.2046,2.2406,2.2406,0.0,0.0,0.0,0.0,0.0,2.2744,2.2293,2.1478,2.0503,2.156,2.2831,2.2856,0.0,0.0,0.0,0.0,0.0,0.0,2.2586,2.1638,2.2759,2.2452,2.2712,2.4526,2.6255,2.7625,2.8542,2.8703,2.9213,3.0498,2.9971,2.9597,2.9473,2.9121,2.8887,2.8828,2.8486,2.8291,2.8291,2.8291,2.8291,2.8291,2.8291,2.8291,2.8291,2.8291,2.8262,2.8184,2.7885,2.7679,2.7591,2.7109,0.0,2.6973,2.6484,2.6328,2.6348,2.5859,2.5693,2.5693,2.5693,2.5693,2.5693,0.0,0.0,0.0,0.0,0.0,0.0,0.0,0.0,0.0,0.0,0.0,0.0,0.0,0.0,0.0,0.0,0.0,0.0,0.0,0.0,0.0,1.6978,1.6226,1.5787,1.5758,1.5874,1.6289,1.7054,1.7165,1.7149,1.6997,1.7711,1.7758,1.7334,1.829,1.9091,1.9697,1.9652,2.0462,2.1781,2.1896,0.0,0.0,0.0,0.0,0.0,0.0,0.0,0.0,2.2907,2.2907,2.2982,2.2982,0.0,0.0,0.0,0.0,0.0,2.1845,2.2222,2.2635,2.2459,2.2899,2.3429,2.3592,0.0,0.0,0.0,0.0,0.0,0.0,2.3628,2.3433,2.3985,2.4457,2.5417,2.7182,2.8111,2.8677,2.8832,2.9505,2.9739,2.9268,2.9434,2.9414,2.9053,2.8955,2.876,2.8408,2.833,2.8291,2.8291,2.8291,2.8291,2.8291,2.8291,2.8291,2.8291,2.8291,2.8105,2.7816,2.7748,2.7461,2.709,0.0,2.6689,2.6953,2.6162,2.6055,2.6348,2.5859,2.5693,2.5693,2.5693,2.5693,2.5693,0.0,0.0,0.0,0.0,0.0,0.0,0.0,0.0,0.0,0.0,0.0,0.0,0.0,0.0,0.0,0.0,0.0,0.0,0.0,0.0,1.6698,1.6912,1.6726,1.6283,1.5642,1.6866,1.7116,1.6283,1.7496,1.7716,1.6982,1.7843,1.8385,1.8627,1.9585,2.0225,2.0626,2.1278,2.1896,2.2488,0.0,0.0,0.0,0.0,0.0,0.0,0.0,0.0,0.0,0.0,2.2857,2.3058,2.2757,0.0,0.0,0.0,0.0,0.0,2.2343,2.2477,2.2763,2.3567,2.3818,2.3948,2.4177,0.0,0.0,0.0,0.0,0.0,0.0,2.5384,2.5589,2.6409,2.6543,2.6823,2.7521,2.7921,2.8249,2.8354,2.8697,2.8936,2.8881,2.8896,2.8799,2.8594,2.8584,2.8496,2.8301,2.8291,2.8291,2.8291,2.8291,2.8291,2.8291,2.8291,2.8291,2.8291,2.8291,2.8066,2.7708,2.7422,2.708,2.665,0.0,2.6152,2.6249,2.5849,2.581,2.6016,2.5762,2.5693,2.5693,2.5693,2.5693,2.5693,0.0,0.0,0.0,0.0,0.0,0.0,0.0,0.0,0.0,0.0,0.0,0.0,0.0,0.0,0.0,0.0,0.0,0.0,0.0,1.709,1.723,1.7034,1.7479,1.7228,1.6189,1.7898,1.8032,1.6439,1.8154,1.852,1.7656,1.831,1.9059,2.0001,2.0951,2.1529,2.1839,2.297,2.3426,2.3406,0.0,0.0,0.0,0.0,0.0,0.0,0.0,0.0,0.0,0.0,0.0,0.0,0.0,0.0,0.0,2.3108,2.2807,2.2543,2.2832,2.2664,2.276,2.4002,2.434,2.4521,2.5146,2.5144,0.0,0.0,0.0,0.0,0.0,2.6761,2.7201,2.8477,2.8085,2.776,2.8137,2.8061,2.8083,2.85,2.832,2.8408,2.9055,2.8638,2.8291,2.8291,2.8291,2.8291,2.8291,2.8291,2.8291,2.8291,2.8291,2.8291,2.8291,2.8193,2.8193,2.8291,2.8193,2.793,2.75,2.707,2.6641,2.6221,2.584,2.5693,2.5693,2.5693,2.5693,2.5732,2.5965,2.6052,2.6052,2.6052,2.5917,2.5693,0.0,0.0,0.0,0.0,0.0,0.0,0.0,0.0,0.0,0.0,0.0,0.0,0.0,0.0,0.0,0.0,0.0,0.0,0.0,1.7788,1.7749,1.7991,1.8801,1.9,1.8453,1.8498,1.8879,1.958,1.9485,1.9595,1.9862,1.9557,1.9985,2.1055,2.2611,2.3565,2.4079,2.4364,2.4825,2.5302,2.4349,0.0,0.0,0.0,0.0,0.0,0.0,0.0,0.0,0.0,0.0,0.0,0.0,0.0,2.3108,2.3108,2.3083,2.2945,2.2468,2.2605,2.2996,2.3598,2.4272,2.5195,2.6917,2.7779,2.8224,2.8073,0.0,0.0,0.0,2.6875,2.749,2.93,2.8585,2.8495,3.0596,2.9679,2.9223,3.0296,2.9455,2.909,2.9752,2.892,2.8291,2.8291,2.8291,2.8291,2.8291,2.8291,2.8291,2.8291,2.8291,2.8291,2.8291,2.791,2.791,2.8291,2.79,2.748,2.7051,2.6631,2.6201,2.5732,2.5703,2.5693,2.5693,2.5693,2.5693,2.5781,2.6733,2.7094,2.7094,2.7094,2.6504,2.5693,0.0,0.0,0.0,0.0,0.0,0.0,0.0,0.0,0.0,0.0,0.0,0.0,0.0,0.0,0.0,0.0,0.0,0.0,0.0,1.8317,1.8306,1.8398,1.8721,1.9024,1.924,1.9364,1.9317,1.9045,1.9292,1.9795,2.0546,2.041,2.0916,2.1956,2.3148,2.3733,2.3877,2.5211,2.5528,2.5109,2.5021,2.4808,0.0,0.0,0.0,0.0,0.0,0.0,0.0,0.0,2.3108,2.3108,2.3108,2.3108,2.3108,2.3108,2.2857,2.2543,2.2372,2.2605,2.2958,2.3157,2.3922,2.5087,2.6895,2.7143,2.7277,2.8339,2.8871,0.0,2.9169,2.9636,3.0219,3.0859,2.9894,2.9591,3.1016,3.0462,3.0133,3.0562,3.024,2.996,2.9911,2.89,2.8184,2.792,2.791,2.7783,2.7519,2.75,2.75,2.75,2.75,2.75,2.75,2.7344,2.7344,2.75,2.7334,2.7517,2.7885,2.6873,2.6811,2.7484,2.6245,2.6052,2.66,2.5965,2.6052,2.6733,2.7746,2.8121,2.8121,2.8121,2.7521,2.6648,0.0,0.0,0.0,0.0,0.0,0.0,0.0,0.0,0.0,0.0,0.0,0.0,0.0,0.0,0.0,0.0,0.0,0.0,1.8587,1.8667,1.864,1.8452,1.8721,1.9078,1.9531,1.9793,1.9587,1.8834,1.9296,2.0073,2.1162,2.1175,2.1705,2.2672,2.3472,2.3789,2.3765,2.5319,2.5511,2.4825,2.5209,2.5146,0.0,0.0,0.0,0.0,0.0,0.0,0.0,0.0,2.3108,2.3108,2.3108,2.3108,2.3108,2.3108,2.2719,2.2272,2.2096,2.2122,2.2272,2.2561,0.0,0.0,2.6931,2.7313,2.7739,2.9608,2.9893,3.0017,3.0676,3.1113,3.1472,3.1751,3.102,3.0757,3.171,3.1328,3.1021,3.1389,3.0811,3.0317,3.0212,2.9204,2.8269,2.7542,2.7762,2.7675,2.7031,2.7012,2.7012,2.7012,2.7012,2.7012,2.7012,2.6885,2.7027,2.745,2.7162,2.7502,2.826,2.7464,2.7692,2.8634,2.7258,2.702,2.7605,2.6924,2.7247,2.8215,2.8912,2.9189,2.9189,2.9189,2.8355,2.7189,0.0,0.0,0.0,0.0,0.0,0.0,0.0,0.0,0.0,0.0,0.0,0.0,0.0,0.0,0.0,0.0,0.0,0.0,1.8587,1.8854,1.8721,1.8139,1.8946,1.94,1.9396,1.9658,1.9725,1.961,1.9725,2.0507,2.1918,2.1888,2.2332,2.3133,2.3753,2.4004,2.4029,2.4594,2.4788,2.4775,2.4788,2.4788,2.48,0.0,0.0,0.0,0.0,0.0,0.0,0.0,2.3108,2.3108,2.3108,2.3108,2.3108,2.3095,2.2706,2.2184,2.1631,2.1131,2.0926,2.1803,0.0,0.0,2.7236,2.8955,3.0321,3.2159,3.1837,3.1217,3.1217,3.0717,3.0689,3.1817,3.1796,3.1982,3.3051,3.2286,3.2033,3.3051,3.1246,3.0201,3.0837,2.9787,2.8503,2.7082,2.7945,2.8036,2.7053,2.7002,2.7002,2.7002,2.7002,2.7002,2.7002,2.6592,2.7123,2.8466,2.7624,2.7448,2.7952,2.8441,2.8727,2.8727,2.8727,2.8727,2.8727,2.8727,2.928,3.0215,3.0215,3.0215,3.0215,3.0215,2.8958,2.7237,0.0,0.0,0.0,0.0,0.0,0.0,0.0,0.0,0.0,0.0,0.0,0.0,0.0,0.0,0.0,0.0,0.0,0.0,1.8881,1.896,1.8839,1.8464,1.8881,1.9044,1.8838,1.9281,1.969,2.0013,2.0068,2.0616,2.1618,2.1774,2.2526,2.3735,2.4083,2.414,2.4054,2.4971,2.4933,2.428,2.4637,2.5046,2.5322,0.0,0.0,0.0,0.0,0.0,0.0,0.0,0.0,0.0,2.3108,2.3108,2.3032,2.2644,2.2171,2.1606,2.1081,2.1732,2.2596,2.2558,0.0,0.0,0.0,2.9347,0.0,0.0,3.3332,3.2967,3.2386,3.2915,3.3266,3.262,3.2638,3.2851,3.3151,3.2951,3.2714,3.2669,3.207,3.1324,3.0444,2.9958,2.8846,2.6752,2.749,2.7496,2.6182,2.6064,2.6064,2.6064,2.6064,2.6064,2.6064,2.5947,2.6456,2.7593,2.8025,2.8849,2.9897,2.9097,2.9475,3.0734,2.9326,2.9096,2.9749,2.9749,2.9932,3.026,3.0958,3.125,3.125,3.125,3.0453,2.9326,0.0,0.0,0.0,0.0,0.0,0.0,0.0,0.0,0.0,0.0,1.8335,1.864,0.0,0.0,0.0,0.0,0.0,0.0,1.9013,1.8987,1.8881,1.8614,1.8854,1.9191,1.9573,1.969,2.0163,2.1039,2.0816,2.1197,2.2072,2.2474,2.3064,2.3829,2.43,2.427,2.3948,2.4888,2.4657,2.374,2.4732,2.5197,2.531,0.0,0.0,0.0,0.0,0.0,0.0,0.0,0.0,0.0,2.3108,2.3108,2.3045,2.2706,2.2246,2.1845,2.1888,2.237,2.3009,2.3703,2.5371,2.7427,2.9576,0.0,0.0,0.0,3.3982,3.3609,3.3291,3.3752,3.397,3.3339,3.3387,3.3515,3.3515,3.334,3.3106,3.2791,3.2349,3.1661,3.0577,3.0389,2.9327,2.6909,2.7517,2.7324,2.5791,2.5566,2.5557,2.5684,2.5693,2.5693,2.5693,2.61,2.6781,2.7793,2.8819,2.9965,3.1144,3.0262,3.0543,3.1617,3.0396,3.0215,3.0824,3.0824,3.0824,3.0869,3.1472,3.1705,3.1705,3.1705,3.1048,3.0215,0.0,0.0,0.0,0.0,0.0,0.0,0.0,0.0,0.0,0.0,1.8292,1.8721,0.0,0.0,0.0,0.0,0.0,0.0,0.0,1.9013,1.8934,1.8667,1.8907,1.966,2.0958,2.0508,2.0903,2.2234,2.1732,2.1947,2.2877,2.3591,2.381,2.3651,2.4434,2.4436,2.3828,2.4448,2.4098,2.3233,2.477,2.5146,2.4901,2.5971,0.0,0.0,0.0,0.0,0.0,0.0,0.0,0.0,2.3108,2.3078,2.3065,2.3045,2.2714,2.2585,2.3381,2.2984,2.2831,2.5036,2.6166,2.7496,3.0423,3.2551,3.4054,3.4534,0.0,3.344,3.3898,3.3633,3.344,3.385,3.3922,3.3922,3.3922,3.3573,3.3272,3.3224,3.2324,3.148,3.0997,3.0882,2.9922,2.7494,2.7831,2.7399,2.5838,2.5302,2.5243,2.5702,2.5654,2.5722,2.5906,2.6761,2.7746,2.8866,2.9704,3.0687,3.1705,3.1705,3.1705,3.1705,3.1705,3.1705,3.1705,3.1705,3.1705,3.1705,3.1705,3.1705,3.1705,3.1705,3.1104,3.0351,0.0,0.0,0.0,0.0,0.0,0.0,0.0,0.0,0.0,0.0,0.0,0.0,0.0,0.0,0.0,0.0,0.0,0.0,0.0,1.921,1.9289,1.9237,1.9289,1.9545,2.0071,2.0409,2.0936,2.1669,2.1543,2.1832,2.2439,2.3032,2.3729,2.4516,2.4705,2.4725,2.4555,2.4274,2.3766,2.3133,2.3496,2.4098,2.4813,2.5084,2.5347,0.0,0.0,0.0,0.0,0.0,0.0,0.0,2.3108,2.3017,2.2882,2.2552,2.2802,2.3121,2.3016,2.385,0.0,2.5888,2.8038,3.0338,3.2002,3.2952,3.3489,3.3597,3.344,3.344,3.3898,3.3633,3.332,3.3428,3.3452,3.3452,3.3452,3.3356,3.3128,3.2719,3.2476,3.1781,3.0491,3.1045,3.0625,2.8552,2.8198,2.7616,2.6485,2.5252,2.4914,2.5742,2.5397,2.5943,2.7402,2.7285,2.8121,2.9886,2.9679,3.0337,3.1705,3.1705,3.1705,3.1705,3.1705,3.1705,3.1705,3.1705,3.1705,3.1705,3.1705,3.1705,3.1705,3.1705,3.156,3.1383,0.0,0.0,0.0,0.0,0.0,0.0,0.0,0.0,0.0,0.0,0.0,0.0,0.0,0.0,0.0,0.0,0.0,0.0,0.0,0.0,1.9394,1.9394,1.9798,2.0093,2.0239,2.0805,2.1358,2.1882,2.2146,2.2376,2.2605,2.294,2.3604,2.4561,2.4723,2.4755,2.4633,2.4442,2.3873,2.3158,2.3697,2.4261,2.4813,2.5096,2.5536,2.5975,2.5699,0.0,0.0,0.0,0.0,0.0,0.0,0.0,2.2859,2.2561,2.2763,2.3212,2.3948,2.4627,0.0,2.6987,0.0,3.0483,3.1763,3.1898,3.2018,3.288,3.3196,3.3415,3.3761,3.3558,3.3331,3.3411,3.316,3.2911,3.2911,3.2683,3.2452,3.213,3.2094,3.1699,3.064,3.124,3.0847,2.8802,2.8488,2.7766,2.6287,2.5275,2.5042,2.5799,2.5543,2.6207,2.7869,2.7891,2.852,2.9802,2.9747,3.0142,3.097,3.1476,3.1705,3.1705,3.1705,3.1705,3.1705,3.1705,3.1705,3.1705,3.1705,3.1705,3.1705,3.1705,3.1705,3.1705,0.0,0.0,0.0,0.0,0.0,0.0,0.0,0.0,0.0,0.0,0.0,0.0,0.0,0.0,0.0,0.0,0.0,0.0,0.0,0.0,0.0,1.9608,2.022,2.0541,2.0541,2.1182,2.1707,2.2171,2.2694,2.301,2.3088,2.3197,2.3623,2.425,2.4553,2.4623,2.4569,2.4611,2.4161,2.3484,2.4412,2.4838,2.5008,2.5435,2.595,2.6436,2.5912,2.541,2.4883,2.4431,0.0,0.0,0.0,0.0,2.2787,2.2708,2.2782,2.3259,2.4886,2.5243,2.5682,2.784,2.8907,0.0,3.0749,3.061,3.0707,3.2159,3.2744,3.3124,3.3426,3.3252,3.3146,3.3305,3.266,3.2163,3.2214,3.1745,3.1428,3.1428,3.1428,3.1259,3.0783,3.1175,3.0707,2.8993,2.8671,2.7871,2.6256,2.5549,2.5476,2.6041,2.5957,2.6626,2.8121,2.8436,2.8916,2.9505,2.9896,3.0037,2.9989,3.0995,3.1428,3.1428,3.1428,3.1488,3.1573,3.1573,3.1633,3.1705,3.1705,3.1705,3.1705,3.1705,3.1705,3.1705,0.0,0.0,0.0,0.0,0.0,0.0,0.0,0.0,0.0,0.0,1.8614,1.8721,0.0,0.0,0.0,0.0,0.0,0.0,0.0,0.0,0.0,2.05,2.015,1.9911,1.9911,2.0953,2.1559,2.1594,2.2146,2.2895,2.3847,2.3879,2.3935,2.4042,2.4073,2.4349,2.4718,2.4274,2.4305,2.4575,2.4725,2.5096,2.5498,2.5573,2.595,2.6487,2.6411,2.6009,2.5485,2.541,2.4611,0.0,0.0,0.0,2.2482,2.2647,2.3152,2.3748,2.4126,0.0,2.6803,0.0,2.8919,3.003,0.0,0.0,3.1065,0.0,3.1508,3.2111,3.2762,3.2516,3.2156,3.22,3.1374,3.0792,3.1067,3.0639,3.0302,3.0302,3.0302,3.0266,3.0194,3.0254,3.02,2.9917,2.8794,2.7981,2.7728,2.6433,2.6118,2.6998,2.6601,2.7283,2.9112,2.8792,2.9056,3.0013,3.008,2.9845,2.9424,3.0025,3.0302,3.0302,3.0302,3.0555,3.1019,3.1019,3.1296,3.1705,3.1705,3.1705,3.1705,3.1705,3.1705,3.1705,0.0,0.0,0.0,0.0,0.0,0.0,0.0,0.0,0.0,0.0,0.0,1.8625,0.0,0.0,0.0,0.0,0.0,0.0,0.0,0.0,0.0,2.1131,2.0878,2.074,2.074,2.1543,2.1945,2.1945,2.2498,2.2995,2.3484,2.3484,2.3853,2.4443,2.4142,2.4305,2.4775,2.4537,2.4562,2.4788,2.4788,2.5411,2.6292,2.5803,2.6271,2.714,2.6564,2.5931,2.5411,2.5344,2.4538,2.3584,2.3477,0.0,0.0,0.0,2.2648,2.3168,2.4403,2.5793,2.709,0.0,2.8759,2.9492,2.9914,3.0008,3.0274,3.1198,3.1259,3.1241,3.1626,3.1253,3.101,3.1266,3.0694,3.0254,3.0441,3.0242,3.0086,3.0086,3.0086,2.9965,2.9677,2.9917,2.9845,2.9256,2.8916,2.8357,2.7612,2.696,2.6753,2.7185,2.7009,2.7686,2.9292,2.8798,2.8775,2.9208,2.9208,2.9076,2.8871,2.91,2.9532,3.011,3.0398,3.0663,3.0946,3.1235,3.15,3.1705,3.1705,3.1705,3.1705,3.1705,3.1705,3.1705,0.0,0.0,0.0,0.0,0.0,0.0,0.0,0.0,0.0,0.0,0.0,0.0,0.0,0.0,0.0,0.0,0.0,0.0,0.0,0.0,0.0,2.1496,2.1493,2.1493,2.1493,2.2033,2.2309,2.2309,2.2694,2.3108,2.3521,2.3095,2.3647,2.4983,2.4305,2.4305,2.4788,2.4788,2.4983,2.5247,2.5398,2.6161,2.7144,2.6449,2.6841,2.7667,2.6677,2.5936,2.5456,2.5502,2.4758,2.3798,2.3656,2.3227,0.0,0.0,0.0,2.2763,0.0,0.0,2.6418,2.7596,2.8207,2.8706,0.0,0.0,2.965,0.0,3.0684,3.029,3.0084,3.0179,3.042,3.0736,3.0243,2.9849,2.9911,2.9773,2.9689,2.9689,2.9689,2.9532,2.9136,2.946,2.9364,2.857,2.8871,2.8576,2.7388,2.7325,2.7255,2.7127,2.7127,2.7646,2.8691,2.8306,2.8114,2.8114,2.8246,2.8318,2.8318,2.845,2.8943,2.9713,3.011,3.0422,3.0742,3.1151,3.1464,3.1705,3.1705,3.1705,3.1705,3.1705,3.1705,3.1705,0.0,0.0,0.0,0.0,0.0,0.0,0.0,0.0,0.0,0.0,0.0,0.0,1.9342,1.9368,1.9394,1.942,1.963,0.0,0.0,0.0,0.0,2.1496,2.1493,0.0,2.1493,2.2033,2.2309,2.2309,2.2334,2.3145,2.4662,2.31,2.3502,2.5511,2.4469,2.4305,2.4788,2.4788,2.5423,2.6461,2.6977,2.7519,2.8023,2.7765,2.7753,2.7717,2.6941,2.6328,2.5947,2.6463,2.577,2.473,2.473,2.4265,2.3722,0.0,0.0,0.0,0.0,2.3926,0.0,2.5841,2.6995,2.7881,0.0,0.0,2.9662,2.8933,2.9119,2.9156,2.8151,2.9601,3.0935,3.0819,2.9865,2.9203,2.9309,2.8907,2.8595,2.8595,2.8595,2.8582,2.8558,2.857,2.857,2.851,2.8534,2.8278,2.7711,2.7687,2.7459,2.6918,2.6944,2.6956,2.7018,2.6994,2.697,2.6982,2.7486,2.7726,2.7777,2.8282,2.8546,2.8595,2.8619,2.9208,3.0122,3.0158,3.0802,3.1705,3.1705,3.1705,3.1705,3.1705,3.1705,3.1705,0.0,0.0,0.0,0.0,0.0,0.0,0.0,0.0,0.0,0.0,0.0,0.0,0.0,1.9486,1.9713,2.0179,2.031,0.0,0.0,0.0,0.0,2.2456,2.2209,2.2184,2.2506,2.2706,2.2807,2.2807,2.2807,2.312,2.3697,2.3095,2.3203,2.3885,2.4317,2.4612,2.4838,2.5453,2.5799,2.6013,2.7174,2.8151,2.8836,2.8089,2.8437,2.9107,2.7348,2.6808,2.6931,2.7005,2.6396,2.5587,2.5249,0.0,0.0,0.0,0.0,0.0,0.0,0.0,0.0,2.5441,2.6688,2.7641,2.7928,2.8933,2.982,2.99,2.9763,2.9638,2.9613,2.9417,2.9298,2.9376,2.8821,2.8514,2.893,2.8409,2.8086,2.8474,2.821,2.8138,2.8474,2.851,2.851,2.851,2.851,2.8282,2.7714,2.7678,2.7438,2.691,2.6898,2.6898,2.6898,2.6898,2.6898,2.691,2.7426,2.7678,2.7702,2.827,2.851,2.851,2.851,2.8919,2.9629,3.0314,3.0862,3.1235,3.1573,3.1705,3.1705,3.1705,3.1705,3.1705,0.0,0.0,0.0,0.0,0.0,0.0,0.0,0.0,1.9394,1.9394,0.0,0.0,0.0,0.0,1.9945,2.0641,2.0867,2.1119,2.1496,2.1345,2.1707,2.2782,2.2627,2.2702,2.3095,2.286,2.286,2.3017,2.2643,2.2742,2.3243,2.3044,2.3194,2.3671,2.4531,2.4701,2.4402,2.507,2.529,2.5344,2.7305,2.8549,2.9096,2.8511,2.8944,2.9611,2.7631,2.6993,2.7213,2.7714,2.7418,2.676,0.0,0.0,0.0,0.0,0.0,0.0,2.4133,0.0,0.0,0.0,2.5932,2.6711,2.7594,2.8425,2.9224,2.9891,2.9917,2.9792,2.9779,2.9085,2.851,2.8599,2.8235,2.802,2.8246,2.7849,2.7649,2.7945,2.763,2.7558,2.7906,2.8138,2.8174,2.7993,2.815,2.7933,2.7212,2.7214,2.701,2.648,2.6468,2.6431,2.6345,2.6357,2.6357,2.6357,2.7078,2.7452,2.7541,2.8252,2.8618,2.8618,2.8618,2.8891,2.9364,3.0242,3.0766,3.0927,3.15,3.1705,3.1705,3.1705,3.1705,3.1705,0.0,0.0,0.0,0.0,0.0,0.0,0.0,0.0,1.942,1.942,0.0,0.0,0.0,0.0,0.0,2.0616,2.1194,2.1493,2.1493,2.2008,2.2293,2.2305,0.0,0.0,2.3078,2.2446,2.2374,2.2878,2.1799,2.2009,2.3452,2.288,2.3494,2.505,2.5062,2.4497,2.3513,2.3696,2.3961,2.4567,2.7519,2.8699,2.8761,2.9139,2.9295,2.9184,2.7873,2.7041,0.0,2.8627,0.0,0.0,0.0,0.0,0.0,0.0,0.0,0.0,0.0,0.0,0.0,0.0,0.0,0.0,2.7248,0.0,2.773,2.865,2.9327,2.939,2.831,2.8549,2.8825,2.8624,2.8176,2.7706,2.731,2.7211,2.7136,2.6935,2.6885,2.6873,2.6898,2.7366,2.745,2.6934,2.7378,2.7224,2.6154,2.6275,2.6141,2.563,2.5606,2.5488,2.5312,2.5312,2.5312,2.5324,2.6369,2.6998,2.7247,2.8305,2.8791,2.8791,2.8803,2.8987,2.9316,2.9845,3.0374,3.0946,3.1476,3.1693,3.1705,3.1705,3.1705,3.1705,0.0,0.0,0.0,0.0,0.0,1.946,1.9552,1.963,1.9682,0.0,0.0,0.0,1.9798,2.0109,2.0232,2.0062,2.0859,2.1366,2.1366,2.1877,2.2305,2.2583,2.2695,2.2769,2.28,2.2621,2.2621,2.2769,2.2431,2.2487,2.2942,2.3145,2.3426,2.3737,2.4214,2.4226,2.3908,2.4722,2.4753,2.457,2.778,2.9142,2.942,3.0751,3.1801,3.2384,0.0,3.049,3.0923,0.0,2.9961,2.9654,0.0,0.0,0.0,0.0,0.0,0.0,2.435,0.0,0.0,0.0,0.0,0.0,0.0,0.0,2.663,2.7355,2.7664,2.7838,2.8048,2.8235,2.8298,2.8262,2.8313,2.835,2.8225,2.7629,2.7161,2.7136,2.6636,2.6515,2.7062,2.7131,2.7117,0.0,2.7131,2.6801,2.6142,2.5924,2.5693,2.5394,2.5535,2.5488,2.5312,2.5312,2.5312,2.5324,2.6541,2.7136,2.7247,2.8305,2.8791,2.8803,2.8657,2.8622,2.8775,2.9304,2.9833,3.035,3.0922,3.1368,3.1705,3.1705,3.1705,3.1705,0.0,0.0,0.0,0.0,0.0,1.9708,1.9798,1.9798,1.9773,0.0,0.0,0.0,2.002,2.0449,2.0605,2.0312,2.1079,2.1543,2.1543,2.184,2.2231,2.2696,2.2616,2.2616,2.272,2.2396,2.2353,2.2586,2.2353,2.2335,2.2518,2.3338,2.3737,2.376,2.4229,2.4618,2.4885,2.5054,2.4757,2.4496,2.8111,2.9497,2.9576,3.156,3.2796,0.0,0.0,0.0,3.2057,3.1855,3.1269,0.0,0.0,0.0,0.0,0.0,0.0,0.0,0.0,0.0,0.0,0.0,0.0,0.0,2.5733,2.6171,2.6762,2.7926,2.8175,2.8237,2.8399,2.8411,2.8373,2.8147,2.825,2.835,2.8263,2.7607,2.7091,2.6993,2.6324,2.6081,2.6627,2.6675,2.6638,2.6554,2.6638,2.6493,2.6033,2.5811,2.5723,2.5688,2.5723,2.5641,2.543,2.543,2.543,2.543,2.6737,2.736,2.7496,2.8472,2.8961,2.9028,2.8764,2.8618,2.8642,2.8875,2.9412,3.0146,3.0675,3.1247,3.1705,3.1705,3.1705,3.1705,0.0,0.0,1.9183,1.9697,1.9773,1.9759,1.9759,1.9773,1.9734,0.0,1.9732,1.9982,2.0347,2.0739,2.0974,2.1002,2.1518,2.1879,2.1879,2.1928,2.2156,2.2635,2.2463,2.2463,2.2659,2.1988,2.1886,2.2389,2.1977,2.1934,2.2306,2.3502,2.4244,2.4602,2.4691,2.5294,2.607,2.4963,2.45,2.4822,2.8591,2.9779,2.9581,3.2144,3.3152,3.3127,3.2578,3.2075,3.19,3.3308,3.2386,0.0,0.0,0.0,0.0,0.0,2.6947,0.0,0.0,0.0,0.0,0.0,2.4733,0.0,2.6321,2.6491,2.6884,2.87,2.9075,2.8938,2.8474,2.8387,2.8249,2.7823,2.7847,2.7861,2.7765,2.7318,2.6923,2.6659,2.6016,2.5688,2.5875,2.6115,2.6081,2.5677,2.6043,2.6188,2.59,2.5875,2.598,2.6166,2.6015,2.5828,2.5653,2.5641,2.5641,2.5653,2.6858,2.7557,2.7828,2.8642,2.9147,2.9341,2.8961,2.8764,2.8764,2.8578,2.9136,3.0134,3.0603,3.1187,3.1705,3.1705,3.1705,3.1705,0.0,1.8797,1.9401,1.9592,1.9539,1.9486,1.9486,1.9565,1.9591,1.9473,1.9855,2.0163,2.0234,2.0611,2.0872,2.0974,2.1389,2.166,2.166,2.2061,2.2292,2.2309,2.2247,2.2247,2.229,2.2151,2.212,2.2247,2.2573,2.2758,2.2879,2.3914,2.4685,2.5131,2.4745,2.5212,2.6263,2.501,2.5669,2.7705,2.9369,2.9961,3.0288,3.3708,3.5282,3.5596,3.5044,3.5069,3.5132,3.357,3.1535,2.9611,0.0,0.0,0.0,2.7794,0.0,0.0,0.0,0.0,0.0,0.0,0.0,0.0,2.4156,2.3438,2.2863,2.4206,2.4483,2.4615,2.5114,2.5197,2.5317,2.5617,2.6188,2.6776,2.7297,2.7153,2.6822,2.6342,2.5889,2.5688,2.5875,2.5668,2.5609,2.5805,2.5786,2.5727,2.5653,2.5793,2.591,2.5945,2.6097,2.605,2.5828,2.5828,2.5828,2.584,2.6692,2.7332,2.7804,2.826,2.8713,2.9131,2.8736,2.8538,2.8538,2.851,2.9136,3.0098,3.0206,3.0862,3.1705,3.1705,3.1705,3.1705,1.7866,1.8265,1.8718,1.9362,1.9668,1.9713,1.9431,1.9902,2.0148,1.9756,2.0345,2.0925,2.1267,2.1401,2.1541,2.1588,2.1541,2.1511,2.1511,2.1765,2.2121,2.257,2.233,2.2438,2.2999,2.2758,2.2911,2.3551,2.3441,2.3718,2.435,2.4824,2.5274,2.5685,2.5226,2.5501,2.6178,2.501,2.5779,2.7998,2.9736,3.1005,3.2134,3.4911,3.6119,3.6367,3.6056,3.578,3.524,3.3177,3.1249,0.0,2.9231,2.866,2.8177,0.0,2.7572,2.6796,0.0,0.0,0.0,2.5636,0.0,0.0,0.0,2.4323,2.3888,2.4814,2.459,2.421,2.4308,2.4119,2.3922,2.3909,2.4731,2.5411,2.5411,2.6392,2.7039,2.6776,2.6258,2.598,2.6188,2.5828,2.5641,2.5758,2.5758,2.5758,2.5758,2.5945,2.6084,2.6188,2.6201,2.6131,2.6062,2.6062,2.6062,2.6062,2.6806,2.7228,2.7406,2.8026,2.8517,2.8904,2.8733,2.8776,2.8922,2.8855,2.925,3.0002,3.0174,3.0725,3.1506,3.1884,3.2025,3.2025,1.7591,1.7751,1.8055,1.917,1.9709,1.9817,1.9377,2.0089,2.0501,2.0074,2.0829,2.162,2.2165,2.2515,2.2669,2.2573,2.2568,2.2387,2.1946,2.2018,2.2308,2.2811,2.2618,2.2927,2.3848,2.3655,2.4023,2.5101,2.4556,2.4834,2.5836,2.585,2.6058,2.6382,2.6081,2.6045,2.619,2.5275,2.6105,2.8166,3.0105,3.1868,3.3495,3.5483,3.6207,3.6267,3.6367,3.5441,3.3991,3.2637,3.1091,2.9643,2.9127,2.8577,0.0,0.0,0.0,0.0,0.0,0.0,0.0,0.0,0.0,2.5971,0.0,0.0,0.0,2.5986,0.0,0.0,0.0,0.0,0.0,2.2542,0.0,0.0,0.0,2.5041,0.0,2.6709,2.6407,2.6198,2.6246,2.5924,2.573,2.5606,2.5695,2.58,2.5898,2.6097,2.6305,2.6499,2.6339,2.627,2.627,2.627,2.627,2.6248,2.6847,2.716,2.7242,2.7916,2.8435,2.886,2.8856,2.904,2.9341,2.917,2.9288,2.9656,3.024,3.0809,3.1345,3.2135,3.24,3.24,1.7701,1.797,1.8353,1.9099,1.9153,1.9112,1.9052,1.924,1.9563,1.9949,2.0829,2.1428,2.1518,2.3341,2.4387,2.3936,2.5742,2.6,2.3936,2.4229,2.3834,2.2373,2.3156,2.3772,2.4067,2.4935,2.5563,2.5881,2.6041,2.6166,2.6335,2.6637,2.7031,2.7512,2.7221,2.7015,2.6803,2.6433,2.7923,3.0515,3.0803,3.1422,0.0,3.4735,3.5596,3.5658,3.6194,3.47,3.2423,0.0,3.0605,2.8685,0.0,2.7987,2.8496,2.7982,0.0,0.0,0.0,0.0,0.0,0.0,2.5046,0.0,0.0,0.0,2.3932,2.3522,0.0,0.0,0.0,0.0,0.0,0.0,0.0,0.0,2.1989,2.2744,2.359,2.4526,2.554,2.5946,2.5314,2.5231,2.5279,2.5581,2.5352,2.5406,2.5886,2.6097,2.6305,2.6499,2.6499,2.6465,2.6465,2.6465,2.6465,2.6465,2.6562,2.7067,2.7972,2.7902,2.8399,2.9293,2.9133,2.9091,2.9131,2.9091,2.8846,2.8613,3.0147,3.1055,3.1528,3.2191,3.24,3.24,1.8054,1.8062,1.831,1.8955,1.9305,1.9375,1.9035,1.957,2.031,2.1167,2.2144,2.2578,2.1933,2.3546,2.465,2.4566,0.0,2.594,0.0,2.4783,2.4232,2.2734,2.2787,2.3489,2.4764,2.4677,2.5425,2.714,2.6518,2.676,2.7794,2.7505,2.7306,2.7284,2.795,2.7989,2.7559,2.7126,2.8278,0.0,0.0,3.0824,0.0,3.4848,3.5818,3.5483,3.5441,3.4035,3.2123,0.0,3.0032,0.0,0.0,0.0,0.0,2.7919,0.0,0.0,0.0,0.0,0.0,0.0,0.0,0.0,2.5383,0.0,2.3818,0.0,0.0,0.0,0.0,0.0,0.0,0.0,2.12,0.0,0.0,0.0,2.2874,2.3311,0.0,0.0,2.4595,2.4752,2.5077,2.5732,2.5167,2.5169,2.6013,2.6258,2.6396,2.6499,2.6499,2.6499,2.6499,2.6499,2.6499,2.6499,2.6813,2.7145,2.7488,2.8027,2.8524,2.8984,2.9178,2.9365,2.9507,2.9507,2.937,2.9296,3.0642,3.0993,3.0972,3.2288,3.2822,3.2822,1.8518,0.0,0.0,1.9119,1.9435,1.9507,1.9266,2.0145,2.1157,2.2065,2.3144,2.3505,2.2702,2.4379,2.5643,0.0,2.7004,2.7213,0.0,2.572,2.5005,2.357,2.2939,2.367,2.5876,2.5151,2.5888,2.8297,2.7316,2.7424,2.8572,2.812,2.7618,2.715,2.8387,2.8785,2.8529,0.0,2.9165,3.0968,3.082,3.1088,3.1888,3.4668,3.5441,3.5044,3.4944,3.3627,3.1951,3.1671,2.992,0.0,2.8874,2.8176,2.7189,0.0,0.0,0.0,2.6324,0.0,0.0,0.0,0.0,0.0,0.0,0.0,0.0,0.0,0.0,0.0,0.0,0.0,0.0,0.0,0.0,2.1207,0.0,2.1392,0.0,0.0,0.0,0.0,0.0,2.3825,2.429,2.5369,2.4748,2.4859,2.6139,2.6396,2.6499,2.6499,2.6499,2.6499,2.6499,2.6499,2.6499,2.6499,2.7052,2.7285,2.734,2.8251,2.8786,2.8999,2.9185,2.9462,2.9779,2.9616,2.9641,2.9905,3.0972,3.1066,3.0795,3.2474,3.3124,3.3124,1.9071,1.8963,0.0,1.9688,1.9375,1.9179,1.97,2.067,2.1572,2.2125,2.3144,2.3794,2.3758,0.0,0.0,0.0,0.0,3.1547,2.8495,0.0,2.6721,0.0,0.0,2.4893,0.0,2.7225,2.7736,2.9067,2.8821,2.8487,2.8037,2.8325,2.821,2.7717,2.8545,2.9199,2.9663,2.9828,3.1306,3.3457,3.2922,3.2722,3.2853,0.0,3.3972,3.4085,3.5094,0.0,0.0,3.1855,3.0478,0.0,0.0,0.0,0.0,0.0,0.0,0.0,0.0,0.0,0.0,2.548,0.0,0.0,0.0,0.0,2.4975,0.0,0.0,0.0,0.0,0.0,0.0,0.0,0.0,0.0,0.0,0.0,0.0,0.0,0.0,0.0,0.0,2.2163,2.25,2.4226,2.3828,2.432,2.6079,2.6396,2.6499,2.6499,2.6499,2.6499,2.6499,2.6499,2.6499,2.6499,2.7052,2.7557,2.8097,2.8637,2.9201,2.9729,2.9151,2.9226,2.9741,2.9189,2.9289,2.9905,3.0972,3.1386,3.1499,3.2654,3.3124,3.3124,0.0,0.0,0.0,0.0,0.0,1.93,2.0189,2.1247,2.2549,2.4284,2.546,2.6298,0.0,2.8456,2.9547,0.0,0.0,3.0826,2.8569,2.789,0.0,0.0,0.0,2.4568,0.0,0.0,2.6142,2.7656,2.7579,2.7444,2.7288,2.8102,2.7849,2.6707,2.823,2.9487,0.0,0.0,0.0,0.0,0.0,3.1476,3.2354,0.0,3.2946,3.2764,3.3602,3.283,0.0,3.1142,3.0024,2.8749,2.8961,2.8512,2.799,2.8449,2.825,2.7792,0.0,0.0,2.7631,2.636,0.0,0.0,0.0,0.0,0.0,0.0,0.0,0.0,0.0,0.0,0.0,0.0,0.0,0.0,0.0,0.0,0.0,0.0,0.0,0.0,0.0,0.0,2.296,2.4372,2.433,2.4855,2.6321,2.6465,2.6499,2.6499,2.6499,2.6663,2.704,2.6675,2.6864,2.7557,2.7733,2.7921,2.8122,2.8674,2.9001,2.9176,2.8976,2.9252,2.9804,2.9967,3.0168,3.0444,3.1512,3.1938,3.2026,3.2792,3.3124,3.3124,1.97,0.0,0.0,0.0,0.0,1.9636,2.073,2.2101,2.3812,2.5981,2.7383,0.0,2.9273,0.0,3.1092,0.0,3.1768,3.1137,2.8815,2.8793,0.0,2.6453,2.5444,2.6078,0.0,0.0,0.0,0.0,2.7115,2.6789,2.6621,2.769,2.7572,2.6442,2.7642,2.9398,3.1366,3.0626,3.1955,0.0,0.0,3.0572,0.0,0.0,3.1435,3.1763,0.0,3.2177,3.1336,3.0997,3.0077,2.9149,2.964,2.9124,2.8412,2.8949,2.8711,2.8263,2.799,2.8325,0.0,2.7127,2.7152,0.0,2.5972,0.0,2.4924,0.0,0.0,0.0,0.0,0.0,0.0,0.0,0.0,0.0,0.0,2.0374,0.0,0.0,0.0,0.0,0.0,2.1198,2.21,2.3796,2.3908,2.4489,2.5778,2.6427,2.6788,2.6788,2.6977,2.7218,2.757,2.7218,2.7442,2.8109,2.8298,2.8361,2.8411,2.8976,2.9239,2.9227,2.8976,2.9327,3.0093,3.0256,3.0658,3.126,3.1938,3.234,3.2566,3.2943,3.3124,3.3124,1.9167,1.9071,0.0,0.0,1.9868,0.0,0.0,0.0,2.5212,0.0,2.8748,3.0127,3.1062,3.2189,3.289,3.2872,3.3496,3.2546,2.9532,3.0512,0.0,0.0,2.8198,2.9263,3.1046,0.0,0.0,0.0,0.0,2.6585,2.6117,2.7188,2.7378,2.6898,2.6861,0.0,3.2161,3.1169,3.281,3.5805,3.227,3.0211,2.9147,2.863,2.9537,3.1162,3.1893,3.1813,3.1348,3.1348,3.0658,2.9792,2.9792,2.9792,2.9792,2.9792,2.9792,2.964,2.8949,2.8774,2.8586,2.7804,2.7607,0.0,0.0,0.0,2.5606,0.0,0.0,0.0,0.0,0.0,0.0,0.0,0.0,0.0,0.0,0.0,1.964,0.0,0.0,0.0,0.0,1.9773,2.0091,2.2511,2.2702,2.3288,0.0,2.6283,2.7231,2.7281,2.7821,2.8122,2.8147,2.8122,2.8134,2.8197,2.865,2.8888,2.8913,2.9503,2.9754,2.9716,2.9126,2.9527,3.057,3.008,3.0796,3.2215,3.224,3.2591,3.3124,3.3124,3.3124,3.3124,2.0141,2.0201,2.0237,0.0,2.073,2.1079,0.0,0.0,0.0,0.0,2.9782,3.1685,3.4677,3.4159,3.3759,3.4172,3.3684,0.0,0.0,0.0,0.0,3.0888,2.9685,2.9658,3.1058,2.86,2.7406,2.7724,0.0,0.0,2.6105,2.6777,2.7018,2.6873,0.0,2.7619,2.9768,2.9096,2.9905,3.1559,3.0606,2.9813,2.9184,0.0,2.9754,3.0589,3.1329,3.126,3.0821,3.0821,3.0357,2.9792,2.9792,2.9792,2.9792,2.9792,2.9792,2.9767,2.9577,2.9802,2.9925,2.917,2.9293,2.9403,0.0,0.0,0.0,0.0,0.0,0.0,0.0,0.0,0.0,0.0,0.0,0.0,0.0,0.0,0.0,1.9095,0.0,0.0,1.9489,2.0058,2.1047,2.2591,2.2702,2.3653,2.5891,0.0,2.6311,2.7256,2.7821,2.8298,2.8675,2.831,2.8524,2.9352,2.9026,2.8888,2.89,2.9051,2.9113,2.9101,2.895,2.9527,3.0633,3.0884,3.1474,3.2252,3.2692,3.2943,3.3124,3.3124,3.3124,3.3124,2.055,2.0983,2.1235,2.1007,0.0,0.0,2.297,2.3827,0.0,2.8825,3.0355,0.0,3.4215,3.4542,3.465,3.4668,3.4161,0.0,3.2092,0.0,0.0,3.2042,3.1734,3.1809,3.2322,3.0131,0.0,2.8119,0.0,0.0,2.5769,2.6525,2.6898,2.6885,0.0,2.7509,2.9309,3.0147,3.0331,3.0072,3.091,3.0725,0.0,2.9903,3.0381,3.111,3.1069,3.0871,3.0583,3.0331,3.0043,2.9792,2.9792,2.9792,2.9792,2.9792,2.9792,2.9842,3.0093,3.0382,3.0555,3.0376,3.0548,3.0595,2.9849,2.945,2.9091,0.0,2.7903,2.7151,0.0,0.0,0.0,0.0,0.0,0.0,0.0,0.0,0.0,0.0,1.967,0.0,1.9399,2.0261,2.1145,2.1861,2.2132,2.2887,2.4325,0.0,2.6205,2.7137,2.795,2.8662,2.9302,2.8675,2.8838,2.9792,2.9465,2.9302,2.9302,2.9302,2.9302,2.9315,2.9527,3.0156,3.0997,3.1537,3.2077,3.2616,3.2955,3.3124,3.3124,3.3124,3.3124,3.3124,2.0694,2.1572,0.0,0.0,0.0,0.0,0.0,2.5194,0.0,2.9184,0.0,3.1888,3.2516,3.4209,3.5144,3.4818,3.4718,3.4047,3.2541,3.4385,3.4598,3.2529,3.3896,3.4462,3.3909,3.2055,3.0493,0.0,0.0,0.0,2.554,2.6237,0.0,0.0,0.0,0.0,0.0,3.1956,3.1806,3.0047,3.194,3.2033,3.1046,3.0677,3.1235,3.2077,3.1009,3.062,3.0532,2.998,2.9792,2.9792,2.9792,2.9792,2.9792,2.9792,2.9842,3.0005,3.0482,3.0721,3.0934,3.1386,3.1549,3.1446,3.082,3.0617,3.0254,2.9128,2.8781,2.836,0.0,0.0,0.0,0.0,0.0,0.0,0.0,0.0,0.0,0.0,0.0,0.0,0.0,2.0254,2.0694,2.0986,2.1214,2.1597,2.2157,0.0,2.6372,2.7229,2.8288,2.9099,2.964,2.9112,2.9112,2.9653,2.9754,2.9792,2.9792,2.9792,2.9829,2.993,3.0407,3.0947,3.1537,3.2014,3.2554,3.3124,3.3124,3.3124,3.3124,3.3124,3.3124,3.3124,2.1175,0.0,0.0,0.0,0.0,2.5501,2.693,2.784,2.9147,3.122,3.1717,3.2804,3.5345,3.4763,3.4512,3.5282,3.4944,0.0,0.0,0.0,0.0,3.4886,3.4768,3.4462,3.3909,3.2055,3.0679,0.0,0.0,0.0,2.6585,2.5445,0.0,0.0,0.0,0.0,2.7822,2.9157,0.0,2.948,3.1369,3.1738,3.1162,3.1676,3.201,3.2077,3.1009,3.062,3.0532,2.998,2.9792,2.9792,2.9792,2.9792,2.9792,2.9792,3.0118,3.0495,3.0583,3.126,3.1951,3.2051,3.2428,3.2754,3.2624,3.2223,3.1793,3.1592,3.0813,2.9824,2.8599,0.0,0.0,0.0,0.0,0.0,0.0,0.0,0.0,0.0,0.0,2.1565,0.0,0.0,1.9927,2.1462,2.0273,2.1002,2.4566,0.0,2.5915,0.0,2.9251,2.9389,0.0,0.0,2.9376,2.8912,2.9489,2.9792,2.9792,2.9792,3.0043,3.0482,3.057,3.1173,3.2077,3.2177,3.2554,3.3124,3.3124,3.3124,3.3124,3.3124,3.3124,3.3124,2.2582,0.0,0.0,0.0,0.0,0.0,0.0,3.0963,3.195,3.1643,3.205,3.2698,3.3621,3.4329,3.4806,3.5056,3.5094,3.5332,3.5931,3.5968,3.5843,3.5508,3.4969,3.4462,3.3909,3.2744,3.1286,2.9591,0.0,0.0,2.6045,0.0,0.0,2.6898,0.0,2.738,0.0,0.0,0.0,3.0381,3.2516,3.2889,3.2176,3.2524,3.2667,3.2554,3.1738,3.1449,3.1273,3.0168,2.9792,2.9792,2.9792,2.9792,2.9792,2.9792,2.998,3.0319,3.0871,3.1386,3.1926,3.2516,3.2867,3.3124,3.3124,3.2867,3.2491,3.1901,3.1599,3.0941,2.9397,2.7137,0.0,0.0,0.0,0.0,0.0,0.0,2.5179,0.0,0.0,0.0,0.0,0.0,0.0,0.0,0.0,0.0,0.0,0.0,2.5896,0.0,0.0,0.0,2.9263,0.0,2.9538,2.9275,2.9916,3.0068,2.9804,3.0093,3.0369,3.0645,3.121,3.1738,3.224,3.2541,3.283,3.3124,3.3124,3.3124,3.3124,3.3124,3.3124,3.3124,2.4331,2.4237,0.0,0.0,2.8086,2.9819,3.1165,3.3339,3.4229,3.2347,3.2771,3.2983,3.2359,3.4222,3.532,3.4893,3.5357,3.5855,3.6169,3.6194,3.5994,3.552,3.4856,3.4349,3.3909,3.3357,3.1997,0.0,0.0,0.0,0.0,0.0,0.0,0.0,0.0,0.0,0.0,0.0,3.2473,3.1851,3.3884,3.4135,3.3244,3.3162,3.3124,3.3006,3.2416,3.2215,3.2001,3.0608,3.0131,3.0118,3.0005,2.9967,2.9967,2.9967,3.0043,3.0344,3.1298,3.165,3.1964,3.2898,3.3124,3.3124,3.3124,3.3124,3.2872,3.1926,3.1901,3.1496,2.9658,2.8089,0.0,0.0,0.0,0.0,0.0,0.0,0.0,0.0,0.0,0.0,2.3124,0.0,0.0,0.0,0.0,0.0,2.2983,0.0,0.0,0.0,0.0,2.8974,2.9488,0.0,2.9899,2.9928,3.048,3.0545,3.0143,3.0583,3.0846,3.1009,3.1838,3.2277,3.2428,3.288,3.3124,3.3124,3.3124,3.3124,3.3124,3.3124,3.3124,3.3124,0.0,0.0,0.0,0.0,0.0,3.0387,3.1726,3.3902,3.5345,3.5144,3.4768,3.4856,3.5793,3.5692,3.547,3.542,3.5968,3.6094,3.5608,3.5571,3.5558,3.5495,3.4537,3.3947,3.3897,3.3357,3.2632,0.0,0.0,2.8686,0.0,0.0,0.0,0.0,0.0,0.0,0.0,3.2754,3.357,3.369,3.4392,3.4361,3.3771,3.3269,3.3124,3.3006,3.2416,3.2215,3.2114,3.1461,3.1235,3.116,3.0683,3.0545,3.0545,3.0545,3.0871,3.1373,3.1976,3.2516,3.2986,3.3056,3.3124,3.3124,3.3124,3.3124,3.3086,3.2943,3.2152,3.0919,2.9098,2.8226,2.7592,0.0,0.0,0.0,0.0,0.0,2.9013,2.7802,0.0,0.0,2.4932,2.228,0.0,0.0,2.1811,0.0,0.0,0.0,0.0,2.8537,2.8649,2.8661,2.8546,3.0336,3.0916,3.0241,3.0979,3.1286,3.1235,3.1298,3.1587,3.2077,3.2177,3.2503,3.3006,3.3099,3.3124,3.3124,3.3124,3.3124,3.3124,3.3124,3.3124,3.3124,0.0,0.0,0.0,0.0,0.0,0.0,0.0,3.5207,3.5918,3.5545,3.5307,3.5207,3.5366,3.5177,3.5006,3.5006,3.5253,3.529,3.5019,3.5006,3.4856,3.4575,3.4135,3.3746,3.342,3.3194,3.2557,0.0,0.0,0.0,0.0,0.0,0.0,0.0,0.0,3.1554,3.2244,3.3995,3.441,3.3947,3.45,3.4198,3.3382,3.3156,3.3124,3.3086,3.2817,3.2729,3.2704,3.2478,3.1951,3.1298,3.0783,3.062,3.0557,3.0218,3.0507,3.1047,3.1574,3.2127,3.2641,3.2993,3.3124,3.3124,3.3124,3.3124,3.298,3.2629,3.1687,3.0781,3.039,2.9274,2.8438,2.8575,0.0,0.0,0.0,0.0,0.0,2.8027,0.0,2.5546,0.0,2.2688,0.0,0.0,0.0,0.0,0.0,0.0,0.0,2.7544,0.0,2.9585,2.9082,3.0938,3.1571,3.0963,3.1583,3.1712,3.1399,3.1738,3.219,3.2729,3.2729,3.2867,3.3124,3.3124,3.3124,3.3124,3.3124,3.3124,3.3124,3.3124,3.3282,3.352,3.1356,0.0,3.1244,0.0,3.3526,3.3826,3.5508,3.5981,3.5931,3.5332,3.5119,3.4931,3.4705,3.468,3.4663,3.45,3.4625,3.4605,3.45,3.4474,3.4311,3.3922,3.3746,0.0,3.3124,3.3124,3.2649,3.1693,3.0158,0.0,0.0,0.0,0.0,0.0,3.2562,3.3071,3.3202,3.466,3.4718,3.3935,3.4324,3.401,3.3307,3.3144,3.3124,3.3124,3.3124,3.3124,3.3124,3.3124,3.2428,3.1574,3.1198,3.1085,3.1009,3.062,3.0783,3.1198,3.1738,3.2164,3.2566,3.2968,3.3124,3.3124,3.3124,3.3124,3.2867,3.2114,3.1373,3.0859,3.0909,2.9902,2.9062,2.9213,0.0,0.0,0.0,2.9552,0.0,2.8027,2.6776,2.6013,2.5985,2.3684,0.0,0.0,0.0,0.0,0.0,0.0,0.0,0.0,0.0,0.0,2.998,3.1642,3.2265,3.1888,3.2277,3.2265,3.1901,3.229,3.2692,3.3124,3.3124,3.3124,3.3124,3.3124,3.3124,3.3124,3.3124,3.3124,3.3124,3.3124,3.342,3.3847,3.2406,3.211,3.2593,3.5796,3.5265,3.4824,3.6182,3.5893,3.5307,3.4756,3.4261,3.4123,3.4618,3.468,3.45,3.396,3.4412,3.45,3.3947,3.3909,3.3909,0.0,0.0,3.3124,3.3124,3.3124,3.3111,3.3056,0.0,0.0,3.1058,0.0,3.1475,3.2804,3.337,3.3695,3.3922,3.45,3.4412,3.3897,3.3909,3.3897,3.3834,3.3282,3.3124,3.3124,3.3124,3.3124,3.3124,3.3124,3.2692,3.2202,3.219,3.219,3.219,3.219,3.219,3.2315,3.2905,3.3056,3.3111,3.3124,3.3124,3.3124,3.3124,3.3124,3.2797,3.1637,3.1386,3.106,3.0005,2.9792,2.9389,2.8138,0.0,0.0,0.0,2.9025,0.0,2.8027,2.6776,2.6505,2.7765,2.5551,0.0,0.0,0.0,0.0,0.0,0.0,0.0,2.9395,2.9495,0.0,3.1058,3.2419,3.3111,3.3056,3.3111,3.3111,3.3056,3.3111,3.3111,3.3124,3.3124,3.3124,3.3124,3.3124,3.3124,3.3124,3.3124,3.3124,3.3124,3.3124,3.342,3.3897,3.444,3.412,3.4145,3.5533,3.5424,3.5299,3.5708,3.5608,3.5169,3.4286,3.401,3.3822,3.3621,3.3608,3.3684,0.0,3.3721,3.3533,0.0,3.3332,3.3332,3.3332,3.3212,3.3124,3.3124,3.3124,3.3124,3.3124,0.0,0.0,0.0,3.2388,3.3021,3.3583,3.4122,3.4159,3.3935,3.4487,3.4399,3.3897,3.3897,3.3671,3.3319,3.3144,3.3124,3.3124,3.3124,3.3124,3.3124,3.3124,3.2955,3.2805,3.2805,3.2265,3.165,3.165,3.1913,3.2252,3.2441,3.278,3.3124,3.3124,3.3124,3.3124,3.3124,3.3124,3.2867,3.2102,3.165,3.1173,3.0482,3.0043,2.9679,2.9238,2.9527,0.0,2.9238,0.0,2.8014,2.6763,2.549,2.5222,2.6493,2.5102,0.0,0.0,0.0,0.0,0.0,0.0,0.0,0.0,3.0259,0.0,3.1083,3.2431,3.3124,3.3124,3.3124,3.3124,3.3124,3.3124,3.3124,3.3124,3.3124,3.3124,3.3124,3.3124,3.3124,3.3124,3.3124,3.3124,3.3124,3.3124,3.3658,3.4412,3.4818,3.4768,3.4826,3.5132,3.5194,3.5194,3.5194,3.5019,3.4675,3.3985,3.3721,3.3458,3.3162,3.3124,0.0,3.3558,3.3269,3.3124,3.3124,3.3124,3.3124,3.3124,3.3124,3.3124,3.3124,3.3124,0.0,3.3124,3.2251,3.2047,3.2439,3.3296,3.3796,3.3922,3.4474,3.4412,3.3922,3.4274,3.4098,3.3583,3.3583,3.3382,3.3124,3.3124,3.3124,3.3124,3.3124,3.3124,3.3124,3.3124,3.293,3.2792,3.3048,3.2441,3.1738,3.1964,3.2265,3.2541,3.2541,3.2805,3.3124,3.3124,3.3124,3.3124,3.3124,3.3124,3.2918,3.2328,3.1775,3.1235,3.0708,3.0168,2.9792,2.9792,2.9792,2.9641,2.9151,0.0,2.7418,0.0,0.0,0.0,0.0,2.6165,2.6251,0.0,0.0,0.0,0.0,0.0,2.8598,2.9307,3.1188,3.2068,3.183,3.2687,3.3124,3.3124,3.3124,3.3124,3.3124,3.3124,3.3124,3.3124,3.3124,3.3124,3.3124,3.3124,3.3124,3.3124,3.3124,3.3124,3.3124,3.3124,3.3771,3.4638,3.3884,3.4274,3.4625,3.4663,3.4618,3.4618,3.4618,3.4223,3.3884,3.3847,3.3395,3.3124,3.3124,3.3124,3.3124,3.3124,0.0,0.0,3.3124,3.3124,3.3124,3.3124,3.3124,3.3124,3.3124,3.3124,3.3124,3.3124,3.3162,3.3156,3.3206,3.3721,3.396,3.3972,3.4449,3.4361,3.3847,3.3847,3.3545,3.3124,3.3124,3.3124,3.3124,3.3124,3.3124,3.3124,3.3124,3.3124,3.3124,3.3124,3.2717,3.2365,3.2905,3.2704,3.2378,3.2918,3.3124,3.3124,3.3124,3.3124,3.3124,3.3124,3.3124,3.3124,3.3124,3.3124,3.2918,3.2328,3.1775,3.1235,3.0708,3.0168,2.9792,2.9792,2.9729,2.9238,2.8088,2.784,2.7331,0.0,0.0,0.0,2.7865,2.845,2.9036,0.0,0.0,0.0,0.0,0.0,2.9181,3.2085,3.2252,3.2528,3.3111,3.3124,3.3124,3.3124,3.3124,3.3124,3.3124,3.3124,3.3124,3.3124,3.3124,3.3124,3.3124,3.3124,3.3124,3.3124,3.3124,3.3124,3.3124,3.3124,3.3771,3.465,0.0,0.0,3.3596,3.4022,3.4098,3.4098,3.4098,3.3985,3.3746,3.3319,3.3156,3.3124,3.3124,3.3124,3.3124,3.3124,3.3124,3.3124,3.3124,3.3124,3.3124,3.3124,3.3124,3.3124,3.3124,3.3124,3.3124,3.3124,3.3495,3.3922,3.4336,3.4462,3.4525,3.4512,3.4223,3.3784,3.3269,3.3269,3.3206,3.3124,3.3124,3.3124,3.3124,3.3124,3.3124,3.3124,3.3124,3.3124,3.3124,3.3124,3.3023,3.2893,3.3031,3.298,3.2905,3.3074,3.3124,3.3124,3.3124,3.3124,3.3124,3.3124,3.3124,3.3124,3.3124,3.3124,3.2918,3.2328,3.1775,3.1235,3.0708,3.0168,2.9792,2.9792,2.8962,2.8238,2.7939,2.706,2.6334,0.0,2.6484,2.726,2.8388,2.8985,2.9397,0.0,0.0,3.0356,3.0356,3.0301,3.0867,3.2135,3.2641,3.2943,3.3124,3.3124,3.3124,3.3124,3.3124,3.3124,3.3124,3.3124,3.3124,3.3124,3.3124,3.3124,3.3124,3.3124,3.3124,3.3124,3.3124,3.3124,3.3124,3.3124,3.3771,3.4655,3.347,3.3282,3.3212,3.347,3.352,3.352,3.352,3.352,3.342,3.3162,3.3124,3.3124,3.3124,3.3124,3.3124,3.3124,3.3124,3.3124,3.3124,3.3124,3.3124,3.3124,3.3124,3.3124,3.3124,3.3124,3.3124,3.3124,3.337,3.3671,3.3972,3.3972,3.3972,3.396,3.3658,3.3357,3.3124,3.3124,3.3124,3.3124,3.3124,3.3124,3.3124,3.3124,3.3124,3.3124,3.3124,3.3124,3.3124,3.3124,3.3124,3.3124,3.3124,3.3124,3.3124,3.3124,3.3124,3.3124,3.3124,3.3124,3.3124,3.3124,3.3124,3.3124,3.3124,3.3124,3.2993,3.2667,3.2152,3.1599,3.1072,3.0532,3.0093,2.9829,2.895,2.8188,2.7939,2.7011,2.6593,2.7172,2.7717,2.8549,2.9799,3.0398,3.0623,3.0373,3.086,0.0,3.1173,3.1697,3.2176,3.2604,3.3156,3.3332,3.3124,3.3124,3.3206,3.3458,3.3458,3.3583,3.3822,3.3571,3.3458,3.3432,3.3224,3.3124,3.3124,3.3124,3.3124,3.3124,3.3124,3.3124,3.3106,3.3357,3.3985,3.468,3.3124,3.3124,3.3124,3.3124,3.3124,3.3124,3.3124,3.3124,3.3124,3.3124,3.3124,3.3124,3.3124,3.3124,3.3124,3.3124,3.3124,3.3124,3.3124,3.3124,3.3124,3.3124,3.3124,3.3124,3.3124,3.3124,3.3124,3.3124,3.3124,3.3162,3.3206,3.3162,3.3162,3.3206,3.3162,3.3124,3.3124,3.3124,3.3124,3.3124,3.3124,3.3124,3.3124,3.3124,3.3124,3.3124,3.3124,3.3124,3.3124,3.3124,3.3124,3.3124,3.3124,3.3124,3.3124,3.3124,3.3124,3.3124,3.3124,3.3124,3.3124,3.3124,3.3124,3.3124,3.3124,3.3124,3.3124,3.3124,3.2616,3.2077,3.1599,3.1085,3.052,2.9996,2.9125,2.8388,2.8075,0.0,2.7384,2.8674,2.9459,3.0336,3.1424,3.2014,3.2152,3.1675,3.2077,3.234,3.234,3.2893,3.3206,3.3206,3.3658,3.3721,3.3332,3.3319,3.3558,3.4022,3.4022,3.4274,3.4655,3.4148,3.3897,3.3872,3.3319,3.3124,3.3124,3.3212,3.3156,3.3124,3.3212,3.3206,3.3257,3.3721,3.4299,3.4806,3.3124,3.3124,3.3124,3.3124,3.3124,3.3124,3.3124,3.3124,3.3124,3.3124,3.3124,3.3124,3.3124,3.3124,3.3124,3.3124,3.3124,3.3124,3.3124,3.3124,3.3124,3.3124,3.3124,3.3124,3.3124,3.3124,3.3124,3.3124,3.3124,3.3319,3.3759,3.3294,3.3319,3.3759,3.3282,3.3124,3.3124,3.3124,3.3124,3.3124,3.3124,3.3124,3.3124,3.3124,3.3124,3.3124,3.3124,3.3124,3.3124,3.3124,3.3124,3.3124,3.3124,3.3124,3.3124,3.3124,3.3124,3.3124,3.3124,3.3124,3.3124,3.3124,3.3124,3.3124,3.3124,3.3124,3.3124,3.3124,3.2616,3.219,3.2102,3.1637,3.1082,3.0496,2.8913,2.794,2.8486,0.0,2.794,2.9234,3.0813,3.1859,3.2077,3.2604,3.2948,3.2817,3.2893,3.2943,3.2943,3.347,3.3771,3.3771,3.3859,3.4085,3.4462,3.4462,3.4512,3.46,3.46,3.4638,3.4655,3.4148,3.3897,3.3872,3.3319,3.3124,3.3162,3.3583,3.3495,3.3174,3.3583,3.3771,3.3784,3.3872,3.455,3.537,3.3124,3.3124,3.3124,3.3124,3.3124,3.3124,3.3124,3.3124,3.3124,3.3124,3.3124,3.3124,3.3124,3.3124,3.3124,3.3124,3.3124,3.3124,3.3124,3.3124,3.3124,3.3124,3.3124,3.3124,3.3124,3.3124,3.3124,3.3124,3.3124,3.3206,3.3445,3.3237,3.3219,3.3445,3.3194,3.3124,3.3124,3.3124,3.3124,3.3124,3.3124,3.3124,3.3124,3.3124,3.3124,3.3124,3.3124,3.3124,3.3124,3.3124,3.3124,3.3124,3.3124,3.3124,3.3124,3.3124,3.3124,3.3124,3.3124,3.3124,3.3124,3.3124,3.3124,3.3124,3.3124,3.3124,3.3124,3.3124,3.2867,3.2591,3.2277,3.2001,3.1564,3.079,2.9745,2.9251,2.9774,2.9391,2.9543,3.0798,3.1709,3.234,3.2641,3.2918,3.3124,3.3124,3.3357,3.352,3.352,3.4035,3.4474,3.4731,3.45,3.4613,3.5119,3.4818,3.4831,3.5119,3.5119,3.5316,3.5592,3.5039,3.4743,3.4738,3.3884,3.3684,3.3935,3.3596,3.3658,3.3935,3.3583,3.3822,3.4349,3.4349,3.4806,3.5545,3.3124,3.3124,3.3124,3.3124,3.3124,3.3124,3.3124,3.3124,3.3124,3.3124,3.3124,3.3124,3.3124,3.3124,3.3124,3.3124,3.3124,3.3124,3.3124,3.3124,3.3124,3.3124,3.3124,3.3124,3.3124,3.3124,3.3124,3.3124,3.3124,3.3124,3.3124,3.3124,3.3124,3.3124,3.3124,3.3124,3.3124,3.3124,3.3124,3.3124,3.3124,3.3124,3.3124,3.3124,3.3124,3.3124,3.3124,3.3124,3.3124,3.3124,3.3124,3.3124,3.3124,3.3124,3.3124,3.3124,3.3124,3.3124,3.3124,3.3124,3.3124,3.3124,3.3124,3.3124,3.3124,3.3124,3.3124,3.3124,3.3124,3.2943,3.2491,3.2416,3.212,3.1268,0.0,3.062,3.1074,3.0771,3.0941,3.2248,3.2416,3.2591,3.3074,3.3124,3.3124,3.3124,3.3583,3.3847,3.3721,3.4474,3.5119,3.5671,3.5328,3.5303,3.573,3.5316,3.5316,3.5683,3.5683,3.5956,3.6392,3.5805,3.5495,3.5445,3.4512,3.4324,3.4663,3.3947,3.4073,3.465,3.3935,3.4173,3.4868,3.4868,3.5219,3.5805,3.3124,3.3124,3.3124,3.3124,3.3124,3.3124,3.3124,3.3124,3.3124,3.3124,3.3124,3.3124,3.3124,3.3124,3.3124,3.3124,3.3124,3.3124,3.3124,3.3124,3.3124,3.3124,3.3124,3.3124,3.3124,3.3124,3.3124,3.3124,3.3124,3.3124,3.3124,3.3124,3.3124,3.3124,3.3124,3.3124,3.3124,3.3124,3.3124,3.3124,3.3124,3.3124,3.3124,3.3124,3.3124,3.3124,3.3124,3.3124,3.3124,3.3124,3.3124,3.3124,3.3124,3.3124,3.3124,3.3124,3.3124,3.3124,3.3124,3.3124,3.3124,3.3124,3.3124,3.3124,3.3124,3.3124,3.3124,3.3124,3.3124,3.3111,3.3018,3.3018,3.2841,3.2179,0.0,0.0,3.1999,3.1473,3.1514,3.288,3.3018,3.3031,3.3124,3.3124,3.3124,3.3124,3.3583,3.3671,3.3212,3.4625,3.5742,3.6329,3.6317,3.6304,3.6342,3.6304,3.6304,3.6342,3.6342,3.6367,3.6392,3.5805,3.5495,3.547,3.4868,3.4675,3.4705,3.5144,3.5069,3.4718,3.5144,3.537,3.5445,3.5445,3.583,3.6355,3.3124,3.3124,3.3124,3.3124,3.3124,3.3124,3.3124,3.3124,3.3124,3.3124,3.3124,3.3124,3.3124,3.3124,3.3124,3.3124,3.3124,3.3124,3.3124,3.3124,3.3124,3.3124,3.3124,3.3124,3.3124,3.3124,3.3124,3.3124,3.3124,3.3124,3.3124,3.3124,3.3124,3.3124,3.3124,3.3124,3.3124,3.3124,3.3124,3.3124,3.3124,3.3124,3.3124,3.3124,3.3124,3.3124,3.3124,3.3124,3.3124,3.3124,3.3124,3.3124,3.3124,3.3124,3.3124,3.3124,3.3124,3.3124,3.3124,3.3124,3.3124,3.3124,3.3124,3.3124,3.3124,3.3124,3.3124,3.3124,3.3124,3.3124,3.3124,3.3124,3.2904,3.2429,0.0,3.2357,3.2339,3.2349,3.2519,3.3031,3.3124,3.3124,3.3124,3.3382,3.3583,3.3583,3.4412,3.4781,3.4613,3.5529,3.6144,3.6405,3.6405,3.6405,3.6405,3.6405,3.6405,3.6405,3.6405,3.6405,3.6405,3.6144,3.6056,3.6019,3.5466,3.5429,3.5705,3.5228,3.5316,3.5692,3.5215,3.5454,3.6006,3.5621,3.5893,3.6405,3.3124,3.3124,3.3124,3.3124,3.3124,3.3124,3.3124,3.3124,3.3124,3.3124,3.3124,3.3124,3.3124,3.3124,3.3124,3.3124,3.3124,3.3124,3.3124,3.3124,3.3124,3.3124,3.3124,3.3124,3.3124,3.3124,3.3124,3.3124,3.3124,3.3124,3.3124,3.3124,3.3124,3.3124,3.3124,3.3124,3.3124,3.3124,3.3124,3.3124,3.3124,3.3124,3.3124,3.3124,3.3124,3.3124,3.3124,3.3124,3.3124,3.3124,3.3124,3.3124,3.3124,3.3124,3.3124,3.3124,3.3124,3.3124,3.3124,3.3124,3.3124,3.3124,3.3124,3.3124,3.3124,3.3124,3.3124,3.3124,3.3124,3.3124,3.3124,3.3124,3.2975,3.2662,3.2891,3.3068,3.288,3.3157,3.3395,3.3571,3.3596,3.3596,3.3596,3.3935,3.4161,3.4161,3.4969,3.5571,3.5793,3.5994,3.6182,3.6405,3.6405,3.6405,3.6405,3.6405,3.6405,3.6405,3.6405,3.6405,3.6405,3.6405,3.6405,3.6392,3.5968,3.6019,3.6355,3.5554,3.568,3.6329,3.5529,3.5692,3.6367,3.5943,3.6031,3.6405,3.3124,3.3124,3.3124,3.3124,3.3124,3.3124,3.3124,3.3124,3.3124,3.3124,3.3124,3.3124,3.3124,3.3124,3.3124,3.3124,3.3124,3.3124,3.3124,3.3124,3.3124,3.3124,3.3124,3.3124,3.3124,3.3124,3.3124,3.3124,3.3124,3.3124,3.3124,3.3124,3.3124,3.3124,3.3124,3.3124,3.3124,3.3124,3.3124,3.3124,3.3124,3.3124,3.3124,3.3124,3.3124,3.3124,3.3124,3.3124,3.3124,3.3124,3.3124,3.3124,3.3124,3.3124,3.3124,3.3124,3.3124,3.3124,3.3124,3.3124,3.3124,3.3124,3.3124,3.3124,3.3124,3.3124,3.3124,3.3124,3.3124,3.3093,3.3093,3.3093,3.3093,3.3093,3.3093,3.3282,3.3822,3.3909,3.411,3.4663,3.468,3.468,3.468,3.468,3.4726,3.4726,3.5194,3.5793,3.638,3.5843,3.5805,3.6392,3.6405,3.6405,3.6405,3.6405,3.6405,3.6405,3.6405,3.6405,3.6405,3.6417,3.6417,3.6417,3.6417,3.6417,3.6417,3.6405,3.6405,3.6417,3.6405,3.6405,3.6405,3.6405,3.6405,3.6405,3.3124,3.3124,3.3124,3.3124,3.3124,3.3124,3.3124,3.3124,3.3124,3.3124,3.3124,3.3124,3.3124,3.3124,3.3124,3.3124,3.3124,3.3124,3.3124,3.3124,3.3124,3.3124,3.3124,3.3124,3.3124,3.3124,3.3124,3.3124,3.3124,3.3124,3.3124,3.3124,3.3124,3.3124,3.3124,3.3124,3.3124,3.3124,3.3124,3.3124,3.3124,3.3124,3.3124,3.3124,3.3124,3.3124,3.3124,3.3124,3.3124,3.3124,3.3124,3.3124,3.3124,3.3124,3.3124,3.3124,3.3357,3.3658,3.3658,3.3935,3.4048,3.3269,3.337,3.3558,3.3212,3.3671,3.4123,3.3734,3.396,3.4223,3.4223,3.4223,3.4223,3.4223,3.4223,3.4286,3.4449,3.4474,3.4537,3.4655,3.468,3.468,3.468,3.5031,3.5257,3.5257,3.5805,3.6194,3.6405,3.6207,3.6194,3.6405,3.6405,3.6405,3.6405,3.6405,3.6405,3.6405,3.6405,3.6405,3.6417,3.6807,3.6935,3.6935,3.6935,3.7161,3.745,3.6732,3.6631,3.6945,3.6556,3.6405,3.6405,3.6405,3.6405,3.6405,3.3124,3.3124,3.3124,3.3124,3.3124,3.3124,3.3124,3.3124,3.3124,3.3124,3.3124,3.3124,3.3124,3.3124,3.3124,3.3124,3.3124,3.3124,3.3124,3.3124,3.3124,3.3124,3.3124,3.3124,3.3124,3.3124,3.3124,3.3124,3.3124,3.3124,3.3124,3.3124,3.3124,3.3124,3.3124,3.3124,3.3124,3.3124,3.3124,3.3124,3.3124,3.3124,3.3124,3.3124,3.3124,3.3124,3.3124,3.3124,3.3124,3.3124,3.3124,3.3124,3.3124,3.3124,3.3124,3.3124,3.347,3.3897,3.3897,3.4299,3.4517,3.3884,3.3822,3.3872,3.3759,3.4073,3.4361,3.4248,3.4487,3.468,3.468,3.468,3.468,3.468,3.468,3.4756,3.4969,3.5006,3.5082,3.5341,3.5366,3.5366,3.5366,3.568,3.5868,3.5868,3.6584,3.687,3.643,3.682,3.6958,3.6732,3.6945,3.701,3.701,3.701,3.6958,3.6732,3.6732,3.6845,3.7023,3.7362,3.7513,3.7513,3.7513,3.7701,3.7952,3.7287,3.7073,3.7149,3.6857,3.6732,3.6707,3.6493,3.6543,3.6707,3.3124,3.3124,3.3124,3.3124,3.3124,3.3124,3.3124,3.3124,3.3124,3.3124,3.3124,3.3124,3.3124,3.3124,3.3124,3.3124,3.3124,3.3124,3.3124,3.3124,3.3124,3.3124,3.3124,3.3124,3.3124,3.3124,3.3124,3.3124,3.3124,3.3124,3.3124,3.3124,3.3124,3.3124,3.3124,3.3124,3.3124,3.3124,3.3124,3.3124,3.3124,3.3124,3.3124,3.3124,3.3124,3.3124,3.3124,3.3124,3.3124,3.3124,3.3124,3.3124,3.3124,3.3124,3.3124,3.3124,3.3508,3.3972,3.3972,3.4412,3.4864,3.4864,3.4449,3.4161,3.4613,3.4412,3.4293,3.4791,3.4921,3.4926,3.4967,3.5037,3.5017,3.4876,3.4909,3.513,3.5495,3.5571,3.5805,3.6342,3.6405,3.6405,3.6405,3.6455,3.6505,3.6556,3.7437,3.7563,3.6606,3.7462,3.7776,3.7274,3.7751,3.8002,3.8002,3.8002,3.7751,3.7262,3.7262,3.7525,3.8002,3.8065,3.809,3.809,3.809,3.8115,3.8153,3.8052,3.7713,3.7249,3.7199,3.7149,3.7048,3.6593,3.6732,3.7036,3.3124,3.3124,3.3124,3.3124,3.3124,3.3124,3.3124,3.3124,3.3124,3.3124,3.3124,3.3124,3.3124,3.3124,3.3124,3.3124,3.3124,3.3124,3.3124,3.3124,3.3124,3.3124,3.3124,3.3124,3.3124,3.3124,3.3124,3.3124,3.3124,3.3124,3.3124,3.3124,3.3124,3.3124,3.3124,3.3124,3.3124,3.3124,3.3124,3.3124,3.3124,3.3124,3.3124,3.3124,3.3124,3.3124,3.3124,3.3124,3.3124,3.3124,3.3124,3.3124,3.3124,3.3124,3.3124,3.3124,3.3771,3.455,3.455,3.5265,3.6053,3.6053,3.5592,3.5056,3.4756,3.529,3.5962,3.6393,3.659,3.6745,3.7077,3.7487,3.7376,3.6209,3.6632,3.69,3.6298,3.6182,3.6267,3.6392,3.6405,3.6405,3.6405,3.6807,3.7186,3.7613,3.7877,3.7902,3.7663,3.7877,3.7952,3.7839,3.7939,3.8002,3.8002,3.8002,3.7952,3.7826,3.7826,3.7889,3.8027,3.8479,3.868,3.868,3.868,3.8931,3.9258,3.8366,3.7939,3.7789,3.7349,3.6923,3.6568,3.6455,3.648,3.6568,3.3124,3.3124,3.3124,3.3124,3.3124,3.3124,3.3124,3.3124,3.3124,3.3124,3.3124,3.3124,3.3124,3.3124,3.3124,3.3124,3.3124,3.3124,3.3124,3.3124,3.3124,3.3124,3.3124,3.3124,3.3124,3.3124,3.3124,3.3124,3.3124,3.3124,3.3124,3.3124,3.3124,3.3124,3.3124,3.3124,3.3124,3.3124,3.3124,3.3124,3.3124,3.3124,3.3124,3.3124,3.3124,3.3124,3.3124,3.3124,3.3124,3.3124,3.3124,3.3124,3.3124,3.3124,3.3248,3.396,3.4388,3.4866,3.5602,3.6075,3.6405,3.6405,3.6345,3.6276,3.6202,3.6303,3.6675,3.7553,3.7689,3.7633,3.7846,3.8121,3.8044,3.7283,3.7569,3.7699,3.7232,3.7149,3.7149,3.7149,3.7149,3.7377,3.789,3.839,3.8736,3.8761,3.8791,3.8567,3.804,3.8517,3.8693,3.8429,3.868,3.8806,3.8806,3.8806,3.8806,3.8806,3.8542,3.8555,3.8818,3.9132,3.927,3.927,3.927,3.9433,3.9647,3.9057,3.8655,3.8366,3.7801,3.74,3.7086,3.6606,3.6405,3.6405,3.3124,3.3124,3.3124,3.3124,3.3124,3.3124,3.3124,3.3124,3.3124,3.3124,3.3124,3.3124,3.3124,3.3124,3.3124,3.3124,3.3124,3.3124,3.3124,3.3124,3.3124,3.3124,3.3124,3.3124,3.3124,3.3124,3.3124,3.3124,3.3124,3.3124,3.3124,3.3124,3.3124,3.3124,3.3124,3.3124,3.3124,3.3124,3.3124,3.3124,3.3124,3.3124,3.3124,3.3283,3.3326,3.3326,3.3326,3.324,3.3093,3.3224,3.3262,3.3232,3.3332,3.3474,3.3852,3.5093,3.5391,3.5571,3.6694,3.6908,3.6732,3.659,3.6958,3.7475,3.7969,3.7377,3.7045,3.8475,3.8421,3.8214,3.8445,3.8607,3.8583,3.8298,3.8432,3.8481,3.8285,3.8285,3.8334,3.8517,3.8383,3.8617,3.9423,3.9901,3.9982,3.9654,3.9651,3.9385,3.8577,3.9272,3.9676,3.9549,3.9842,4.0032,4.0224,4.0224,4.0224,4.0224,3.9753,3.9588,3.9697,3.9697,3.9697,3.9697,3.9697,3.9697,3.9697,3.9697,3.9371,3.8856,3.8228,3.7952,3.7739,3.6782,3.6468,3.6556,3.3124,3.3124,3.3124,3.3124,3.3124,3.3124,3.3124,3.3124,3.3124,3.3124,3.3124,3.3124,3.3124,3.3124,3.3124,3.3124,3.3124,3.3124,3.3124,3.3124,3.3124,3.3124,3.3124,3.3124,3.3124,3.3124,3.3124,3.3124,3.3124,3.3124,3.3124,3.3124,3.3124,3.3124,3.3124,3.3124,3.3124,3.3124,3.3124,3.3124,3.3124,3.3124,3.3197,3.3949,3.423,3.423,3.423,3.3738,3.3156,3.3633,3.3784,3.3872,3.4349,3.5041,3.5718,3.5913,3.6913,3.7786,3.7143,3.7652,3.8084,3.7301,3.7487,3.811,3.8986,3.8469,3.8083,3.9064,3.8996,3.9129,4.036,4.0985,4.0874,3.9586,4.0078,4.0314,3.952,3.9364,3.9685,4.0555,3.991,3.9294,3.9044,3.9057,3.9272,3.9677,3.9699,4.0007,4.0711,4.0084,4.0478,4.2247,4.1429,4.1419,4.2355,4.2355,4.2355,4.2404,4.2323,4.1366,3.9697,3.9697,3.9697,3.9697,3.9697,3.9697,3.9697,3.9697,3.9371,3.8856,3.8228,3.7713,3.7211,3.6631,3.6707,3.7073,3.3124,3.3124,3.3124,3.3124,3.3124,3.3124,3.3124,3.3124,3.3124,3.3124,3.3124,3.3124,3.3124,3.3124,3.3124,3.3124,3.3124,3.3124,3.3124,3.3124,3.3124,3.3124,3.3124,3.3124,3.3124,3.3124,3.3124,3.3124,3.3124,3.3124,3.3124,3.3124,3.3124,3.3124,3.3124,3.3124,3.3124,3.3124,3.3124,3.3124,3.3124,3.3411,3.3865,3.423,3.4662,3.5006,3.4551,3.4147,3.39,3.4495,3.502,3.5526,3.6104,3.6621,3.7104,3.7912,3.7909,3.771,3.8118,3.8018,3.7738,3.7318,3.8303,3.9468,3.9881,4.0324,4.0698,4.0739,4.0435,4.054,4.1773,4.2209,4.2146,4.1472,4.1719,4.1862,4.1432,4.1384,4.1323,4.1165,4.0741,4.0431,4.0206,4.0718,4.1169,4.1419,4.1432,4.1631,4.2061,4.1298,4.1255,4.2156,4.2471,4.2855,4.3341,4.2984,4.2587,4.2205,4.2205,4.1923,4.1432,4.1,4.0809,4.0885,4.1637,4.1994,4.1931,4.0922,4.0413,4.008,3.8944,3.814,3.7613,3.7374,3.7425,3.7651]}]]